<?xml version="1.0" encoding="UTF-8" standalone="no" ?>
<gpx xmlns="http://www.topografix.com/GPX/1/1" xmlns:xsi="http://www.w3.org/2001/XMLSchema-instance" xsi:schemaLocation="http://www.topografix.com/GPX/1/1 http://www.topografix.com/GPX/1/1/gpx.xsd" version="1.1" creator="VisuGPX - https://www.visugpx.com">
  <metadata>
    <name>Le Garlaban</name>
    <desc><![CDATA[Itinéraire facile,sans difficulté. ]]></desc>
  </metadata>
  <trk>
    <name><![CDATA[Garlaban_Sommet]]></name>
    <trkseg>
      <trkpt lat="43.30885" lon="5.54485">
        <ele>212.8</ele>
        <time>2013-11-13T07:42:00Z</time>
      </trkpt>
      <trkpt lat="43.30884" lon="5.54494">
        <ele>213.5</ele>
        <time>2013-11-13T07:42:07Z</time>
      </trkpt>
      <trkpt lat="43.30885" lon="5.54512">
        <ele>214.6</ele>
        <time>2013-11-13T07:42:20Z</time>
      </trkpt>
      <trkpt lat="43.30886" lon="5.54519">
        <ele>214.9</ele>
        <time>2013-11-13T07:42:25Z</time>
      </trkpt>
      <trkpt lat="43.30885" lon="5.54531">
        <ele>215.6</ele>
        <time>2013-11-13T07:42:34Z</time>
      </trkpt>
      <trkpt lat="43.30886" lon="5.54539">
        <ele>215.9</ele>
        <time>2013-11-13T07:42:39Z</time>
      </trkpt>
      <trkpt lat="43.30888" lon="5.54547">
        <ele>216.3</ele>
        <time>2013-11-13T07:42:45Z</time>
      </trkpt>
      <trkpt lat="43.30888" lon="5.54553">
        <ele>216.7</ele>
        <time>2013-11-13T07:42:50Z</time>
      </trkpt>
      <trkpt lat="43.30888" lon="5.5456">
        <ele>217.1</ele>
        <time>2013-11-13T07:42:55Z</time>
      </trkpt>
      <trkpt lat="43.30889" lon="5.54567">
        <ele>217.4</ele>
        <time>2013-11-13T07:43:00Z</time>
      </trkpt>
      <trkpt lat="43.30889" lon="5.54575">
        <ele>217.8</ele>
        <time>2013-11-13T07:43:05Z</time>
      </trkpt>
      <trkpt lat="43.30888" lon="5.54581">
        <ele>218.2</ele>
        <time>2013-11-13T07:43:10Z</time>
      </trkpt>
      <trkpt lat="43.30886" lon="5.54588">
        <ele>218.2</ele>
        <time>2013-11-13T07:43:14Z</time>
      </trkpt>
      <trkpt lat="43.30887" lon="5.54595">
        <ele>217.9</ele>
        <time>2013-11-13T07:43:18Z</time>
      </trkpt>
      <trkpt lat="43.30887" lon="5.54602">
        <ele>217.6</ele>
        <time>2013-11-13T07:43:21Z</time>
      </trkpt>
      <trkpt lat="43.30888" lon="5.54608">
        <ele>217.4</ele>
        <time>2013-11-13T07:43:24Z</time>
      </trkpt>
      <trkpt lat="43.30892" lon="5.54614">
        <ele>217.1</ele>
        <time>2013-11-13T07:43:28Z</time>
      </trkpt>
      <trkpt lat="43.30895" lon="5.54618">
        <ele>216.8</ele>
        <time>2013-11-13T07:43:31Z</time>
      </trkpt>
      <trkpt lat="43.30898" lon="5.54623">
        <ele>216.5</ele>
        <time>2013-11-13T07:43:35Z</time>
      </trkpt>
      <trkpt lat="43.30903" lon="5.54624">
        <ele>216.4</ele>
        <time>2013-11-13T07:43:38Z</time>
      </trkpt>
      <trkpt lat="43.30908" lon="5.54625">
        <ele>216.2</ele>
        <time>2013-11-13T07:43:42Z</time>
      </trkpt>
      <trkpt lat="43.30913" lon="5.54629">
        <ele>215.9</ele>
        <time>2013-11-13T07:43:46Z</time>
      </trkpt>
      <trkpt lat="43.30917" lon="5.54632">
        <ele>215.7</ele>
        <time>2013-11-13T07:43:49Z</time>
      </trkpt>
      <trkpt lat="43.30921" lon="5.54636">
        <ele>215.6</ele>
        <time>2013-11-13T07:43:53Z</time>
      </trkpt>
      <trkpt lat="43.30926" lon="5.54639">
        <ele>215.6</ele>
        <time>2013-11-13T07:43:57Z</time>
      </trkpt>
      <trkpt lat="43.3093" lon="5.54642">
        <ele>215.6</ele>
        <time>2013-11-13T07:44:01Z</time>
      </trkpt>
      <trkpt lat="43.30934" lon="5.54647">
        <ele>215.4</ele>
        <time>2013-11-13T07:44:04Z</time>
      </trkpt>
      <trkpt lat="43.30938" lon="5.54652">
        <ele>215.2</ele>
        <time>2013-11-13T07:44:09Z</time>
      </trkpt>
      <trkpt lat="43.30942" lon="5.54658">
        <ele>214.9</ele>
        <time>2013-11-13T07:44:12Z</time>
      </trkpt>
      <trkpt lat="43.30945" lon="5.54662">
        <ele>214.7</ele>
        <time>2013-11-13T07:44:16Z</time>
      </trkpt>
      <trkpt lat="43.30948" lon="5.54667">
        <ele>214.3</ele>
        <time>2013-11-13T07:44:19Z</time>
      </trkpt>
      <trkpt lat="43.3095" lon="5.54673">
        <ele>213.6</ele>
        <time>2013-11-13T07:44:23Z</time>
      </trkpt>
      <trkpt lat="43.30954" lon="5.54678">
        <ele>213</ele>
        <time>2013-11-13T07:44:27Z</time>
      </trkpt>
      <trkpt lat="43.3096" lon="5.54683">
        <ele>212.3</ele>
        <time>2013-11-13T07:44:31Z</time>
      </trkpt>
      <trkpt lat="43.30963" lon="5.54688">
        <ele>211.6</ele>
        <time>2013-11-13T07:44:35Z</time>
      </trkpt>
      <trkpt lat="43.30968" lon="5.54693">
        <ele>210.9</ele>
        <time>2013-11-13T07:44:40Z</time>
      </trkpt>
      <trkpt lat="43.3097" lon="5.54699">
        <ele>210.1</ele>
        <time>2013-11-13T07:44:44Z</time>
      </trkpt>
      <trkpt lat="43.30973" lon="5.54706">
        <ele>209</ele>
        <time>2013-11-13T07:44:49Z</time>
      </trkpt>
      <trkpt lat="43.30974" lon="5.54714">
        <ele>207.9</ele>
        <time>2013-11-13T07:44:55Z</time>
      </trkpt>
      <trkpt lat="43.30977" lon="5.54719">
        <ele>207</ele>
        <time>2013-11-13T07:44:59Z</time>
      </trkpt>
      <trkpt lat="43.30981" lon="5.54724">
        <ele>206.1</ele>
        <time>2013-11-13T07:45:04Z</time>
      </trkpt>
      <trkpt lat="43.30985" lon="5.54727">
        <ele>205.5</ele>
        <time>2013-11-13T07:45:07Z</time>
      </trkpt>
      <trkpt lat="43.30991" lon="5.54728">
        <ele>205</ele>
        <time>2013-11-13T07:45:12Z</time>
      </trkpt>
      <trkpt lat="43.30997" lon="5.5473">
        <ele>204.5</ele>
        <time>2013-11-13T07:45:16Z</time>
      </trkpt>
      <trkpt lat="43.31002" lon="5.5473">
        <ele>204.4</ele>
        <time>2013-11-13T07:45:19Z</time>
      </trkpt>
      <trkpt lat="43.31008" lon="5.54729">
        <ele>204.8</ele>
        <time>2013-11-13T07:45:25Z</time>
      </trkpt>
      <trkpt lat="43.31013" lon="5.54729">
        <ele>205</ele>
        <time>2013-11-13T07:45:29Z</time>
      </trkpt>
      <trkpt lat="43.31017" lon="5.54729">
        <ele>205.1</ele>
        <time>2013-11-13T07:45:33Z</time>
      </trkpt>
      <trkpt lat="43.31022" lon="5.54731">
        <ele>204.9</ele>
        <time>2013-11-13T07:45:37Z</time>
      </trkpt>
      <trkpt lat="43.31027" lon="5.54732">
        <ele>204.8</ele>
        <time>2013-11-13T07:45:41Z</time>
      </trkpt>
      <trkpt lat="43.31032" lon="5.54735">
        <ele>204.5</ele>
        <time>2013-11-13T07:45:44Z</time>
      </trkpt>
      <trkpt lat="43.31037" lon="5.54738">
        <ele>204.1</ele>
        <time>2013-11-13T07:45:48Z</time>
      </trkpt>
      <trkpt lat="43.31042" lon="5.5474">
        <ele>203.9</ele>
        <time>2013-11-13T07:45:51Z</time>
      </trkpt>
      <trkpt lat="43.31047" lon="5.54741">
        <ele>203.8</ele>
        <time>2013-11-13T07:45:56Z</time>
      </trkpt>
      <trkpt lat="43.31053" lon="5.54742">
        <ele>203.7</ele>
        <time>2013-11-13T07:46:00Z</time>
      </trkpt>
      <trkpt lat="43.31057" lon="5.54748">
        <ele>202.8</ele>
        <time>2013-11-13T07:46:05Z</time>
      </trkpt>
      <trkpt lat="43.31061" lon="5.54752">
        <ele>202.3</ele>
        <time>2013-11-13T07:46:08Z</time>
      </trkpt>
      <trkpt lat="43.31066" lon="5.54756">
        <ele>202.2</ele>
        <time>2013-11-13T07:46:13Z</time>
      </trkpt>
      <trkpt lat="43.31071" lon="5.54761">
        <ele>202.1</ele>
        <time>2013-11-13T07:46:17Z</time>
      </trkpt>
      <trkpt lat="43.31075" lon="5.54763">
        <ele>202.1</ele>
        <time>2013-11-13T07:46:21Z</time>
      </trkpt>
      <trkpt lat="43.3108" lon="5.54767">
        <ele>202.1</ele>
        <time>2013-11-13T07:46:25Z</time>
      </trkpt>
      <trkpt lat="43.31085" lon="5.54769">
        <ele>202.1</ele>
        <time>2013-11-13T07:46:30Z</time>
      </trkpt>
      <trkpt lat="43.3109" lon="5.5477">
        <ele>202.3</ele>
        <time>2013-11-13T07:46:34Z</time>
      </trkpt>
      <trkpt lat="43.31095" lon="5.54771">
        <ele>202.4</ele>
        <time>2013-11-13T07:46:39Z</time>
      </trkpt>
      <trkpt lat="43.311" lon="5.54771">
        <ele>202.6</ele>
        <time>2013-11-13T07:46:43Z</time>
      </trkpt>
      <trkpt lat="43.31106" lon="5.54768">
        <ele>203</ele>
        <time>2013-11-13T07:46:49Z</time>
      </trkpt>
      <trkpt lat="43.31112" lon="5.54766">
        <ele>203.3</ele>
        <time>2013-11-13T07:46:54Z</time>
      </trkpt>
      <trkpt lat="43.31117" lon="5.54765">
        <ele>203.6</ele>
        <time>2013-11-13T07:46:59Z</time>
      </trkpt>
      <trkpt lat="43.31122" lon="5.54762">
        <ele>203.9</ele>
        <time>2013-11-13T07:47:04Z</time>
      </trkpt>
      <trkpt lat="43.31127" lon="5.54759">
        <ele>204.2</ele>
        <time>2013-11-13T07:47:09Z</time>
      </trkpt>
      <trkpt lat="43.31131" lon="5.54756">
        <ele>204.5</ele>
        <time>2013-11-13T07:47:13Z</time>
      </trkpt>
      <trkpt lat="43.31137" lon="5.54753">
        <ele>204.8</ele>
        <time>2013-11-13T07:47:19Z</time>
      </trkpt>
      <trkpt lat="43.31141" lon="5.54748">
        <ele>205.3</ele>
        <time>2013-11-13T07:47:24Z</time>
      </trkpt>
      <trkpt lat="43.31145" lon="5.54745">
        <ele>205.9</ele>
        <time>2013-11-13T07:47:30Z</time>
      </trkpt>
      <trkpt lat="43.31149" lon="5.54741">
        <ele>206.6</ele>
        <time>2013-11-13T07:47:36Z</time>
      </trkpt>
      <trkpt lat="43.31154" lon="5.5474">
        <ele>207</ele>
        <time>2013-11-13T07:47:42Z</time>
      </trkpt>
      <trkpt lat="43.31159" lon="5.54736">
        <ele>207.6</ele>
        <time>2013-11-13T07:47:48Z</time>
      </trkpt>
      <trkpt lat="43.31163" lon="5.54733">
        <ele>208.1</ele>
        <time>2013-11-13T07:47:53Z</time>
      </trkpt>
      <trkpt lat="43.31167" lon="5.54734">
        <ele>208.1</ele>
        <time>2013-11-13T07:47:57Z</time>
      </trkpt>
      <trkpt lat="43.31171" lon="5.54729">
        <ele>208.8</ele>
        <time>2013-11-13T07:48:03Z</time>
      </trkpt>
      <trkpt lat="43.31176" lon="5.54725">
        <ele>209.3</ele>
        <time>2013-11-13T07:48:09Z</time>
      </trkpt>
      <trkpt lat="43.3118" lon="5.54722">
        <ele>209.7</ele>
        <time>2013-11-13T07:48:14Z</time>
      </trkpt>
      <trkpt lat="43.31185" lon="5.54721">
        <ele>209.9</ele>
        <time>2013-11-13T07:48:18Z</time>
      </trkpt>
      <trkpt lat="43.31189" lon="5.54718">
        <ele>210.2</ele>
        <time>2013-11-13T07:48:23Z</time>
      </trkpt>
      <trkpt lat="43.31194" lon="5.54715">
        <ele>210.4</ele>
        <time>2013-11-13T07:48:28Z</time>
      </trkpt>
      <trkpt lat="43.31199" lon="5.54713">
        <ele>210.6</ele>
        <time>2013-11-13T07:48:32Z</time>
      </trkpt>
      <trkpt lat="43.31204" lon="5.5471">
        <ele>210.7</ele>
        <time>2013-11-13T07:48:36Z</time>
      </trkpt>
      <trkpt lat="43.31208" lon="5.54705">
        <ele>211</ele>
        <time>2013-11-13T07:48:41Z</time>
      </trkpt>
      <trkpt lat="43.31211" lon="5.54701">
        <ele>211.1</ele>
        <time>2013-11-13T07:48:45Z</time>
      </trkpt>
      <trkpt lat="43.31215" lon="5.54696">
        <ele>211.3</ele>
        <time>2013-11-13T07:48:49Z</time>
      </trkpt>
      <trkpt lat="43.31219" lon="5.54692">
        <ele>211.4</ele>
        <time>2013-11-13T07:48:54Z</time>
      </trkpt>
      <trkpt lat="43.31223" lon="5.54687">
        <ele>211.4</ele>
        <time>2013-11-13T07:48:58Z</time>
      </trkpt>
      <trkpt lat="43.31225" lon="5.54681">
        <ele>211.5</ele>
        <time>2013-11-13T07:49:02Z</time>
      </trkpt>
      <trkpt lat="43.31229" lon="5.54684">
        <ele>211.2</ele>
        <time>2013-11-13T07:49:05Z</time>
      </trkpt>
      <trkpt lat="43.31225" lon="5.54689">
        <ele>211.2</ele>
        <time>2013-11-13T07:49:09Z</time>
      </trkpt>
      <trkpt lat="43.31221" lon="5.5469">
        <ele>211.4</ele>
        <time>2013-11-13T07:49:13Z</time>
      </trkpt>
      <trkpt lat="43.31225" lon="5.54687">
        <ele>211.3</ele>
        <time>2013-11-13T07:49:17Z</time>
      </trkpt>
      <trkpt lat="43.3123" lon="5.54688">
        <ele>211</ele>
        <time>2013-11-13T07:49:20Z</time>
      </trkpt>
      <trkpt lat="43.31234" lon="5.54684">
        <ele>210.9</ele>
        <time>2013-11-13T07:49:24Z</time>
      </trkpt>
      <trkpt lat="43.31238" lon="5.54679">
        <ele>210.8</ele>
        <time>2013-11-13T07:49:28Z</time>
      </trkpt>
      <trkpt lat="43.3124" lon="5.54673">
        <ele>210.8</ele>
        <time>2013-11-13T07:49:32Z</time>
      </trkpt>
      <trkpt lat="43.31241" lon="5.54665">
        <ele>210.8</ele>
        <time>2013-11-13T07:49:36Z</time>
      </trkpt>
      <trkpt lat="43.31243" lon="5.54658">
        <ele>210.4</ele>
        <time>2013-11-13T07:49:40Z</time>
      </trkpt>
      <trkpt lat="43.31245" lon="5.54652">
        <ele>210.2</ele>
        <time>2013-11-13T07:49:43Z</time>
      </trkpt>
      <trkpt lat="43.31245" lon="5.54646">
        <ele>210</ele>
        <time>2013-11-13T07:49:47Z</time>
      </trkpt>
      <trkpt lat="43.31243" lon="5.5464">
        <ele>210.2</ele>
        <time>2013-11-13T07:49:51Z</time>
      </trkpt>
      <trkpt lat="43.31243" lon="5.54632">
        <ele>210</ele>
        <time>2013-11-13T07:49:55Z</time>
      </trkpt>
      <trkpt lat="43.31243" lon="5.54626">
        <ele>210</ele>
        <time>2013-11-13T07:49:58Z</time>
      </trkpt>
      <trkpt lat="43.31241" lon="5.54619">
        <ele>210.1</ele>
        <time>2013-11-13T07:50:03Z</time>
      </trkpt>
      <trkpt lat="43.31238" lon="5.54615">
        <ele>210.5</ele>
        <time>2013-11-13T07:50:07Z</time>
      </trkpt>
      <trkpt lat="43.31233" lon="5.54615">
        <ele>211.2</ele>
        <time>2013-11-13T07:50:14Z</time>
      </trkpt>
      <trkpt lat="43.31229" lon="5.54613">
        <ele>211.9</ele>
        <time>2013-11-13T07:50:20Z</time>
      </trkpt>
      <trkpt lat="43.31223" lon="5.54612">
        <ele>212.6</ele>
        <time>2013-11-13T07:50:26Z</time>
      </trkpt>
      <trkpt lat="43.3122" lon="5.54617">
        <ele>213.1</ele>
        <time>2013-11-13T07:50:32Z</time>
      </trkpt>
      <trkpt lat="43.31219" lon="5.5461">
        <ele>213.2</ele>
        <time>2013-11-13T07:50:36Z</time>
      </trkpt>
      <trkpt lat="43.31223" lon="5.54604">
        <ele>212.7</ele>
        <time>2013-11-13T07:50:40Z</time>
      </trkpt>
      <trkpt lat="43.31228" lon="5.54603">
        <ele>212</ele>
        <time>2013-11-13T07:50:44Z</time>
      </trkpt>
      <trkpt lat="43.3123" lon="5.54596">
        <ele>211.7</ele>
        <time>2013-11-13T07:50:48Z</time>
      </trkpt>
      <trkpt lat="43.3123" lon="5.54589">
        <ele>211.6</ele>
        <time>2013-11-13T07:50:52Z</time>
      </trkpt>
      <trkpt lat="43.3123" lon="5.54581">
        <ele>211.6</ele>
        <time>2013-11-13T07:50:56Z</time>
      </trkpt>
      <trkpt lat="43.3123" lon="5.54574">
        <ele>211.5</ele>
        <time>2013-11-13T07:51:00Z</time>
      </trkpt>
      <trkpt lat="43.31231" lon="5.54566">
        <ele>211.2</ele>
        <time>2013-11-13T07:51:04Z</time>
      </trkpt>
      <trkpt lat="43.31231" lon="5.54559">
        <ele>211.1</ele>
        <time>2013-11-13T07:51:08Z</time>
      </trkpt>
      <trkpt lat="43.31233" lon="5.54552">
        <ele>210.6</ele>
        <time>2013-11-13T07:51:12Z</time>
      </trkpt>
      <trkpt lat="43.31235" lon="5.54547">
        <ele>210.2</ele>
        <time>2013-11-13T07:51:15Z</time>
      </trkpt>
      <trkpt lat="43.31239" lon="5.54541">
        <ele>209.5</ele>
        <time>2013-11-13T07:51:19Z</time>
      </trkpt>
      <trkpt lat="43.31242" lon="5.54535">
        <ele>208.9</ele>
        <time>2013-11-13T07:51:23Z</time>
      </trkpt>
      <trkpt lat="43.31242" lon="5.54529">
        <ele>208.7</ele>
        <time>2013-11-13T07:51:26Z</time>
      </trkpt>
      <trkpt lat="43.31243" lon="5.54522">
        <ele>208.5</ele>
        <time>2013-11-13T07:51:30Z</time>
      </trkpt>
      <trkpt lat="43.31243" lon="5.54515">
        <ele>208.4</ele>
        <time>2013-11-13T07:51:33Z</time>
      </trkpt>
      <trkpt lat="43.31244" lon="5.54509">
        <ele>208.1</ele>
        <time>2013-11-13T07:51:36Z</time>
      </trkpt>
      <trkpt lat="43.31245" lon="5.54502">
        <ele>207.9</ele>
        <time>2013-11-13T07:51:40Z</time>
      </trkpt>
      <trkpt lat="43.31247" lon="5.54496">
        <ele>208.3</ele>
        <time>2013-11-13T07:51:45Z</time>
      </trkpt>
      <trkpt lat="43.3125" lon="5.54491">
        <ele>208.6</ele>
        <time>2013-11-13T07:51:50Z</time>
      </trkpt>
      <trkpt lat="43.31254" lon="5.54487">
        <ele>209.3</ele>
        <time>2013-11-13T07:51:56Z</time>
      </trkpt>
      <trkpt lat="43.31259" lon="5.54483">
        <ele>209.8</ele>
        <time>2013-11-13T07:52:02Z</time>
      </trkpt>
      <trkpt lat="43.31263" lon="5.54479">
        <ele>210.5</ele>
        <time>2013-11-13T07:52:08Z</time>
      </trkpt>
      <trkpt lat="43.31266" lon="5.54474">
        <ele>211.2</ele>
        <time>2013-11-13T07:52:14Z</time>
      </trkpt>
      <trkpt lat="43.31269" lon="5.54468">
        <ele>211.9</ele>
        <time>2013-11-13T07:52:21Z</time>
      </trkpt>
      <trkpt lat="43.31272" lon="5.54463">
        <ele>212.5</ele>
        <time>2013-11-13T07:52:27Z</time>
      </trkpt>
      <trkpt lat="43.31275" lon="5.54458">
        <ele>213</ele>
        <time>2013-11-13T07:52:32Z</time>
      </trkpt>
      <trkpt lat="43.31279" lon="5.54454">
        <ele>213.2</ele>
        <time>2013-11-13T07:52:36Z</time>
      </trkpt>
      <trkpt lat="43.31283" lon="5.54449">
        <ele>213.6</ele>
        <time>2013-11-13T07:52:42Z</time>
      </trkpt>
      <trkpt lat="43.31286" lon="5.54443">
        <ele>214</ele>
        <time>2013-11-13T07:52:47Z</time>
      </trkpt>
      <trkpt lat="43.31288" lon="5.54436">
        <ele>214.6</ele>
        <time>2013-11-13T07:52:53Z</time>
      </trkpt>
      <trkpt lat="43.31289" lon="5.54429">
        <ele>215.1</ele>
        <time>2013-11-13T07:52:59Z</time>
      </trkpt>
      <trkpt lat="43.31292" lon="5.54423">
        <ele>215.4</ele>
        <time>2013-11-13T07:53:03Z</time>
      </trkpt>
      <trkpt lat="43.31295" lon="5.54416">
        <ele>215.6</ele>
        <time>2013-11-13T07:53:08Z</time>
      </trkpt>
      <trkpt lat="43.31298" lon="5.54411">
        <ele>215.4</ele>
        <time>2013-11-13T07:53:12Z</time>
      </trkpt>
      <trkpt lat="43.313" lon="5.54405">
        <ele>215.2</ele>
        <time>2013-11-13T07:53:15Z</time>
      </trkpt>
      <trkpt lat="43.31302" lon="5.54399">
        <ele>215.1</ele>
        <time>2013-11-13T07:53:19Z</time>
      </trkpt>
      <trkpt lat="43.31304" lon="5.54392">
        <ele>215</ele>
        <time>2013-11-13T07:53:23Z</time>
      </trkpt>
      <trkpt lat="43.31306" lon="5.54386">
        <ele>214.8</ele>
        <time>2013-11-13T07:53:26Z</time>
      </trkpt>
      <trkpt lat="43.31309" lon="5.54381">
        <ele>214.4</ele>
        <time>2013-11-13T07:53:30Z</time>
      </trkpt>
      <trkpt lat="43.31312" lon="5.54376">
        <ele>214</ele>
        <time>2013-11-13T07:53:33Z</time>
      </trkpt>
      <trkpt lat="43.31315" lon="5.5437">
        <ele>213.7</ele>
        <time>2013-11-13T07:53:36Z</time>
      </trkpt>
      <trkpt lat="43.31318" lon="5.54364">
        <ele>213.4</ele>
        <time>2013-11-13T07:53:40Z</time>
      </trkpt>
      <trkpt lat="43.31321" lon="5.54359">
        <ele>212.8</ele>
        <time>2013-11-13T07:53:44Z</time>
      </trkpt>
      <trkpt lat="43.31325" lon="5.54354">
        <ele>212.3</ele>
        <time>2013-11-13T07:53:47Z</time>
      </trkpt>
      <trkpt lat="43.31327" lon="5.54348">
        <ele>212</ele>
        <time>2013-11-13T07:53:51Z</time>
      </trkpt>
      <trkpt lat="43.3133" lon="5.54344">
        <ele>211.5</ele>
        <time>2013-11-13T07:53:54Z</time>
      </trkpt>
      <trkpt lat="43.31335" lon="5.54341">
        <ele>211.1</ele>
        <time>2013-11-13T07:53:57Z</time>
      </trkpt>
      <trkpt lat="43.31339" lon="5.54337">
        <ele>211.6</ele>
        <time>2013-11-13T07:54:03Z</time>
      </trkpt>
      <trkpt lat="43.31343" lon="5.54333">
        <ele>212</ele>
        <time>2013-11-13T07:54:08Z</time>
      </trkpt>
      <trkpt lat="43.31348" lon="5.54331">
        <ele>212.5</ele>
        <time>2013-11-13T07:54:13Z</time>
      </trkpt>
      <trkpt lat="43.31352" lon="5.54326">
        <ele>213.1</ele>
        <time>2013-11-13T07:54:20Z</time>
      </trkpt>
      <trkpt lat="43.31357" lon="5.54323">
        <ele>213.6</ele>
        <time>2013-11-13T07:54:25Z</time>
      </trkpt>
      <trkpt lat="43.31361" lon="5.5432">
        <ele>214</ele>
        <time>2013-11-13T07:54:30Z</time>
      </trkpt>
      <trkpt lat="43.31366" lon="5.54317">
        <ele>214.5</ele>
        <time>2013-11-13T07:54:35Z</time>
      </trkpt>
      <trkpt lat="43.3137" lon="5.54315">
        <ele>214.9</ele>
        <time>2013-11-13T07:54:40Z</time>
      </trkpt>
      <trkpt lat="43.31374" lon="5.54312">
        <ele>215.3</ele>
        <time>2013-11-13T07:54:45Z</time>
      </trkpt>
      <trkpt lat="43.31379" lon="5.54309">
        <ele>215.8</ele>
        <time>2013-11-13T07:54:51Z</time>
      </trkpt>
      <trkpt lat="43.31384" lon="5.54306">
        <ele>216.2</ele>
        <time>2013-11-13T07:54:56Z</time>
      </trkpt>
      <trkpt lat="43.31388" lon="5.54301">
        <ele>216.5</ele>
        <time>2013-11-13T07:55:01Z</time>
      </trkpt>
      <trkpt lat="43.31383" lon="5.54296">
        <ele>216.2</ele>
        <time>2013-11-13T07:55:04Z</time>
      </trkpt>
      <trkpt lat="43.3138" lon="5.54292">
        <ele>216.1</ele>
        <time>2013-11-13T07:55:08Z</time>
      </trkpt>
      <trkpt lat="43.31383" lon="5.54286">
        <ele>216.3</ele>
        <time>2013-11-13T07:55:12Z</time>
      </trkpt>
      <trkpt lat="43.31386" lon="5.54282">
        <ele>216.6</ele>
        <time>2013-11-13T07:55:16Z</time>
      </trkpt>
      <trkpt lat="43.31389" lon="5.54276">
        <ele>216.8</ele>
        <time>2013-11-13T07:55:21Z</time>
      </trkpt>
      <trkpt lat="43.31392" lon="5.5427">
        <ele>217</ele>
        <time>2013-11-13T07:55:25Z</time>
      </trkpt>
      <trkpt lat="43.31394" lon="5.54264">
        <ele>217.1</ele>
        <time>2013-11-13T07:55:29Z</time>
      </trkpt>
      <trkpt lat="43.31396" lon="5.54258">
        <ele>217.2</ele>
        <time>2013-11-13T07:55:33Z</time>
      </trkpt>
      <trkpt lat="43.31399" lon="5.54253">
        <ele>217.4</ele>
        <time>2013-11-13T07:55:38Z</time>
      </trkpt>
      <trkpt lat="43.31402" lon="5.54249">
        <ele>217.7</ele>
        <time>2013-11-13T07:55:42Z</time>
      </trkpt>
      <trkpt lat="43.31407" lon="5.54248">
        <ele>217.9</ele>
        <time>2013-11-13T07:55:46Z</time>
      </trkpt>
      <trkpt lat="43.31412" lon="5.54248">
        <ele>218.1</ele>
        <time>2013-11-13T07:55:50Z</time>
      </trkpt>
      <trkpt lat="43.31416" lon="5.54244">
        <ele>218.8</ele>
        <time>2013-11-13T07:55:56Z</time>
      </trkpt>
      <trkpt lat="43.3142" lon="5.5424">
        <ele>219.7</ele>
        <time>2013-11-13T07:56:04Z</time>
      </trkpt>
      <trkpt lat="43.31424" lon="5.54236">
        <ele>220.6</ele>
        <time>2013-11-13T07:56:12Z</time>
      </trkpt>
      <trkpt lat="43.31429" lon="5.54232">
        <ele>221.5</ele>
        <time>2013-11-13T07:56:19Z</time>
      </trkpt>
      <trkpt lat="43.31432" lon="5.54228">
        <ele>222.3</ele>
        <time>2013-11-13T07:56:26Z</time>
      </trkpt>
      <trkpt lat="43.31436" lon="5.54225">
        <ele>223</ele>
        <time>2013-11-13T07:56:32Z</time>
      </trkpt>
      <trkpt lat="43.3144" lon="5.54219">
        <ele>223.8</ele>
        <time>2013-11-13T07:56:39Z</time>
      </trkpt>
      <trkpt lat="43.31443" lon="5.54215">
        <ele>224.6</ele>
        <time>2013-11-13T07:56:46Z</time>
      </trkpt>
      <trkpt lat="43.31443" lon="5.54208">
        <ele>225.3</ele>
        <time>2013-11-13T07:56:52Z</time>
      </trkpt>
      <trkpt lat="43.31446" lon="5.54203">
        <ele>226</ele>
        <time>2013-11-13T07:56:59Z</time>
      </trkpt>
      <trkpt lat="43.31449" lon="5.54198">
        <ele>226.7</ele>
        <time>2013-11-13T07:57:05Z</time>
      </trkpt>
      <trkpt lat="43.31451" lon="5.54192">
        <ele>227.4</ele>
        <time>2013-11-13T07:57:11Z</time>
      </trkpt>
      <trkpt lat="43.31453" lon="5.54186">
        <ele>228</ele>
        <time>2013-11-13T07:57:17Z</time>
      </trkpt>
      <trkpt lat="43.31453" lon="5.54179">
        <ele>228.8</ele>
        <time>2013-11-13T07:57:24Z</time>
      </trkpt>
      <trkpt lat="43.31456" lon="5.54173">
        <ele>229.4</ele>
        <time>2013-11-13T07:57:30Z</time>
      </trkpt>
      <trkpt lat="43.31458" lon="5.54167">
        <ele>230</ele>
        <time>2013-11-13T07:57:36Z</time>
      </trkpt>
      <trkpt lat="43.31458" lon="5.5416">
        <ele>230.6</ele>
        <time>2013-11-13T07:57:42Z</time>
      </trkpt>
      <trkpt lat="43.31459" lon="5.54154">
        <ele>231.2</ele>
        <time>2013-11-13T07:57:47Z</time>
      </trkpt>
      <trkpt lat="43.31462" lon="5.54148">
        <ele>231.9</ele>
        <time>2013-11-13T07:57:54Z</time>
      </trkpt>
      <trkpt lat="43.31461" lon="5.54141">
        <ele>232.4</ele>
        <time>2013-11-13T07:57:59Z</time>
      </trkpt>
      <trkpt lat="43.31461" lon="5.54134">
        <ele>233.1</ele>
        <time>2013-11-13T07:58:06Z</time>
      </trkpt>
      <trkpt lat="43.31462" lon="5.54128">
        <ele>233.8</ele>
        <time>2013-11-13T07:58:12Z</time>
      </trkpt>
      <trkpt lat="43.31464" lon="5.54122">
        <ele>234.4</ele>
        <time>2013-11-13T07:58:18Z</time>
      </trkpt>
      <trkpt lat="43.31465" lon="5.54115">
        <ele>235</ele>
        <time>2013-11-13T07:58:23Z</time>
      </trkpt>
      <trkpt lat="43.31467" lon="5.54109">
        <ele>235.7</ele>
        <time>2013-11-13T07:58:30Z</time>
      </trkpt>
      <trkpt lat="43.31468" lon="5.54102">
        <ele>236.3</ele>
        <time>2013-11-13T07:58:36Z</time>
      </trkpt>
      <trkpt lat="43.3147" lon="5.54097">
        <ele>236.9</ele>
        <time>2013-11-13T07:58:41Z</time>
      </trkpt>
      <trkpt lat="43.31472" lon="5.54091">
        <ele>237.5</ele>
        <time>2013-11-13T07:58:47Z</time>
      </trkpt>
      <trkpt lat="43.31476" lon="5.54086">
        <ele>238.2</ele>
        <time>2013-11-13T07:58:54Z</time>
      </trkpt>
      <trkpt lat="43.31479" lon="5.54079">
        <ele>238.9</ele>
        <time>2013-11-13T07:59:01Z</time>
      </trkpt>
      <trkpt lat="43.3148" lon="5.54073">
        <ele>239.7</ele>
        <time>2013-11-13T07:59:07Z</time>
      </trkpt>
      <trkpt lat="43.31481" lon="5.54067">
        <ele>240.4</ele>
        <time>2013-11-13T07:59:13Z</time>
      </trkpt>
      <trkpt lat="43.31485" lon="5.54062">
        <ele>241</ele>
        <time>2013-11-13T07:59:19Z</time>
      </trkpt>
      <trkpt lat="43.31487" lon="5.54056">
        <ele>241.8</ele>
        <time>2013-11-13T07:59:26Z</time>
      </trkpt>
      <trkpt lat="43.31489" lon="5.54049">
        <ele>242.8</ele>
        <time>2013-11-13T07:59:35Z</time>
      </trkpt>
      <trkpt lat="43.31492" lon="5.54043">
        <ele>243.7</ele>
        <time>2013-11-13T07:59:42Z</time>
      </trkpt>
      <trkpt lat="43.31496" lon="5.54039">
        <ele>244.5</ele>
        <time>2013-11-13T07:59:49Z</time>
      </trkpt>
      <trkpt lat="43.315" lon="5.54036">
        <ele>245.3</ele>
        <time>2013-11-13T07:59:56Z</time>
      </trkpt>
      <trkpt lat="43.31501" lon="5.54028">
        <ele>246.2</ele>
        <time>2013-11-13T08:00:04Z</time>
      </trkpt>
      <trkpt lat="43.31504" lon="5.54023">
        <ele>246.5</ele>
        <time>2013-11-13T08:00:08Z</time>
      </trkpt>
      <trkpt lat="43.31508" lon="5.54018">
        <ele>246.6</ele>
        <time>2013-11-13T08:00:12Z</time>
      </trkpt>
      <trkpt lat="43.31511" lon="5.54013">
        <ele>246.9</ele>
        <time>2013-11-13T08:00:17Z</time>
      </trkpt>
      <trkpt lat="43.31513" lon="5.54007">
        <ele>247.3</ele>
        <time>2013-11-13T08:00:22Z</time>
      </trkpt>
      <trkpt lat="43.31516" lon="5.54003">
        <ele>247.4</ele>
        <time>2013-11-13T08:00:26Z</time>
      </trkpt>
      <trkpt lat="43.31519" lon="5.53997">
        <ele>247.4</ele>
        <time>2013-11-13T08:00:30Z</time>
      </trkpt>
      <trkpt lat="43.31523" lon="5.53993">
        <ele>247.3</ele>
        <time>2013-11-13T08:00:33Z</time>
      </trkpt>
      <trkpt lat="43.31526" lon="5.53988">
        <ele>247.1</ele>
        <time>2013-11-13T08:00:37Z</time>
      </trkpt>
      <trkpt lat="43.31528" lon="5.53982">
        <ele>247.4</ele>
        <time>2013-11-13T08:00:41Z</time>
      </trkpt>
      <trkpt lat="43.31529" lon="5.53976">
        <ele>247.8</ele>
        <time>2013-11-13T08:00:46Z</time>
      </trkpt>
      <trkpt lat="43.31532" lon="5.53969">
        <ele>247.8</ele>
        <time>2013-11-13T08:00:51Z</time>
      </trkpt>
      <trkpt lat="43.31533" lon="5.53962">
        <ele>248.3</ele>
        <time>2013-11-13T08:00:56Z</time>
      </trkpt>
      <trkpt lat="43.31533" lon="5.53955">
        <ele>248.9</ele>
        <time>2013-11-13T08:01:02Z</time>
      </trkpt>
      <trkpt lat="43.31534" lon="5.53948">
        <ele>249.4</ele>
        <time>2013-11-13T08:01:08Z</time>
      </trkpt>
      <trkpt lat="43.31534" lon="5.53942">
        <ele>249.9</ele>
        <time>2013-11-13T08:01:13Z</time>
      </trkpt>
      <trkpt lat="43.31535" lon="5.53935">
        <ele>250.4</ele>
        <time>2013-11-13T08:01:19Z</time>
      </trkpt>
      <trkpt lat="43.31536" lon="5.53928">
        <ele>250.9</ele>
        <time>2013-11-13T08:01:24Z</time>
      </trkpt>
      <trkpt lat="43.31537" lon="5.53921">
        <ele>251.4</ele>
        <time>2013-11-13T08:01:30Z</time>
      </trkpt>
      <trkpt lat="43.31539" lon="5.53915">
        <ele>251.9</ele>
        <time>2013-11-13T08:01:35Z</time>
      </trkpt>
      <trkpt lat="43.31542" lon="5.53909">
        <ele>252.2</ele>
        <time>2013-11-13T08:01:40Z</time>
      </trkpt>
      <trkpt lat="43.31544" lon="5.53901">
        <ele>252.8</ele>
        <time>2013-11-13T08:01:47Z</time>
      </trkpt>
      <trkpt lat="43.31545" lon="5.53894">
        <ele>253.4</ele>
        <time>2013-11-13T08:01:53Z</time>
      </trkpt>
      <trkpt lat="43.31545" lon="5.53888">
        <ele>253.9</ele>
        <time>2013-11-13T08:01:58Z</time>
      </trkpt>
      <trkpt lat="43.31547" lon="5.53881">
        <ele>254.4</ele>
        <time>2013-11-13T08:02:04Z</time>
      </trkpt>
      <trkpt lat="43.31552" lon="5.53879">
        <ele>254.5</ele>
        <time>2013-11-13T08:02:08Z</time>
      </trkpt>
      <trkpt lat="43.31556" lon="5.53875">
        <ele>254.6</ele>
        <time>2013-11-13T08:02:12Z</time>
      </trkpt>
      <trkpt lat="43.3156" lon="5.5387">
        <ele>255</ele>
        <time>2013-11-13T08:02:17Z</time>
      </trkpt>
      <trkpt lat="43.31562" lon="5.53864">
        <ele>255.5</ele>
        <time>2013-11-13T08:02:23Z</time>
      </trkpt>
      <trkpt lat="43.31563" lon="5.53858">
        <ele>256.1</ele>
        <time>2013-11-13T08:02:29Z</time>
      </trkpt>
      <trkpt lat="43.31563" lon="5.5385">
        <ele>256.8</ele>
        <time>2013-11-13T08:02:35Z</time>
      </trkpt>
      <trkpt lat="43.31565" lon="5.53844">
        <ele>257.4</ele>
        <time>2013-11-13T08:02:41Z</time>
      </trkpt>
      <trkpt lat="43.3156" lon="5.53841">
        <ele>257.8</ele>
        <time>2013-11-13T08:02:46Z</time>
      </trkpt>
      <trkpt lat="43.31556" lon="5.53839">
        <ele>258.1</ele>
        <time>2013-11-13T08:02:50Z</time>
      </trkpt>
      <trkpt lat="43.31552" lon="5.53842">
        <ele>257.9</ele>
        <time>2013-11-13T08:02:53Z</time>
      </trkpt>
      <trkpt lat="43.31556" lon="5.53839">
        <ele>258.1</ele>
        <time>2013-11-13T08:02:57Z</time>
      </trkpt>
      <trkpt lat="43.31554" lon="5.53833">
        <ele>258.8</ele>
        <time>2013-11-13T08:03:04Z</time>
      </trkpt>
      <trkpt lat="43.31554" lon="5.53826">
        <ele>259.4</ele>
        <time>2013-11-13T08:03:09Z</time>
      </trkpt>
      <trkpt lat="43.31555" lon="5.5382">
        <ele>260.1</ele>
        <time>2013-11-13T08:03:16Z</time>
      </trkpt>
      <trkpt lat="43.31556" lon="5.53814">
        <ele>260.6</ele>
        <time>2013-11-13T08:03:21Z</time>
      </trkpt>
      <trkpt lat="43.31558" lon="5.53807">
        <ele>261.2</ele>
        <time>2013-11-13T08:03:27Z</time>
      </trkpt>
      <trkpt lat="43.3156" lon="5.53802">
        <ele>261.6</ele>
        <time>2013-11-13T08:03:32Z</time>
      </trkpt>
      <trkpt lat="43.31561" lon="5.53796">
        <ele>262.2</ele>
        <time>2013-11-13T08:03:37Z</time>
      </trkpt>
      <trkpt lat="43.31563" lon="5.53788">
        <ele>262.8</ele>
        <time>2013-11-13T08:03:44Z</time>
      </trkpt>
      <trkpt lat="43.31565" lon="5.53781">
        <ele>263.4</ele>
        <time>2013-11-13T08:03:50Z</time>
      </trkpt>
      <trkpt lat="43.31566" lon="5.53775">
        <ele>264</ele>
        <time>2013-11-13T08:03:56Z</time>
      </trkpt>
      <trkpt lat="43.31565" lon="5.53768">
        <ele>264.7</ele>
        <time>2013-11-13T08:04:02Z</time>
      </trkpt>
      <trkpt lat="43.31562" lon="5.53761">
        <ele>265.5</ele>
        <time>2013-11-13T08:04:09Z</time>
      </trkpt>
      <trkpt lat="43.31561" lon="5.53755">
        <ele>266.2</ele>
        <time>2013-11-13T08:04:16Z</time>
      </trkpt>
      <trkpt lat="43.31559" lon="5.53749">
        <ele>266.8</ele>
        <time>2013-11-13T08:04:21Z</time>
      </trkpt>
      <trkpt lat="43.31559" lon="5.53742">
        <ele>267.3</ele>
        <time>2013-11-13T08:04:27Z</time>
      </trkpt>
      <trkpt lat="43.31559" lon="5.53736">
        <ele>267.8</ele>
        <time>2013-11-13T08:04:32Z</time>
      </trkpt>
      <trkpt lat="43.31558" lon="5.53728">
        <ele>268.3</ele>
        <time>2013-11-13T08:04:38Z</time>
      </trkpt>
      <trkpt lat="43.31559" lon="5.53722">
        <ele>268.7</ele>
        <time>2013-11-13T08:04:42Z</time>
      </trkpt>
      <trkpt lat="43.3156" lon="5.53713">
        <ele>269.2</ele>
        <time>2013-11-13T08:04:49Z</time>
      </trkpt>
      <trkpt lat="43.31559" lon="5.53706">
        <ele>269.8</ele>
        <time>2013-11-13T08:04:55Z</time>
      </trkpt>
      <trkpt lat="43.31558" lon="5.53699">
        <ele>270.4</ele>
        <time>2013-11-13T08:05:01Z</time>
      </trkpt>
      <trkpt lat="43.31559" lon="5.53692">
        <ele>270.8</ele>
        <time>2013-11-13T08:05:06Z</time>
      </trkpt>
      <trkpt lat="43.31559" lon="5.53685">
        <ele>271.3</ele>
        <time>2013-11-13T08:05:12Z</time>
      </trkpt>
      <trkpt lat="43.31558" lon="5.53678">
        <ele>271.9</ele>
        <time>2013-11-13T08:05:18Z</time>
      </trkpt>
      <trkpt lat="43.31557" lon="5.53671">
        <ele>272.5</ele>
        <time>2013-11-13T08:05:24Z</time>
      </trkpt>
      <trkpt lat="43.31555" lon="5.53664">
        <ele>273.4</ele>
        <time>2013-11-13T08:05:32Z</time>
      </trkpt>
      <trkpt lat="43.31553" lon="5.53656">
        <ele>274.2</ele>
        <time>2013-11-13T08:05:39Z</time>
      </trkpt>
      <trkpt lat="43.31553" lon="5.53649">
        <ele>274.9</ele>
        <time>2013-11-13T08:05:45Z</time>
      </trkpt>
      <trkpt lat="43.31552" lon="5.53643">
        <ele>275.5</ele>
        <time>2013-11-13T08:05:51Z</time>
      </trkpt>
      <trkpt lat="43.31551" lon="5.53635">
        <ele>276.4</ele>
        <time>2013-11-13T08:05:59Z</time>
      </trkpt>
      <trkpt lat="43.3155" lon="5.53629">
        <ele>277.1</ele>
        <time>2013-11-13T08:06:05Z</time>
      </trkpt>
      <trkpt lat="43.31551" lon="5.53622">
        <ele>277.5</ele>
        <time>2013-11-13T08:06:10Z</time>
      </trkpt>
      <trkpt lat="43.31547" lon="5.53621">
        <ele>278.7</ele>
        <time>2013-11-13T08:06:20Z</time>
      </trkpt>
      <trkpt lat="43.31542" lon="5.53624">
        <ele>279.4</ele>
        <time>2013-11-13T08:06:26Z</time>
      </trkpt>
      <trkpt lat="43.31538" lon="5.53627">
        <ele>279.9</ele>
        <time>2013-11-13T08:06:32Z</time>
      </trkpt>
      <trkpt lat="43.31534" lon="5.53631">
        <ele>280.1</ele>
        <time>2013-11-13T08:06:36Z</time>
      </trkpt>
      <trkpt lat="43.3153" lon="5.53632">
        <ele>280.9</ele>
        <time>2013-11-13T08:06:42Z</time>
      </trkpt>
      <trkpt lat="43.31534" lon="5.53631">
        <ele>280.1</ele>
        <time>2013-11-13T08:06:46Z</time>
      </trkpt>
      <trkpt lat="43.31531" lon="5.53634">
        <ele>280.5</ele>
        <time>2013-11-13T08:06:51Z</time>
      </trkpt>
      <trkpt lat="43.31535" lon="5.53631">
        <ele>279.9</ele>
        <time>2013-11-13T08:06:55Z</time>
      </trkpt>
      <trkpt lat="43.31538" lon="5.53626">
        <ele>279.9</ele>
        <time>2013-11-13T08:06:59Z</time>
      </trkpt>
      <trkpt lat="43.31541" lon="5.53622">
        <ele>279.7</ele>
        <time>2013-11-13T08:07:02Z</time>
      </trkpt>
      <trkpt lat="43.31546" lon="5.53621">
        <ele>278.7</ele>
        <time>2013-11-13T08:07:07Z</time>
      </trkpt>
      <trkpt lat="43.31552" lon="5.53619">
        <ele>277.7</ele>
        <time>2013-11-13T08:07:12Z</time>
      </trkpt>
      <trkpt lat="43.31556" lon="5.53615">
        <ele>277</ele>
        <time>2013-11-13T08:07:16Z</time>
      </trkpt>
      <trkpt lat="43.3156" lon="5.5361">
        <ele>276.6</ele>
        <time>2013-11-13T08:07:19Z</time>
      </trkpt>
      <trkpt lat="43.3156" lon="5.53603">
        <ele>277.1</ele>
        <time>2013-11-13T08:07:25Z</time>
      </trkpt>
      <trkpt lat="43.3156" lon="5.53597">
        <ele>277.4</ele>
        <time>2013-11-13T08:07:29Z</time>
      </trkpt>
      <trkpt lat="43.31563" lon="5.53591">
        <ele>277.2</ele>
        <time>2013-11-13T08:07:33Z</time>
      </trkpt>
      <trkpt lat="43.31562" lon="5.53584">
        <ele>278</ele>
        <time>2013-11-13T08:07:40Z</time>
      </trkpt>
      <trkpt lat="43.31561" lon="5.53576">
        <ele>278.8</ele>
        <time>2013-11-13T08:07:47Z</time>
      </trkpt>
      <trkpt lat="43.31561" lon="5.53569">
        <ele>279.6</ele>
        <time>2013-11-13T08:07:54Z</time>
      </trkpt>
      <trkpt lat="43.3156" lon="5.53562">
        <ele>280.5</ele>
        <time>2013-11-13T08:08:01Z</time>
      </trkpt>
      <trkpt lat="43.3156" lon="5.53555">
        <ele>281.1</ele>
        <time>2013-11-13T08:08:07Z</time>
      </trkpt>
      <trkpt lat="43.31561" lon="5.53548">
        <ele>281.5</ele>
        <time>2013-11-13T08:08:13Z</time>
      </trkpt>
      <trkpt lat="43.31562" lon="5.53541">
        <ele>281.9</ele>
        <time>2013-11-13T08:08:18Z</time>
      </trkpt>
      <trkpt lat="43.31562" lon="5.53534">
        <ele>282.6</ele>
        <time>2013-11-13T08:08:24Z</time>
      </trkpt>
      <trkpt lat="43.31562" lon="5.53528">
        <ele>283.1</ele>
        <time>2013-11-13T08:08:30Z</time>
      </trkpt>
      <trkpt lat="43.31562" lon="5.53521">
        <ele>283.8</ele>
        <time>2013-11-13T08:08:36Z</time>
      </trkpt>
      <trkpt lat="43.31562" lon="5.53514">
        <ele>284.4</ele>
        <time>2013-11-13T08:08:42Z</time>
      </trkpt>
      <trkpt lat="43.31563" lon="5.53507">
        <ele>284.8</ele>
        <time>2013-11-13T08:08:47Z</time>
      </trkpt>
      <trkpt lat="43.31564" lon="5.53499">
        <ele>285.3</ele>
        <time>2013-11-13T08:08:53Z</time>
      </trkpt>
      <trkpt lat="43.31563" lon="5.53493">
        <ele>286.3</ele>
        <time>2013-11-13T08:09:01Z</time>
      </trkpt>
      <trkpt lat="43.31563" lon="5.53486">
        <ele>287.4</ele>
        <time>2013-11-13T08:09:10Z</time>
      </trkpt>
      <trkpt lat="43.31565" lon="5.53479">
        <ele>287.8</ele>
        <time>2013-11-13T08:09:16Z</time>
      </trkpt>
      <trkpt lat="43.31569" lon="5.53474">
        <ele>287.5</ele>
        <time>2013-11-13T08:09:19Z</time>
      </trkpt>
      <trkpt lat="43.31572" lon="5.53469">
        <ele>287.8</ele>
        <time>2013-11-13T08:09:24Z</time>
      </trkpt>
      <trkpt lat="43.31574" lon="5.53464">
        <ele>288</ele>
        <time>2013-11-13T08:09:28Z</time>
      </trkpt>
      <trkpt lat="43.31578" lon="5.5346">
        <ele>287.7</ele>
        <time>2013-11-13T08:09:31Z</time>
      </trkpt>
      <trkpt lat="43.31583" lon="5.53457">
        <ele>287.4</ele>
        <time>2013-11-13T08:09:34Z</time>
      </trkpt>
      <trkpt lat="43.31589" lon="5.53457">
        <ele>286.8</ele>
        <time>2013-11-13T08:09:39Z</time>
      </trkpt>
      <trkpt lat="43.31593" lon="5.5346">
        <ele>285.9</ele>
        <time>2013-11-13T08:09:43Z</time>
      </trkpt>
      <trkpt lat="43.31597" lon="5.53462">
        <ele>285.2</ele>
        <time>2013-11-13T08:09:47Z</time>
      </trkpt>
      <trkpt lat="43.31601" lon="5.53467">
        <ele>284.2</ele>
        <time>2013-11-13T08:09:52Z</time>
      </trkpt>
      <trkpt lat="43.31606" lon="5.5347">
        <ele>283.4</ele>
        <time>2013-11-13T08:09:56Z</time>
      </trkpt>
      <trkpt lat="43.31611" lon="5.53475">
        <ele>282.5</ele>
        <time>2013-11-13T08:10:01Z</time>
      </trkpt>
      <trkpt lat="43.31615" lon="5.53478">
        <ele>281.7</ele>
        <time>2013-11-13T08:10:05Z</time>
      </trkpt>
      <trkpt lat="43.3162" lon="5.53484">
        <ele>280.8</ele>
        <time>2013-11-13T08:10:10Z</time>
      </trkpt>
      <trkpt lat="43.31625" lon="5.53486">
        <ele>280.2</ele>
        <time>2013-11-13T08:10:14Z</time>
      </trkpt>
      <trkpt lat="43.31629" lon="5.53489">
        <ele>279.7</ele>
        <time>2013-11-13T08:10:17Z</time>
      </trkpt>
      <trkpt lat="43.31633" lon="5.53493">
        <ele>279</ele>
        <time>2013-11-13T08:10:21Z</time>
      </trkpt>
      <trkpt lat="43.31637" lon="5.53497">
        <ele>278.4</ele>
        <time>2013-11-13T08:10:25Z</time>
      </trkpt>
      <trkpt lat="43.31641" lon="5.535">
        <ele>277.9</ele>
        <time>2013-11-13T08:10:28Z</time>
      </trkpt>
      <trkpt lat="43.31645" lon="5.53504">
        <ele>277.3</ele>
        <time>2013-11-13T08:10:32Z</time>
      </trkpt>
      <trkpt lat="43.3165" lon="5.53505">
        <ele>276.9</ele>
        <time>2013-11-13T08:10:35Z</time>
      </trkpt>
      <trkpt lat="43.31656" lon="5.53504">
        <ele>276.9</ele>
        <time>2013-11-13T08:10:40Z</time>
      </trkpt>
      <trkpt lat="43.31662" lon="5.53499">
        <ele>277.2</ele>
        <time>2013-11-13T08:10:46Z</time>
      </trkpt>
      <trkpt lat="43.31666" lon="5.53494">
        <ele>277.4</ele>
        <time>2013-11-13T08:10:51Z</time>
      </trkpt>
      <trkpt lat="43.3167" lon="5.53489">
        <ele>277.4</ele>
        <time>2013-11-13T08:10:55Z</time>
      </trkpt>
      <trkpt lat="43.31673" lon="5.53483">
        <ele>277.2</ele>
        <time>2013-11-13T08:10:59Z</time>
      </trkpt>
      <trkpt lat="43.31675" lon="5.53476">
        <ele>277.4</ele>
        <time>2013-11-13T08:11:04Z</time>
      </trkpt>
      <trkpt lat="43.31676" lon="5.53469">
        <ele>277.7</ele>
        <time>2013-11-13T08:11:08Z</time>
      </trkpt>
      <trkpt lat="43.31678" lon="5.53461">
        <ele>277.8</ele>
        <time>2013-11-13T08:11:13Z</time>
      </trkpt>
      <trkpt lat="43.3168" lon="5.53455">
        <ele>278</ele>
        <time>2013-11-13T08:11:18Z</time>
      </trkpt>
      <trkpt lat="43.31682" lon="5.53449">
        <ele>278</ele>
        <time>2013-11-13T08:11:21Z</time>
      </trkpt>
      <trkpt lat="43.31682" lon="5.53442">
        <ele>278.3</ele>
        <time>2013-11-13T08:11:26Z</time>
      </trkpt>
      <trkpt lat="43.31683" lon="5.53435">
        <ele>278.6</ele>
        <time>2013-11-13T08:11:31Z</time>
      </trkpt>
      <trkpt lat="43.31682" lon="5.53429">
        <ele>279.1</ele>
        <time>2013-11-13T08:11:36Z</time>
      </trkpt>
      <trkpt lat="43.31681" lon="5.53422">
        <ele>279.8</ele>
        <time>2013-11-13T08:11:43Z</time>
      </trkpt>
      <trkpt lat="43.31679" lon="5.53414">
        <ele>280.7</ele>
        <time>2013-11-13T08:11:51Z</time>
      </trkpt>
      <trkpt lat="43.31676" lon="5.53408">
        <ele>281.3</ele>
        <time>2013-11-13T08:11:57Z</time>
      </trkpt>
      <trkpt lat="43.31675" lon="5.53401">
        <ele>281.8</ele>
        <time>2013-11-13T08:12:02Z</time>
      </trkpt>
      <trkpt lat="43.31674" lon="5.53395">
        <ele>282.3</ele>
        <time>2013-11-13T08:12:08Z</time>
      </trkpt>
      <trkpt lat="43.31672" lon="5.53388">
        <ele>282.9</ele>
        <time>2013-11-13T08:12:14Z</time>
      </trkpt>
      <trkpt lat="43.31668" lon="5.5338">
        <ele>284</ele>
        <time>2013-11-13T08:12:23Z</time>
      </trkpt>
      <trkpt lat="43.31666" lon="5.53373">
        <ele>284.8</ele>
        <time>2013-11-13T08:12:30Z</time>
      </trkpt>
      <trkpt lat="43.31665" lon="5.53365">
        <ele>285.3</ele>
        <time>2013-11-13T08:12:36Z</time>
      </trkpt>
      <trkpt lat="43.31663" lon="5.53358">
        <ele>286</ele>
        <time>2013-11-13T08:12:43Z</time>
      </trkpt>
      <trkpt lat="43.31662" lon="5.53352">
        <ele>286.6</ele>
        <time>2013-11-13T08:12:49Z</time>
      </trkpt>
      <trkpt lat="43.31661" lon="5.53344">
        <ele>287.3</ele>
        <time>2013-11-13T08:12:55Z</time>
      </trkpt>
      <trkpt lat="43.3166" lon="5.53338">
        <ele>288</ele>
        <time>2013-11-13T08:13:02Z</time>
      </trkpt>
      <trkpt lat="43.31659" lon="5.53331">
        <ele>288.5</ele>
        <time>2013-11-13T08:13:07Z</time>
      </trkpt>
      <trkpt lat="43.31659" lon="5.53324">
        <ele>289</ele>
        <time>2013-11-13T08:13:13Z</time>
      </trkpt>
      <trkpt lat="43.31659" lon="5.53317">
        <ele>289.4</ele>
        <time>2013-11-13T08:13:18Z</time>
      </trkpt>
      <trkpt lat="43.31658" lon="5.53311">
        <ele>290.2</ele>
        <time>2013-11-13T08:13:25Z</time>
      </trkpt>
      <trkpt lat="43.31658" lon="5.53303">
        <ele>291</ele>
        <time>2013-11-13T08:13:32Z</time>
      </trkpt>
      <trkpt lat="43.31656" lon="5.53297">
        <ele>292.1</ele>
        <time>2013-11-13T08:13:41Z</time>
      </trkpt>
      <trkpt lat="43.31655" lon="5.5329">
        <ele>292.6</ele>
        <time>2013-11-13T08:13:47Z</time>
      </trkpt>
      <trkpt lat="43.31656" lon="5.53283">
        <ele>292.9</ele>
        <time>2013-11-13T08:13:51Z</time>
      </trkpt>
      <trkpt lat="43.31658" lon="5.53277">
        <ele>292.6</ele>
        <time>2013-11-13T08:13:54Z</time>
      </trkpt>
      <trkpt lat="43.31662" lon="5.53273">
        <ele>291.8</ele>
        <time>2013-11-13T08:13:59Z</time>
      </trkpt>
      <trkpt lat="43.31667" lon="5.5327">
        <ele>290.6</ele>
        <time>2013-11-13T08:14:04Z</time>
      </trkpt>
      <trkpt lat="43.31671" lon="5.53268">
        <ele>289.9</ele>
        <time>2013-11-13T08:14:08Z</time>
      </trkpt>
      <trkpt lat="43.31676" lon="5.53265">
        <ele>289</ele>
        <time>2013-11-13T08:14:13Z</time>
      </trkpt>
      <trkpt lat="43.31681" lon="5.53262">
        <ele>288.3</ele>
        <time>2013-11-13T08:14:17Z</time>
      </trkpt>
      <trkpt lat="43.31684" lon="5.53256">
        <ele>288.1</ele>
        <time>2013-11-13T08:14:20Z</time>
      </trkpt>
      <trkpt lat="43.31687" lon="5.53252">
        <ele>287.7</ele>
        <time>2013-11-13T08:14:24Z</time>
      </trkpt>
      <trkpt lat="43.31691" lon="5.53247">
        <ele>287.4</ele>
        <time>2013-11-13T08:14:27Z</time>
      </trkpt>
      <trkpt lat="43.31695" lon="5.53243">
        <ele>287.3</ele>
        <time>2013-11-13T08:14:31Z</time>
      </trkpt>
      <trkpt lat="43.317" lon="5.53241">
        <ele>286.8</ele>
        <time>2013-11-13T08:14:34Z</time>
      </trkpt>
      <trkpt lat="43.31703" lon="5.53235">
        <ele>287</ele>
        <time>2013-11-13T08:14:39Z</time>
      </trkpt>
      <trkpt lat="43.31706" lon="5.5323">
        <ele>287</ele>
        <time>2013-11-13T08:14:43Z</time>
      </trkpt>
      <trkpt lat="43.31709" lon="5.53224">
        <ele>287.4</ele>
        <time>2013-11-13T08:14:48Z</time>
      </trkpt>
      <trkpt lat="43.31712" lon="5.53219">
        <ele>287.4</ele>
        <time>2013-11-13T08:14:52Z</time>
      </trkpt>
      <trkpt lat="43.31717" lon="5.53213">
        <ele>287.5</ele>
        <time>2013-11-13T08:14:57Z</time>
      </trkpt>
      <trkpt lat="43.31719" lon="5.53207">
        <ele>287.8</ele>
        <time>2013-11-13T08:15:02Z</time>
      </trkpt>
      <trkpt lat="43.31722" lon="5.53201">
        <ele>287.9</ele>
        <time>2013-11-13T08:15:06Z</time>
      </trkpt>
      <trkpt lat="43.31725" lon="5.53194">
        <ele>288.3</ele>
        <time>2013-11-13T08:15:12Z</time>
      </trkpt>
      <trkpt lat="43.31728" lon="5.53189">
        <ele>288.4</ele>
        <time>2013-11-13T08:15:16Z</time>
      </trkpt>
      <trkpt lat="43.31731" lon="5.53184">
        <ele>288.4</ele>
        <time>2013-11-13T08:15:19Z</time>
      </trkpt>
      <trkpt lat="43.31733" lon="5.53177">
        <ele>289</ele>
        <time>2013-11-13T08:15:26Z</time>
      </trkpt>
      <trkpt lat="43.31736" lon="5.53171">
        <ele>289</ele>
        <time>2013-11-13T08:15:30Z</time>
      </trkpt>
      <trkpt lat="43.3174" lon="5.53165">
        <ele>288.9</ele>
        <time>2013-11-13T08:15:35Z</time>
      </trkpt>
      <trkpt lat="43.31743" lon="5.53159">
        <ele>289</ele>
        <time>2013-11-13T08:15:39Z</time>
      </trkpt>
      <trkpt lat="43.31745" lon="5.53153">
        <ele>289.4</ele>
        <time>2013-11-13T08:15:44Z</time>
      </trkpt>
      <trkpt lat="43.31749" lon="5.53147">
        <ele>289.4</ele>
        <time>2013-11-13T08:15:48Z</time>
      </trkpt>
      <trkpt lat="43.31749" lon="5.5314">
        <ele>290.4</ele>
        <time>2013-11-13T08:15:56Z</time>
      </trkpt>
      <trkpt lat="43.3175" lon="5.53134">
        <ele>291.2</ele>
        <time>2013-11-13T08:16:03Z</time>
      </trkpt>
      <trkpt lat="43.31751" lon="5.53127">
        <ele>292.2</ele>
        <time>2013-11-13T08:16:11Z</time>
      </trkpt>
      <trkpt lat="43.31752" lon="5.5312">
        <ele>293.2</ele>
        <time>2013-11-13T08:16:20Z</time>
      </trkpt>
      <trkpt lat="43.31753" lon="5.53113">
        <ele>294.3</ele>
        <time>2013-11-13T08:16:29Z</time>
      </trkpt>
      <trkpt lat="43.31756" lon="5.53108">
        <ele>294.9</ele>
        <time>2013-11-13T08:16:34Z</time>
      </trkpt>
      <trkpt lat="43.3176" lon="5.53102">
        <ele>295.6</ele>
        <time>2013-11-13T08:16:41Z</time>
      </trkpt>
      <trkpt lat="43.31764" lon="5.53098">
        <ele>296</ele>
        <time>2013-11-13T08:16:46Z</time>
      </trkpt>
      <trkpt lat="43.31768" lon="5.53095">
        <ele>296.1</ele>
        <time>2013-11-13T08:16:50Z</time>
      </trkpt>
      <trkpt lat="43.31772" lon="5.53093">
        <ele>296.1</ele>
        <time>2013-11-13T08:16:54Z</time>
      </trkpt>
      <trkpt lat="43.31778" lon="5.53093">
        <ele>295.8</ele>
        <time>2013-11-13T08:16:57Z</time>
      </trkpt>
      <trkpt lat="43.31782" lon="5.53092">
        <ele>295.7</ele>
        <time>2013-11-13T08:17:01Z</time>
      </trkpt>
      <trkpt lat="43.31788" lon="5.53089">
        <ele>295.6</ele>
        <time>2013-11-13T08:17:06Z</time>
      </trkpt>
      <trkpt lat="43.31793" lon="5.53088">
        <ele>295.4</ele>
        <time>2013-11-13T08:17:09Z</time>
      </trkpt>
      <trkpt lat="43.31797" lon="5.53089">
        <ele>295</ele>
        <time>2013-11-13T08:17:12Z</time>
      </trkpt>
      <trkpt lat="43.31802" lon="5.53092">
        <ele>294.3</ele>
        <time>2013-11-13T08:17:16Z</time>
      </trkpt>
      <trkpt lat="43.31806" lon="5.53096">
        <ele>293.7</ele>
        <time>2013-11-13T08:17:20Z</time>
      </trkpt>
      <trkpt lat="43.3181" lon="5.531">
        <ele>293.1</ele>
        <time>2013-11-13T08:17:24Z</time>
      </trkpt>
      <trkpt lat="43.31812" lon="5.53106">
        <ele>292.4</ele>
        <time>2013-11-13T08:17:27Z</time>
      </trkpt>
      <trkpt lat="43.31813" lon="5.53113">
        <ele>291.8</ele>
        <time>2013-11-13T08:17:31Z</time>
      </trkpt>
      <trkpt lat="43.31815" lon="5.53119">
        <ele>291.1</ele>
        <time>2013-11-13T08:17:35Z</time>
      </trkpt>
      <trkpt lat="43.31817" lon="5.53126">
        <ele>290.4</ele>
        <time>2013-11-13T08:17:39Z</time>
      </trkpt>
      <trkpt lat="43.31818" lon="5.53132">
        <ele>289.8</ele>
        <time>2013-11-13T08:17:43Z</time>
      </trkpt>
      <trkpt lat="43.31822" lon="5.53135">
        <ele>289.5</ele>
        <time>2013-11-13T08:17:46Z</time>
      </trkpt>
      <trkpt lat="43.31827" lon="5.53136">
        <ele>289.4</ele>
        <time>2013-11-13T08:17:49Z</time>
      </trkpt>
      <trkpt lat="43.3183" lon="5.5314">
        <ele>289</ele>
        <time>2013-11-13T08:17:53Z</time>
      </trkpt>
      <trkpt lat="43.31833" lon="5.53147">
        <ele>288.5</ele>
        <time>2013-11-13T08:17:56Z</time>
      </trkpt>
      <trkpt lat="43.31835" lon="5.53153">
        <ele>288.2</ele>
        <time>2013-11-13T08:18:00Z</time>
      </trkpt>
      <trkpt lat="43.31841" lon="5.53154">
        <ele>288.9</ele>
        <time>2013-11-13T08:18:06Z</time>
      </trkpt>
      <trkpt lat="43.31846" lon="5.53153">
        <ele>289.6</ele>
        <time>2013-11-13T08:18:13Z</time>
      </trkpt>
      <trkpt lat="43.3185" lon="5.53151">
        <ele>290.4</ele>
        <time>2013-11-13T08:18:20Z</time>
      </trkpt>
      <trkpt lat="43.31853" lon="5.53146">
        <ele>291.1</ele>
        <time>2013-11-13T08:18:26Z</time>
      </trkpt>
      <trkpt lat="43.31857" lon="5.53142">
        <ele>291.9</ele>
        <time>2013-11-13T08:18:33Z</time>
      </trkpt>
      <trkpt lat="43.31861" lon="5.53137">
        <ele>292.8</ele>
        <time>2013-11-13T08:18:40Z</time>
      </trkpt>
      <trkpt lat="43.31864" lon="5.53131">
        <ele>293.6</ele>
        <time>2013-11-13T08:18:47Z</time>
      </trkpt>
      <trkpt lat="43.31866" lon="5.53124">
        <ele>294.4</ele>
        <time>2013-11-13T08:18:54Z</time>
      </trkpt>
      <trkpt lat="43.31867" lon="5.53116">
        <ele>295</ele>
        <time>2013-11-13T08:19:01Z</time>
      </trkpt>
      <trkpt lat="43.31866" lon="5.53109">
        <ele>295.5</ele>
        <time>2013-11-13T08:19:06Z</time>
      </trkpt>
      <trkpt lat="43.31868" lon="5.53103">
        <ele>296.1</ele>
        <time>2013-11-13T08:19:12Z</time>
      </trkpt>
      <trkpt lat="43.31869" lon="5.53096">
        <ele>296.7</ele>
        <time>2013-11-13T08:19:18Z</time>
      </trkpt>
      <trkpt lat="43.31871" lon="5.53091">
        <ele>297.4</ele>
        <time>2013-11-13T08:19:24Z</time>
      </trkpt>
      <trkpt lat="43.31873" lon="5.53085">
        <ele>298.2</ele>
        <time>2013-11-13T08:19:31Z</time>
      </trkpt>
      <trkpt lat="43.31875" lon="5.53078">
        <ele>299.4</ele>
        <time>2013-11-13T08:19:41Z</time>
      </trkpt>
      <trkpt lat="43.31878" lon="5.53073">
        <ele>300.7</ele>
        <time>2013-11-13T08:19:51Z</time>
      </trkpt>
      <trkpt lat="43.31881" lon="5.53067">
        <ele>302</ele>
        <time>2013-11-13T08:20:02Z</time>
      </trkpt>
      <trkpt lat="43.31885" lon="5.53063">
        <ele>303.3</ele>
        <time>2013-11-13T08:20:12Z</time>
      </trkpt>
      <trkpt lat="43.31889" lon="5.5306">
        <ele>304.4</ele>
        <time>2013-11-13T08:20:21Z</time>
      </trkpt>
      <trkpt lat="43.31894" lon="5.53055">
        <ele>305.6</ele>
        <time>2013-11-13T08:20:31Z</time>
      </trkpt>
      <trkpt lat="43.31898" lon="5.53054">
        <ele>306.6</ele>
        <time>2013-11-13T08:20:40Z</time>
      </trkpt>
      <trkpt lat="43.31902" lon="5.5305">
        <ele>307.8</ele>
        <time>2013-11-13T08:20:49Z</time>
      </trkpt>
      <trkpt lat="43.31907" lon="5.53046">
        <ele>308.9</ele>
        <time>2013-11-13T08:20:58Z</time>
      </trkpt>
      <trkpt lat="43.31912" lon="5.53046">
        <ele>309.6</ele>
        <time>2013-11-13T08:21:05Z</time>
      </trkpt>
      <trkpt lat="43.31917" lon="5.53047">
        <ele>310.2</ele>
        <time>2013-11-13T08:21:11Z</time>
      </trkpt>
      <trkpt lat="43.31922" lon="5.53049">
        <ele>310.4</ele>
        <time>2013-11-13T08:21:15Z</time>
      </trkpt>
      <trkpt lat="43.31926" lon="5.53054">
        <ele>310.3</ele>
        <time>2013-11-13T08:21:19Z</time>
      </trkpt>
      <trkpt lat="43.3193" lon="5.53059">
        <ele>310</ele>
        <time>2013-11-13T08:21:23Z</time>
      </trkpt>
      <trkpt lat="43.31935" lon="5.53061">
        <ele>310.2</ele>
        <time>2013-11-13T08:21:28Z</time>
      </trkpt>
      <trkpt lat="43.3194" lon="5.53063">
        <ele>310.5</ele>
        <time>2013-11-13T08:21:32Z</time>
      </trkpt>
      <trkpt lat="43.31944" lon="5.53066">
        <ele>310.7</ele>
        <time>2013-11-13T08:21:36Z</time>
      </trkpt>
      <trkpt lat="43.31949" lon="5.53068">
        <ele>310.9</ele>
        <time>2013-11-13T08:21:41Z</time>
      </trkpt>
      <trkpt lat="43.31954" lon="5.53068">
        <ele>311.6</ele>
        <time>2013-11-13T08:21:47Z</time>
      </trkpt>
      <trkpt lat="43.31959" lon="5.53067">
        <ele>312.5</ele>
        <time>2013-11-13T08:21:55Z</time>
      </trkpt>
      <trkpt lat="43.31963" lon="5.53063">
        <ele>313.7</ele>
        <time>2013-11-13T08:22:04Z</time>
      </trkpt>
      <trkpt lat="43.31967" lon="5.53059">
        <ele>314.7</ele>
        <time>2013-11-13T08:22:13Z</time>
      </trkpt>
      <trkpt lat="43.31971" lon="5.5306">
        <ele>315.2</ele>
        <time>2013-11-13T08:22:18Z</time>
      </trkpt>
      <trkpt lat="43.31976" lon="5.53058">
        <ele>316.1</ele>
        <time>2013-11-13T08:22:26Z</time>
      </trkpt>
      <trkpt lat="43.31981" lon="5.53057">
        <ele>317</ele>
        <time>2013-11-13T08:22:33Z</time>
      </trkpt>
      <trkpt lat="43.31985" lon="5.53058">
        <ele>317.4</ele>
        <time>2013-11-13T08:22:38Z</time>
      </trkpt>
      <trkpt lat="43.3199" lon="5.53055">
        <ele>318.3</ele>
        <time>2013-11-13T08:22:45Z</time>
      </trkpt>
      <trkpt lat="43.31994" lon="5.53053">
        <ele>319.3</ele>
        <time>2013-11-13T08:22:53Z</time>
      </trkpt>
      <trkpt lat="43.31999" lon="5.53051">
        <ele>320.2</ele>
        <time>2013-11-13T08:23:01Z</time>
      </trkpt>
      <trkpt lat="43.32004" lon="5.5305">
        <ele>320.9</ele>
        <time>2013-11-13T08:23:07Z</time>
      </trkpt>
      <trkpt lat="43.32009" lon="5.5305">
        <ele>321.6</ele>
        <time>2013-11-13T08:23:14Z</time>
      </trkpt>
      <trkpt lat="43.32013" lon="5.53047">
        <ele>322.5</ele>
        <time>2013-11-13T08:23:21Z</time>
      </trkpt>
      <trkpt lat="43.32017" lon="5.53043">
        <ele>323.5</ele>
        <time>2013-11-13T08:23:30Z</time>
      </trkpt>
      <trkpt lat="43.32021" lon="5.53039">
        <ele>324.2</ele>
        <time>2013-11-13T08:23:36Z</time>
      </trkpt>
      <trkpt lat="43.32025" lon="5.53035">
        <ele>325</ele>
        <time>2013-11-13T08:23:42Z</time>
      </trkpt>
      <trkpt lat="43.3203" lon="5.53034">
        <ele>325.6</ele>
        <time>2013-11-13T08:23:48Z</time>
      </trkpt>
      <trkpt lat="43.32034" lon="5.53031">
        <ele>326.2</ele>
        <time>2013-11-13T08:23:54Z</time>
      </trkpt>
      <trkpt lat="43.32039" lon="5.53029">
        <ele>326.7</ele>
        <time>2013-11-13T08:24:00Z</time>
      </trkpt>
      <trkpt lat="43.32044" lon="5.53028">
        <ele>327.2</ele>
        <time>2013-11-13T08:24:05Z</time>
      </trkpt>
      <trkpt lat="43.32048" lon="5.53025">
        <ele>327.6</ele>
        <time>2013-11-13T08:24:10Z</time>
      </trkpt>
      <trkpt lat="43.32052" lon="5.53022">
        <ele>328</ele>
        <time>2013-11-13T08:24:15Z</time>
      </trkpt>
      <trkpt lat="43.32056" lon="5.53019">
        <ele>328.3</ele>
        <time>2013-11-13T08:24:19Z</time>
      </trkpt>
      <trkpt lat="43.32061" lon="5.53015">
        <ele>328.6</ele>
        <time>2013-11-13T08:24:24Z</time>
      </trkpt>
      <trkpt lat="43.32065" lon="5.53011">
        <ele>328.8</ele>
        <time>2013-11-13T08:24:28Z</time>
      </trkpt>
      <trkpt lat="43.32069" lon="5.53007">
        <ele>328.9</ele>
        <time>2013-11-13T08:24:33Z</time>
      </trkpt>
      <trkpt lat="43.32074" lon="5.53005">
        <ele>329</ele>
        <time>2013-11-13T08:24:37Z</time>
      </trkpt>
      <trkpt lat="43.32078" lon="5.53">
        <ele>328.9</ele>
        <time>2013-11-13T08:24:41Z</time>
      </trkpt>
      <trkpt lat="43.32081" lon="5.52995">
        <ele>328.7</ele>
        <time>2013-11-13T08:24:44Z</time>
      </trkpt>
      <trkpt lat="43.32082" lon="5.52987">
        <ele>328.4</ele>
        <time>2013-11-13T08:24:48Z</time>
      </trkpt>
      <trkpt lat="43.32084" lon="5.52982">
        <ele>328.1</ele>
        <time>2013-11-13T08:24:51Z</time>
      </trkpt>
      <trkpt lat="43.32086" lon="5.52976">
        <ele>328</ele>
        <time>2013-11-13T08:24:55Z</time>
      </trkpt>
      <trkpt lat="43.32089" lon="5.52971">
        <ele>327.8</ele>
        <time>2013-11-13T08:24:58Z</time>
      </trkpt>
      <trkpt lat="43.32092" lon="5.52965">
        <ele>327.6</ele>
        <time>2013-11-13T08:25:01Z</time>
      </trkpt>
      <trkpt lat="43.32094" lon="5.52961">
        <ele>327.4</ele>
        <time>2013-11-13T08:25:05Z</time>
      </trkpt>
      <trkpt lat="43.32098" lon="5.52956">
        <ele>327.1</ele>
        <time>2013-11-13T08:25:08Z</time>
      </trkpt>
      <trkpt lat="43.32101" lon="5.5295">
        <ele>326.6</ele>
        <time>2013-11-13T08:25:12Z</time>
      </trkpt>
      <trkpt lat="43.32104" lon="5.52945">
        <ele>326.3</ele>
        <time>2013-11-13T08:25:15Z</time>
      </trkpt>
      <trkpt lat="43.32108" lon="5.52941">
        <ele>325.9</ele>
        <time>2013-11-13T08:25:18Z</time>
      </trkpt>
      <trkpt lat="43.32112" lon="5.52937">
        <ele>325.5</ele>
        <time>2013-11-13T08:25:22Z</time>
      </trkpt>
      <trkpt lat="43.32116" lon="5.52934">
        <ele>325.1</ele>
        <time>2013-11-13T08:25:25Z</time>
      </trkpt>
      <trkpt lat="43.32119" lon="5.52928">
        <ele>324.5</ele>
        <time>2013-11-13T08:25:28Z</time>
      </trkpt>
      <trkpt lat="43.32122" lon="5.52923">
        <ele>323.8</ele>
        <time>2013-11-13T08:25:32Z</time>
      </trkpt>
      <trkpt lat="43.32127" lon="5.52921">
        <ele>323.4</ele>
        <time>2013-11-13T08:25:36Z</time>
      </trkpt>
      <trkpt lat="43.3213" lon="5.52916">
        <ele>322.6</ele>
        <time>2013-11-13T08:25:40Z</time>
      </trkpt>
      <trkpt lat="43.32133" lon="5.52911">
        <ele>322</ele>
        <time>2013-11-13T08:25:43Z</time>
      </trkpt>
      <trkpt lat="43.32137" lon="5.52908">
        <ele>321.5</ele>
        <time>2013-11-13T08:25:47Z</time>
      </trkpt>
      <trkpt lat="43.32142" lon="5.52911">
        <ele>321.5</ele>
        <time>2013-11-13T08:25:50Z</time>
      </trkpt>
      <trkpt lat="43.32144" lon="5.52905">
        <ele>320.8</ele>
        <time>2013-11-13T08:25:54Z</time>
      </trkpt>
      <trkpt lat="43.32147" lon="5.52901">
        <ele>320.3</ele>
        <time>2013-11-13T08:25:57Z</time>
      </trkpt>
      <trkpt lat="43.32152" lon="5.52898">
        <ele>319.8</ele>
        <time>2013-11-13T08:26:01Z</time>
      </trkpt>
      <trkpt lat="43.32155" lon="5.52893">
        <ele>319.1</ele>
        <time>2013-11-13T08:26:05Z</time>
      </trkpt>
      <trkpt lat="43.32159" lon="5.52889">
        <ele>318.6</ele>
        <time>2013-11-13T08:26:08Z</time>
      </trkpt>
      <trkpt lat="43.32164" lon="5.52886">
        <ele>318.1</ele>
        <time>2013-11-13T08:26:12Z</time>
      </trkpt>
      <trkpt lat="43.32169" lon="5.52884">
        <ele>318</ele>
        <time>2013-11-13T08:26:16Z</time>
      </trkpt>
      <trkpt lat="43.32174" lon="5.52883">
        <ele>318.1</ele>
        <time>2013-11-13T08:26:20Z</time>
      </trkpt>
      <trkpt lat="43.32179" lon="5.52883">
        <ele>318.4</ele>
        <time>2013-11-13T08:26:25Z</time>
      </trkpt>
      <trkpt lat="43.32185" lon="5.52881">
        <ele>318.5</ele>
        <time>2013-11-13T08:26:30Z</time>
      </trkpt>
      <trkpt lat="43.3219" lon="5.5288">
        <ele>318.7</ele>
        <time>2013-11-13T08:26:34Z</time>
      </trkpt>
      <trkpt lat="43.32195" lon="5.5288">
        <ele>318.9</ele>
        <time>2013-11-13T08:26:39Z</time>
      </trkpt>
      <trkpt lat="43.322" lon="5.52879">
        <ele>319.1</ele>
        <time>2013-11-13T08:26:43Z</time>
      </trkpt>
      <trkpt lat="43.32205" lon="5.5288">
        <ele>319.4</ele>
        <time>2013-11-13T08:26:48Z</time>
      </trkpt>
      <trkpt lat="43.3221" lon="5.52879">
        <ele>319.7</ele>
        <time>2013-11-13T08:26:52Z</time>
      </trkpt>
      <trkpt lat="43.32214" lon="5.5288">
        <ele>320</ele>
        <time>2013-11-13T08:26:57Z</time>
      </trkpt>
      <trkpt lat="43.3222" lon="5.52882">
        <ele>320.4</ele>
        <time>2013-11-13T08:27:02Z</time>
      </trkpt>
      <trkpt lat="43.32224" lon="5.52883">
        <ele>320.7</ele>
        <time>2013-11-13T08:27:06Z</time>
      </trkpt>
      <trkpt lat="43.32229" lon="5.52883">
        <ele>320.9</ele>
        <time>2013-11-13T08:27:11Z</time>
      </trkpt>
      <trkpt lat="43.32234" lon="5.52878">
        <ele>320.9</ele>
        <time>2013-11-13T08:27:16Z</time>
      </trkpt>
      <trkpt lat="43.32237" lon="5.52872">
        <ele>320.6</ele>
        <time>2013-11-13T08:27:19Z</time>
      </trkpt>
      <trkpt lat="43.32237" lon="5.52864">
        <ele>320.1</ele>
        <time>2013-11-13T08:27:23Z</time>
      </trkpt>
      <trkpt lat="43.32238" lon="5.52858">
        <ele>319.7</ele>
        <time>2013-11-13T08:27:26Z</time>
      </trkpt>
      <trkpt lat="43.32238" lon="5.52852">
        <ele>319.3</ele>
        <time>2013-11-13T08:27:30Z</time>
      </trkpt>
      <trkpt lat="43.32237" lon="5.52845">
        <ele>318.8</ele>
        <time>2013-11-13T08:27:33Z</time>
      </trkpt>
      <trkpt lat="43.32238" lon="5.52838">
        <ele>318.4</ele>
        <time>2013-11-13T08:27:37Z</time>
      </trkpt>
      <trkpt lat="43.3224" lon="5.52832">
        <ele>318.4</ele>
        <time>2013-11-13T08:27:41Z</time>
      </trkpt>
      <trkpt lat="43.32244" lon="5.52826">
        <ele>319.2</ele>
        <time>2013-11-13T08:27:48Z</time>
      </trkpt>
      <trkpt lat="43.32248" lon="5.52821">
        <ele>319.9</ele>
        <time>2013-11-13T08:27:55Z</time>
      </trkpt>
      <trkpt lat="43.32252" lon="5.52816">
        <ele>320.7</ele>
        <time>2013-11-13T08:28:02Z</time>
      </trkpt>
      <trkpt lat="43.32256" lon="5.52812">
        <ele>321.6</ele>
        <time>2013-11-13T08:28:09Z</time>
      </trkpt>
      <trkpt lat="43.3226" lon="5.52807">
        <ele>322.5</ele>
        <time>2013-11-13T08:28:17Z</time>
      </trkpt>
      <trkpt lat="43.32263" lon="5.52803">
        <ele>323.2</ele>
        <time>2013-11-13T08:28:23Z</time>
      </trkpt>
      <trkpt lat="43.32267" lon="5.52798">
        <ele>323.9</ele>
        <time>2013-11-13T08:28:29Z</time>
      </trkpt>
      <trkpt lat="43.32271" lon="5.52793">
        <ele>324.6</ele>
        <time>2013-11-13T08:28:36Z</time>
      </trkpt>
      <trkpt lat="43.32275" lon="5.5279">
        <ele>325.2</ele>
        <time>2013-11-13T08:28:41Z</time>
      </trkpt>
      <trkpt lat="43.32279" lon="5.52787">
        <ele>325.8</ele>
        <time>2013-11-13T08:28:47Z</time>
      </trkpt>
      <trkpt lat="43.32284" lon="5.52784">
        <ele>326.5</ele>
        <time>2013-11-13T08:28:54Z</time>
      </trkpt>
      <trkpt lat="43.32288" lon="5.5278">
        <ele>327</ele>
        <time>2013-11-13T08:28:59Z</time>
      </trkpt>
      <trkpt lat="43.32292" lon="5.52777">
        <ele>327.6</ele>
        <time>2013-11-13T08:29:05Z</time>
      </trkpt>
      <trkpt lat="43.32297" lon="5.52775">
        <ele>328.1</ele>
        <time>2013-11-13T08:29:11Z</time>
      </trkpt>
      <trkpt lat="43.32303" lon="5.52774">
        <ele>328.6</ele>
        <time>2013-11-13T08:29:17Z</time>
      </trkpt>
      <trkpt lat="43.32308" lon="5.52772">
        <ele>329.1</ele>
        <time>2013-11-13T08:29:22Z</time>
      </trkpt>
      <trkpt lat="43.32312" lon="5.5277">
        <ele>329.5</ele>
        <time>2013-11-13T08:29:27Z</time>
      </trkpt>
      <trkpt lat="43.32316" lon="5.52767">
        <ele>329.8</ele>
        <time>2013-11-13T08:29:31Z</time>
      </trkpt>
      <trkpt lat="43.32319" lon="5.52762">
        <ele>330.1</ele>
        <time>2013-11-13T08:29:36Z</time>
      </trkpt>
      <trkpt lat="43.32323" lon="5.52758">
        <ele>330.4</ele>
        <time>2013-11-13T08:29:40Z</time>
      </trkpt>
      <trkpt lat="43.32328" lon="5.52755">
        <ele>330.7</ele>
        <time>2013-11-13T08:29:45Z</time>
      </trkpt>
      <trkpt lat="43.32333" lon="5.52753">
        <ele>331</ele>
        <time>2013-11-13T08:29:50Z</time>
      </trkpt>
      <trkpt lat="43.32338" lon="5.5275">
        <ele>331</ele>
        <time>2013-11-13T08:29:54Z</time>
      </trkpt>
      <trkpt lat="43.32343" lon="5.52748">
        <ele>331</ele>
        <time>2013-11-13T08:29:58Z</time>
      </trkpt>
      <trkpt lat="43.32347" lon="5.52745">
        <ele>331</ele>
        <time>2013-11-13T08:30:02Z</time>
      </trkpt>
      <trkpt lat="43.32352" lon="5.52743">
        <ele>331</ele>
        <time>2013-11-13T08:30:06Z</time>
      </trkpt>
      <trkpt lat="43.32356" lon="5.52741">
        <ele>330.9</ele>
        <time>2013-11-13T08:30:10Z</time>
      </trkpt>
      <trkpt lat="43.32361" lon="5.5274">
        <ele>330.8</ele>
        <time>2013-11-13T08:30:13Z</time>
      </trkpt>
      <trkpt lat="43.32366" lon="5.52739">
        <ele>330.6</ele>
        <time>2013-11-13T08:30:17Z</time>
      </trkpt>
      <trkpt lat="43.32371" lon="5.5274">
        <ele>330.5</ele>
        <time>2013-11-13T08:30:20Z</time>
      </trkpt>
      <trkpt lat="43.32376" lon="5.5274">
        <ele>330.4</ele>
        <time>2013-11-13T08:30:24Z</time>
      </trkpt>
      <trkpt lat="43.32379" lon="5.52735">
        <ele>330</ele>
        <time>2013-11-13T08:30:28Z</time>
      </trkpt>
      <trkpt lat="43.32382" lon="5.5273">
        <ele>329.6</ele>
        <time>2013-11-13T08:30:31Z</time>
      </trkpt>
      <trkpt lat="43.32383" lon="5.52736">
        <ele>330</ele>
        <time>2013-11-13T08:30:36Z</time>
      </trkpt>
      <trkpt lat="43.3238" lon="5.52731">
        <ele>329.8</ele>
        <time>2013-11-13T08:30:39Z</time>
      </trkpt>
      <trkpt lat="43.32378" lon="5.52737">
        <ele>330.2</ele>
        <time>2013-11-13T08:30:44Z</time>
      </trkpt>
      <trkpt lat="43.32381" lon="5.52732">
        <ele>329.8</ele>
        <time>2013-11-13T08:30:47Z</time>
      </trkpt>
      <trkpt lat="43.32377" lon="5.52732">
        <ele>329.9</ele>
        <time>2013-11-13T08:30:51Z</time>
      </trkpt>
      <trkpt lat="43.32382" lon="5.5273">
        <ele>329.6</ele>
        <time>2013-11-13T08:30:54Z</time>
      </trkpt>
      <trkpt lat="43.32385" lon="5.52725">
        <ele>329.1</ele>
        <time>2013-11-13T08:30:58Z</time>
      </trkpt>
      <trkpt lat="43.32389" lon="5.5272">
        <ele>328.5</ele>
        <time>2013-11-13T08:31:01Z</time>
      </trkpt>
      <trkpt lat="43.32393" lon="5.52717">
        <ele>327.9</ele>
        <time>2013-11-13T08:31:05Z</time>
      </trkpt>
      <trkpt lat="43.32398" lon="5.52714">
        <ele>327.3</ele>
        <time>2013-11-13T08:31:09Z</time>
      </trkpt>
      <trkpt lat="43.32403" lon="5.52712">
        <ele>326.7</ele>
        <time>2013-11-13T08:31:12Z</time>
      </trkpt>
      <trkpt lat="43.32407" lon="5.52713">
        <ele>326.3</ele>
        <time>2013-11-13T08:31:16Z</time>
      </trkpt>
      <trkpt lat="43.32413" lon="5.52712">
        <ele>325.9</ele>
        <time>2013-11-13T08:31:19Z</time>
      </trkpt>
      <trkpt lat="43.32418" lon="5.52714">
        <ele>325.8</ele>
        <time>2013-11-13T08:31:23Z</time>
      </trkpt>
      <trkpt lat="43.32422" lon="5.52715">
        <ele>326.4</ele>
        <time>2013-11-13T08:31:29Z</time>
      </trkpt>
      <trkpt lat="43.32427" lon="5.52715">
        <ele>326.7</ele>
        <time>2013-11-13T08:31:33Z</time>
      </trkpt>
      <trkpt lat="43.32433" lon="5.52714">
        <ele>327</ele>
        <time>2013-11-13T08:31:38Z</time>
      </trkpt>
      <trkpt lat="43.32437" lon="5.52712">
        <ele>327</ele>
        <time>2013-11-13T08:31:42Z</time>
      </trkpt>
      <trkpt lat="43.32442" lon="5.5271">
        <ele>326.9</ele>
        <time>2013-11-13T08:31:46Z</time>
      </trkpt>
      <trkpt lat="43.32447" lon="5.52709">
        <ele>327.1</ele>
        <time>2013-11-13T08:31:50Z</time>
      </trkpt>
      <trkpt lat="43.32452" lon="5.52707">
        <ele>327.1</ele>
        <time>2013-11-13T08:31:55Z</time>
      </trkpt>
      <trkpt lat="43.32457" lon="5.52702">
        <ele>326.5</ele>
        <time>2013-11-13T08:31:59Z</time>
      </trkpt>
      <trkpt lat="43.32461" lon="5.52697">
        <ele>325.7</ele>
        <time>2013-11-13T08:32:04Z</time>
      </trkpt>
      <trkpt lat="43.32464" lon="5.52692">
        <ele>325</ele>
        <time>2013-11-13T08:32:07Z</time>
      </trkpt>
      <trkpt lat="43.32469" lon="5.52688">
        <ele>324.5</ele>
        <time>2013-11-13T08:32:11Z</time>
      </trkpt>
      <trkpt lat="43.32472" lon="5.52684">
        <ele>323.9</ele>
        <time>2013-11-13T08:32:15Z</time>
      </trkpt>
      <trkpt lat="43.32478" lon="5.52682">
        <ele>323.6</ele>
        <time>2013-11-13T08:32:18Z</time>
      </trkpt>
      <trkpt lat="43.32482" lon="5.52682">
        <ele>323.8</ele>
        <time>2013-11-13T08:32:22Z</time>
      </trkpt>
      <trkpt lat="43.32487" lon="5.52681">
        <ele>323.8</ele>
        <time>2013-11-13T08:32:26Z</time>
      </trkpt>
      <trkpt lat="43.32492" lon="5.5268">
        <ele>323.8</ele>
        <time>2013-11-13T08:32:31Z</time>
      </trkpt>
      <trkpt lat="43.32497" lon="5.52678">
        <ele>323.5</ele>
        <time>2013-11-13T08:32:34Z</time>
      </trkpt>
      <trkpt lat="43.32502" lon="5.52677">
        <ele>323.2</ele>
        <time>2013-11-13T08:32:37Z</time>
      </trkpt>
      <trkpt lat="43.32506" lon="5.52675">
        <ele>322.6</ele>
        <time>2013-11-13T08:32:41Z</time>
      </trkpt>
      <trkpt lat="43.32512" lon="5.52674">
        <ele>322</ele>
        <time>2013-11-13T08:32:45Z</time>
      </trkpt>
      <trkpt lat="43.32516" lon="5.52672">
        <ele>321.3</ele>
        <time>2013-11-13T08:32:48Z</time>
      </trkpt>
      <trkpt lat="43.32521" lon="5.52672">
        <ele>321</ele>
        <time>2013-11-13T08:32:52Z</time>
      </trkpt>
      <trkpt lat="43.32526" lon="5.52673">
        <ele>320.9</ele>
        <time>2013-11-13T08:32:55Z</time>
      </trkpt>
      <trkpt lat="43.32531" lon="5.52673">
        <ele>320.6</ele>
        <time>2013-11-13T08:32:59Z</time>
      </trkpt>
      <trkpt lat="43.32534" lon="5.52677">
        <ele>321.4</ele>
        <time>2013-11-13T08:33:06Z</time>
      </trkpt>
      <trkpt lat="43.32537" lon="5.52682">
        <ele>322.7</ele>
        <time>2013-11-13T08:33:16Z</time>
      </trkpt>
      <trkpt lat="43.3254" lon="5.52688">
        <ele>323.9</ele>
        <time>2013-11-13T08:33:26Z</time>
      </trkpt>
      <trkpt lat="43.32543" lon="5.52693">
        <ele>325</ele>
        <time>2013-11-13T08:33:35Z</time>
      </trkpt>
      <trkpt lat="43.32546" lon="5.52697">
        <ele>326</ele>
        <time>2013-11-13T08:33:43Z</time>
      </trkpt>
      <trkpt lat="43.32551" lon="5.52699">
        <ele>326.3</ele>
        <time>2013-11-13T08:33:48Z</time>
      </trkpt>
      <trkpt lat="43.32555" lon="5.52704">
        <ele>327.3</ele>
        <time>2013-11-13T08:33:56Z</time>
      </trkpt>
      <trkpt lat="43.32559" lon="5.52708">
        <ele>328.4</ele>
        <time>2013-11-13T08:34:05Z</time>
      </trkpt>
      <trkpt lat="43.32562" lon="5.52714">
        <ele>329.7</ele>
        <time>2013-11-13T08:34:16Z</time>
      </trkpt>
      <trkpt lat="43.32565" lon="5.52719">
        <ele>331</ele>
        <time>2013-11-13T08:34:26Z</time>
      </trkpt>
      <trkpt lat="43.32569" lon="5.52723">
        <ele>332</ele>
        <time>2013-11-13T08:34:34Z</time>
      </trkpt>
      <trkpt lat="43.32573" lon="5.52727">
        <ele>332.9</ele>
        <time>2013-11-13T08:34:42Z</time>
      </trkpt>
      <trkpt lat="43.32577" lon="5.5273">
        <ele>333.6</ele>
        <time>2013-11-13T08:34:48Z</time>
      </trkpt>
      <trkpt lat="43.32581" lon="5.52735">
        <ele>335</ele>
        <time>2013-11-13T08:34:59Z</time>
      </trkpt>
      <trkpt lat="43.32586" lon="5.52738">
        <ele>335.4</ele>
        <time>2013-11-13T08:35:04Z</time>
      </trkpt>
      <trkpt lat="43.3259" lon="5.5274">
        <ele>335.3</ele>
        <time>2013-11-13T08:35:08Z</time>
      </trkpt>
      <trkpt lat="43.32594" lon="5.52743">
        <ele>335.6</ele>
        <time>2013-11-13T08:35:12Z</time>
      </trkpt>
      <trkpt lat="43.32599" lon="5.52747">
        <ele>336.1</ele>
        <time>2013-11-13T08:35:18Z</time>
      </trkpt>
      <trkpt lat="43.32602" lon="5.52752">
        <ele>336.7</ele>
        <time>2013-11-13T08:35:24Z</time>
      </trkpt>
      <trkpt lat="43.32606" lon="5.52757">
        <ele>337.4</ele>
        <time>2013-11-13T08:35:30Z</time>
      </trkpt>
      <trkpt lat="43.3261" lon="5.5276">
        <ele>337.6</ele>
        <time>2013-11-13T08:35:35Z</time>
      </trkpt>
      <trkpt lat="43.32614" lon="5.52765">
        <ele>338.2</ele>
        <time>2013-11-13T08:35:40Z</time>
      </trkpt>
      <trkpt lat="43.32617" lon="5.5277">
        <ele>339</ele>
        <time>2013-11-13T08:35:47Z</time>
      </trkpt>
      <trkpt lat="43.3262" lon="5.52775">
        <ele>339.7</ele>
        <time>2013-11-13T08:35:54Z</time>
      </trkpt>
      <trkpt lat="43.32623" lon="5.52779">
        <ele>340.4</ele>
        <time>2013-11-13T08:36:00Z</time>
      </trkpt>
      <trkpt lat="43.32627" lon="5.52784">
        <ele>341</ele>
        <time>2013-11-13T08:36:06Z</time>
      </trkpt>
      <trkpt lat="43.32631" lon="5.52789">
        <ele>341.7</ele>
        <time>2013-11-13T08:36:12Z</time>
      </trkpt>
      <trkpt lat="43.32635" lon="5.52793">
        <ele>342.3</ele>
        <time>2013-11-13T08:36:18Z</time>
      </trkpt>
      <trkpt lat="43.32639" lon="5.52797">
        <ele>342.5</ele>
        <time>2013-11-13T08:36:23Z</time>
      </trkpt>
      <trkpt lat="43.32644" lon="5.52799">
        <ele>342.6</ele>
        <time>2013-11-13T08:36:27Z</time>
      </trkpt>
      <trkpt lat="43.32649" lon="5.52802">
        <ele>342.6</ele>
        <time>2013-11-13T08:36:31Z</time>
      </trkpt>
      <trkpt lat="43.32653" lon="5.52804">
        <ele>342.5</ele>
        <time>2013-11-13T08:36:35Z</time>
      </trkpt>
      <trkpt lat="43.32658" lon="5.52806">
        <ele>342.4</ele>
        <time>2013-11-13T08:36:38Z</time>
      </trkpt>
      <trkpt lat="43.32662" lon="5.52811">
        <ele>342.9</ele>
        <time>2013-11-13T08:36:44Z</time>
      </trkpt>
      <trkpt lat="43.32665" lon="5.52816">
        <ele>343.8</ele>
        <time>2013-11-13T08:36:51Z</time>
      </trkpt>
      <trkpt lat="43.32667" lon="5.52823">
        <ele>345.2</ele>
        <time>2013-11-13T08:37:03Z</time>
      </trkpt>
      <trkpt lat="43.3267" lon="5.52829">
        <ele>346.6</ele>
        <time>2013-11-13T08:37:14Z</time>
      </trkpt>
      <trkpt lat="43.32674" lon="5.52834">
        <ele>347.3</ele>
        <time>2013-11-13T08:37:20Z</time>
      </trkpt>
      <trkpt lat="43.32678" lon="5.52838">
        <ele>347.9</ele>
        <time>2013-11-13T08:37:27Z</time>
      </trkpt>
      <trkpt lat="43.32683" lon="5.52841">
        <ele>348.3</ele>
        <time>2013-11-13T08:37:32Z</time>
      </trkpt>
      <trkpt lat="43.32687" lon="5.52845">
        <ele>348.7</ele>
        <time>2013-11-13T08:37:37Z</time>
      </trkpt>
      <trkpt lat="43.32692" lon="5.52849">
        <ele>349.3</ele>
        <time>2013-11-13T08:37:43Z</time>
      </trkpt>
      <trkpt lat="43.32695" lon="5.52854">
        <ele>350</ele>
        <time>2013-11-13T08:37:49Z</time>
      </trkpt>
      <trkpt lat="43.32699" lon="5.52857">
        <ele>350.5</ele>
        <time>2013-11-13T08:37:55Z</time>
      </trkpt>
      <trkpt lat="43.32703" lon="5.52861">
        <ele>350.9</ele>
        <time>2013-11-13T08:38:00Z</time>
      </trkpt>
      <trkpt lat="43.32708" lon="5.52865">
        <ele>351.2</ele>
        <time>2013-11-13T08:38:04Z</time>
      </trkpt>
      <trkpt lat="43.32712" lon="5.52869">
        <ele>351.5</ele>
        <time>2013-11-13T08:38:09Z</time>
      </trkpt>
      <trkpt lat="43.32716" lon="5.52872">
        <ele>351.6</ele>
        <time>2013-11-13T08:38:13Z</time>
      </trkpt>
      <trkpt lat="43.32721" lon="5.52876">
        <ele>351.9</ele>
        <time>2013-11-13T08:38:18Z</time>
      </trkpt>
      <trkpt lat="43.32725" lon="5.52878">
        <ele>351.9</ele>
        <time>2013-11-13T08:38:22Z</time>
      </trkpt>
      <trkpt lat="43.32729" lon="5.52883">
        <ele>352.2</ele>
        <time>2013-11-13T08:38:26Z</time>
      </trkpt>
      <trkpt lat="43.32732" lon="5.52886">
        <ele>352.5</ele>
        <time>2013-11-13T08:38:31Z</time>
      </trkpt>
      <trkpt lat="43.32736" lon="5.5289">
        <ele>352.7</ele>
        <time>2013-11-13T08:38:35Z</time>
      </trkpt>
      <trkpt lat="43.3274" lon="5.52892">
        <ele>352.5</ele>
        <time>2013-11-13T08:38:38Z</time>
      </trkpt>
      <trkpt lat="43.32745" lon="5.52895">
        <ele>352.4</ele>
        <time>2013-11-13T08:38:42Z</time>
      </trkpt>
      <trkpt lat="43.3275" lon="5.52899">
        <ele>352.5</ele>
        <time>2013-11-13T08:38:46Z</time>
      </trkpt>
      <trkpt lat="43.32753" lon="5.52904">
        <ele>353.3</ele>
        <time>2013-11-13T08:38:53Z</time>
      </trkpt>
      <trkpt lat="43.32756" lon="5.52909">
        <ele>354.4</ele>
        <time>2013-11-13T08:39:02Z</time>
      </trkpt>
      <trkpt lat="43.32758" lon="5.52916">
        <ele>355.7</ele>
        <time>2013-11-13T08:39:13Z</time>
      </trkpt>
      <trkpt lat="43.32759" lon="5.52922">
        <ele>357.1</ele>
        <time>2013-11-13T08:39:24Z</time>
      </trkpt>
      <trkpt lat="43.32762" lon="5.52928">
        <ele>358.4</ele>
        <time>2013-11-13T08:39:35Z</time>
      </trkpt>
      <trkpt lat="43.32765" lon="5.52933">
        <ele>359.5</ele>
        <time>2013-11-13T08:39:44Z</time>
      </trkpt>
      <trkpt lat="43.32768" lon="5.52938">
        <ele>360.5</ele>
        <time>2013-11-13T08:39:52Z</time>
      </trkpt>
      <trkpt lat="43.32771" lon="5.52944">
        <ele>361.6</ele>
        <time>2013-11-13T08:40:01Z</time>
      </trkpt>
      <trkpt lat="43.32774" lon="5.5295">
        <ele>362.7</ele>
        <time>2013-11-13T08:40:10Z</time>
      </trkpt>
      <trkpt lat="43.32777" lon="5.52954">
        <ele>363.4</ele>
        <time>2013-11-13T08:40:17Z</time>
      </trkpt>
      <trkpt lat="43.3278" lon="5.52959">
        <ele>364.1</ele>
        <time>2013-11-13T08:40:23Z</time>
      </trkpt>
      <trkpt lat="43.32783" lon="5.52964">
        <ele>365</ele>
        <time>2013-11-13T08:40:30Z</time>
      </trkpt>
      <trkpt lat="43.32785" lon="5.5297">
        <ele>365.9</ele>
        <time>2013-11-13T08:40:38Z</time>
      </trkpt>
      <trkpt lat="43.32789" lon="5.52975">
        <ele>366.6</ele>
        <time>2013-11-13T08:40:44Z</time>
      </trkpt>
      <trkpt lat="43.32789" lon="5.52981">
        <ele>367.8</ele>
        <time>2013-11-13T08:40:54Z</time>
      </trkpt>
      <trkpt lat="43.3279" lon="5.52987">
        <ele>368.8</ele>
        <time>2013-11-13T08:41:02Z</time>
      </trkpt>
      <trkpt lat="43.32794" lon="5.52992">
        <ele>369.3</ele>
        <time>2013-11-13T08:41:08Z</time>
      </trkpt>
      <trkpt lat="43.32799" lon="5.52995">
        <ele>369.3</ele>
        <time>2013-11-13T08:41:12Z</time>
      </trkpt>
      <trkpt lat="43.32802" lon="5.53">
        <ele>369.8</ele>
        <time>2013-11-13T08:41:17Z</time>
      </trkpt>
      <trkpt lat="43.32805" lon="5.53006">
        <ele>370.9</ele>
        <time>2013-11-13T08:41:26Z</time>
      </trkpt>
      <trkpt lat="43.32808" lon="5.53011">
        <ele>371.9</ele>
        <time>2013-11-13T08:41:34Z</time>
      </trkpt>
      <trkpt lat="43.3281" lon="5.53016">
        <ele>372.9</ele>
        <time>2013-11-13T08:41:43Z</time>
      </trkpt>
      <trkpt lat="43.32814" lon="5.53021">
        <ele>373.6</ele>
        <time>2013-11-13T08:41:49Z</time>
      </trkpt>
      <trkpt lat="43.32816" lon="5.53027">
        <ele>374.8</ele>
        <time>2013-11-13T08:41:59Z</time>
      </trkpt>
      <trkpt lat="43.3282" lon="5.53032">
        <ele>375.7</ele>
        <time>2013-11-13T08:42:06Z</time>
      </trkpt>
      <trkpt lat="43.32823" lon="5.53036">
        <ele>376.2</ele>
        <time>2013-11-13T08:42:12Z</time>
      </trkpt>
      <trkpt lat="43.32828" lon="5.53039">
        <ele>376.6</ele>
        <time>2013-11-13T08:42:17Z</time>
      </trkpt>
      <trkpt lat="43.32832" lon="5.53044">
        <ele>377.2</ele>
        <time>2013-11-13T08:42:23Z</time>
      </trkpt>
      <trkpt lat="43.32835" lon="5.53049">
        <ele>378.2</ele>
        <time>2013-11-13T08:42:31Z</time>
      </trkpt>
      <trkpt lat="43.32838" lon="5.53054">
        <ele>379.4</ele>
        <time>2013-11-13T08:42:41Z</time>
      </trkpt>
      <trkpt lat="43.32841" lon="5.53059">
        <ele>380.5</ele>
        <time>2013-11-13T08:42:50Z</time>
      </trkpt>
      <trkpt lat="43.32845" lon="5.53064">
        <ele>381.5</ele>
        <time>2013-11-13T08:42:58Z</time>
      </trkpt>
      <trkpt lat="43.32849" lon="5.53065">
        <ele>381.6</ele>
        <time>2013-11-13T08:43:02Z</time>
      </trkpt>
      <trkpt lat="43.3285" lon="5.53072">
        <ele>383.1</ele>
        <time>2013-11-13T08:43:15Z</time>
      </trkpt>
      <trkpt lat="43.32851" lon="5.53078">
        <ele>384.5</ele>
        <time>2013-11-13T08:43:26Z</time>
      </trkpt>
      <trkpt lat="43.32853" lon="5.53084">
        <ele>385.9</ele>
        <time>2013-11-13T08:43:37Z</time>
      </trkpt>
      <trkpt lat="43.32855" lon="5.5309">
        <ele>387.1</ele>
        <time>2013-11-13T08:43:47Z</time>
      </trkpt>
      <trkpt lat="43.32856" lon="5.53096">
        <ele>388.6</ele>
        <time>2013-11-13T08:43:59Z</time>
      </trkpt>
      <trkpt lat="43.32858" lon="5.53102">
        <ele>389.8</ele>
        <time>2013-11-13T08:44:09Z</time>
      </trkpt>
      <trkpt lat="43.32859" lon="5.53108">
        <ele>391.2</ele>
        <time>2013-11-13T08:44:20Z</time>
      </trkpt>
      <trkpt lat="43.32862" lon="5.53114">
        <ele>392.1</ele>
        <time>2013-11-13T08:44:28Z</time>
      </trkpt>
      <trkpt lat="43.32866" lon="5.53118">
        <ele>392.9</ele>
        <time>2013-11-13T08:44:34Z</time>
      </trkpt>
      <trkpt lat="43.3287" lon="5.53121">
        <ele>393.3</ele>
        <time>2013-11-13T08:44:40Z</time>
      </trkpt>
      <trkpt lat="43.32874" lon="5.53126">
        <ele>394.1</ele>
        <time>2013-11-13T08:44:46Z</time>
      </trkpt>
      <trkpt lat="43.32876" lon="5.53132">
        <ele>395.2</ele>
        <time>2013-11-13T08:44:56Z</time>
      </trkpt>
      <trkpt lat="43.32877" lon="5.53139">
        <ele>396.6</ele>
        <time>2013-11-13T08:45:07Z</time>
      </trkpt>
      <trkpt lat="43.32879" lon="5.53145">
        <ele>397.8</ele>
        <time>2013-11-13T08:45:16Z</time>
      </trkpt>
      <trkpt lat="43.32882" lon="5.5315">
        <ele>398.8</ele>
        <time>2013-11-13T08:45:25Z</time>
      </trkpt>
      <trkpt lat="43.32885" lon="5.53156">
        <ele>399.8</ele>
        <time>2013-11-13T08:45:33Z</time>
      </trkpt>
      <trkpt lat="43.32888" lon="5.53162">
        <ele>400.6</ele>
        <time>2013-11-13T08:45:40Z</time>
      </trkpt>
      <trkpt lat="43.32892" lon="5.53166">
        <ele>401.3</ele>
        <time>2013-11-13T08:45:47Z</time>
      </trkpt>
      <trkpt lat="43.32896" lon="5.53171">
        <ele>402</ele>
        <time>2013-11-13T08:45:53Z</time>
      </trkpt>
      <trkpt lat="43.32899" lon="5.53176">
        <ele>402.7</ele>
        <time>2013-11-13T08:45:59Z</time>
      </trkpt>
      <trkpt lat="43.32903" lon="5.5318">
        <ele>403.1</ele>
        <time>2013-11-13T08:46:04Z</time>
      </trkpt>
      <trkpt lat="43.32905" lon="5.53186">
        <ele>404.2</ele>
        <time>2013-11-13T08:46:13Z</time>
      </trkpt>
      <trkpt lat="43.32907" lon="5.53191">
        <ele>405.2</ele>
        <time>2013-11-13T08:46:22Z</time>
      </trkpt>
      <trkpt lat="43.32911" lon="5.53194">
        <ele>405.6</ele>
        <time>2013-11-13T08:46:26Z</time>
      </trkpt>
      <trkpt lat="43.32915" lon="5.53198">
        <ele>405.9</ele>
        <time>2013-11-13T08:46:31Z</time>
      </trkpt>
      <trkpt lat="43.32917" lon="5.53204">
        <ele>406.9</ele>
        <time>2013-11-13T08:46:39Z</time>
      </trkpt>
      <trkpt lat="43.32922" lon="5.53206">
        <ele>405.6</ele>
        <time>2013-11-13T08:46:45Z</time>
      </trkpt>
      <trkpt lat="43.32926" lon="5.53207">
        <ele>404.3</ele>
        <time>2013-11-13T08:46:51Z</time>
      </trkpt>
      <trkpt lat="43.3293" lon="5.53212">
        <ele>403.8</ele>
        <time>2013-11-13T08:46:55Z</time>
      </trkpt>
      <trkpt lat="43.32932" lon="5.53217">
        <ele>404.3</ele>
        <time>2013-11-13T08:47:00Z</time>
      </trkpt>
      <trkpt lat="43.32935" lon="5.53223">
        <ele>404.4</ele>
        <time>2013-11-13T08:47:04Z</time>
      </trkpt>
      <trkpt lat="43.32938" lon="5.53228">
        <ele>404.4</ele>
        <time>2013-11-13T08:47:08Z</time>
      </trkpt>
      <trkpt lat="43.32941" lon="5.53234">
        <ele>404.6</ele>
        <time>2013-11-13T08:47:12Z</time>
      </trkpt>
      <trkpt lat="43.32944" lon="5.53239">
        <ele>404.8</ele>
        <time>2013-11-13T08:47:16Z</time>
      </trkpt>
      <trkpt lat="43.32946" lon="5.53245">
        <ele>405.1</ele>
        <time>2013-11-13T08:47:21Z</time>
      </trkpt>
      <trkpt lat="43.32949" lon="5.5325">
        <ele>405.5</ele>
        <time>2013-11-13T08:47:26Z</time>
      </trkpt>
      <trkpt lat="43.32952" lon="5.53256">
        <ele>405.8</ele>
        <time>2013-11-13T08:47:31Z</time>
      </trkpt>
      <trkpt lat="43.32955" lon="5.53262">
        <ele>406.4</ele>
        <time>2013-11-13T08:47:37Z</time>
      </trkpt>
      <trkpt lat="43.32957" lon="5.53268">
        <ele>407</ele>
        <time>2013-11-13T08:47:42Z</time>
      </trkpt>
      <trkpt lat="43.3296" lon="5.53274">
        <ele>407.7</ele>
        <time>2013-11-13T08:47:49Z</time>
      </trkpt>
      <trkpt lat="43.32962" lon="5.53279">
        <ele>408.3</ele>
        <time>2013-11-13T08:47:55Z</time>
      </trkpt>
      <trkpt lat="43.32965" lon="5.53285">
        <ele>408.8</ele>
        <time>2013-11-13T08:48:00Z</time>
      </trkpt>
      <trkpt lat="43.32968" lon="5.5329">
        <ele>409.1</ele>
        <time>2013-11-13T08:48:05Z</time>
      </trkpt>
      <trkpt lat="43.3297" lon="5.53296">
        <ele>410.3</ele>
        <time>2013-11-13T08:48:14Z</time>
      </trkpt>
      <trkpt lat="43.32972" lon="5.53302">
        <ele>411.2</ele>
        <time>2013-11-13T08:48:22Z</time>
      </trkpt>
      <trkpt lat="43.32974" lon="5.53308">
        <ele>411.8</ele>
        <time>2013-11-13T08:48:28Z</time>
      </trkpt>
      <trkpt lat="43.32978" lon="5.53313">
        <ele>412.1</ele>
        <time>2013-11-13T08:48:33Z</time>
      </trkpt>
      <trkpt lat="43.32981" lon="5.53319">
        <ele>412.8</ele>
        <time>2013-11-13T08:48:39Z</time>
      </trkpt>
      <trkpt lat="43.32984" lon="5.53324">
        <ele>413</ele>
        <time>2013-11-13T08:48:43Z</time>
      </trkpt>
      <trkpt lat="43.32987" lon="5.53329">
        <ele>413.8</ele>
        <time>2013-11-13T08:48:50Z</time>
      </trkpt>
      <trkpt lat="43.32989" lon="5.53335">
        <ele>414.9</ele>
        <time>2013-11-13T08:48:59Z</time>
      </trkpt>
      <trkpt lat="43.32993" lon="5.5334">
        <ele>415</ele>
        <time>2013-11-13T08:49:04Z</time>
      </trkpt>
      <trkpt lat="43.32996" lon="5.53345">
        <ele>415.4</ele>
        <time>2013-11-13T08:49:09Z</time>
      </trkpt>
      <trkpt lat="43.33" lon="5.53347">
        <ele>414.9</ele>
        <time>2013-11-13T08:49:12Z</time>
      </trkpt>
      <trkpt lat="43.33001" lon="5.53354">
        <ele>416.4</ele>
        <time>2013-11-13T08:49:24Z</time>
      </trkpt>
      <trkpt lat="43.33003" lon="5.5336">
        <ele>417.6</ele>
        <time>2013-11-13T08:49:34Z</time>
      </trkpt>
      <trkpt lat="43.33005" lon="5.53366">
        <ele>418.4</ele>
        <time>2013-11-13T08:49:40Z</time>
      </trkpt>
      <trkpt lat="43.33007" lon="5.53373">
        <ele>419.9</ele>
        <time>2013-11-13T08:49:52Z</time>
      </trkpt>
      <trkpt lat="43.33009" lon="5.53379">
        <ele>421.3</ele>
        <time>2013-11-13T08:50:04Z</time>
      </trkpt>
      <trkpt lat="43.33011" lon="5.53386">
        <ele>422.7</ele>
        <time>2013-11-13T08:50:15Z</time>
      </trkpt>
      <trkpt lat="43.33012" lon="5.53392">
        <ele>424.5</ele>
        <time>2013-11-13T08:50:30Z</time>
      </trkpt>
      <trkpt lat="43.33014" lon="5.53399">
        <ele>426.2</ele>
        <time>2013-11-13T08:50:44Z</time>
      </trkpt>
      <trkpt lat="43.33016" lon="5.53407">
        <ele>428.1</ele>
        <time>2013-11-13T08:50:59Z</time>
      </trkpt>
      <trkpt lat="43.33018" lon="5.53412">
        <ele>429.4</ele>
        <time>2013-11-13T08:51:10Z</time>
      </trkpt>
      <trkpt lat="43.33021" lon="5.53417">
        <ele>430.3</ele>
        <time>2013-11-13T08:51:17Z</time>
      </trkpt>
      <trkpt lat="43.33025" lon="5.53423">
        <ele>431.5</ele>
        <time>2013-11-13T08:51:27Z</time>
      </trkpt>
      <trkpt lat="43.33029" lon="5.53428">
        <ele>432.4</ele>
        <time>2013-11-13T08:51:35Z</time>
      </trkpt>
      <trkpt lat="43.33033" lon="5.53432">
        <ele>433.4</ele>
        <time>2013-11-13T08:51:43Z</time>
      </trkpt>
      <trkpt lat="43.33036" lon="5.53436">
        <ele>434</ele>
        <time>2013-11-13T08:51:49Z</time>
      </trkpt>
      <trkpt lat="43.33039" lon="5.53442">
        <ele>435.5</ele>
        <time>2013-11-13T08:52:01Z</time>
      </trkpt>
      <trkpt lat="43.33042" lon="5.53448">
        <ele>436.8</ele>
        <time>2013-11-13T08:52:12Z</time>
      </trkpt>
      <trkpt lat="43.33046" lon="5.53452">
        <ele>437.5</ele>
        <time>2013-11-13T08:52:18Z</time>
      </trkpt>
      <trkpt lat="43.3305" lon="5.53457">
        <ele>438.4</ele>
        <time>2013-11-13T08:52:25Z</time>
      </trkpt>
      <trkpt lat="43.33053" lon="5.53463">
        <ele>439.6</ele>
        <time>2013-11-13T08:52:35Z</time>
      </trkpt>
      <trkpt lat="43.33057" lon="5.53467">
        <ele>439.9</ele>
        <time>2013-11-13T08:52:40Z</time>
      </trkpt>
      <trkpt lat="43.33062" lon="5.53469">
        <ele>439.8</ele>
        <time>2013-11-13T08:52:44Z</time>
      </trkpt>
      <trkpt lat="43.33065" lon="5.53474">
        <ele>440.6</ele>
        <time>2013-11-13T08:52:51Z</time>
      </trkpt>
      <trkpt lat="43.33069" lon="5.53479">
        <ele>441.4</ele>
        <time>2013-11-13T08:52:58Z</time>
      </trkpt>
      <trkpt lat="43.33072" lon="5.53483">
        <ele>441.8</ele>
        <time>2013-11-13T08:53:02Z</time>
      </trkpt>
      <trkpt lat="43.33077" lon="5.53485">
        <ele>441.6</ele>
        <time>2013-11-13T08:53:06Z</time>
      </trkpt>
      <trkpt lat="43.33081" lon="5.53487">
        <ele>441.1</ele>
        <time>2013-11-13T08:53:09Z</time>
      </trkpt>
      <trkpt lat="43.33087" lon="5.53487">
        <ele>440.5</ele>
        <time>2013-11-13T08:53:13Z</time>
      </trkpt>
      <trkpt lat="43.33091" lon="5.53486">
        <ele>440.4</ele>
        <time>2013-11-13T08:53:17Z</time>
      </trkpt>
      <trkpt lat="43.33096" lon="5.53485">
        <ele>440.5</ele>
        <time>2013-11-13T08:53:21Z</time>
      </trkpt>
      <trkpt lat="43.33101" lon="5.53485">
        <ele>440.8</ele>
        <time>2013-11-13T08:53:25Z</time>
      </trkpt>
      <trkpt lat="43.33105" lon="5.53483">
        <ele>440.1</ele>
        <time>2013-11-13T08:53:29Z</time>
      </trkpt>
      <trkpt lat="43.3311" lon="5.53483">
        <ele>440.4</ele>
        <time>2013-11-13T08:53:34Z</time>
      </trkpt>
      <trkpt lat="43.33115" lon="5.53484">
        <ele>441.4</ele>
        <time>2013-11-13T08:53:42Z</time>
      </trkpt>
      <trkpt lat="43.33119" lon="5.53487">
        <ele>442.8</ele>
        <time>2013-11-13T08:53:53Z</time>
      </trkpt>
      <trkpt lat="43.33123" lon="5.5349">
        <ele>444.1</ele>
        <time>2013-11-13T08:54:04Z</time>
      </trkpt>
      <trkpt lat="43.33128" lon="5.5349">
        <ele>444.3</ele>
        <time>2013-11-13T08:54:08Z</time>
      </trkpt>
      <trkpt lat="43.33133" lon="5.53488">
        <ele>444.1</ele>
        <time>2013-11-13T08:54:11Z</time>
      </trkpt>
      <trkpt lat="43.33137" lon="5.5349">
        <ele>445</ele>
        <time>2013-11-13T08:54:19Z</time>
      </trkpt>
      <trkpt lat="43.33142" lon="5.53488">
        <ele>444.7</ele>
        <time>2013-11-13T08:54:22Z</time>
      </trkpt>
      <trkpt lat="43.33146" lon="5.53489">
        <ele>445.3</ele>
        <time>2013-11-13T08:54:27Z</time>
      </trkpt>
      <trkpt lat="43.33151" lon="5.5349">
        <ele>445.8</ele>
        <time>2013-11-13T08:54:33Z</time>
      </trkpt>
      <trkpt lat="43.33156" lon="5.5349">
        <ele>446.4</ele>
        <time>2013-11-13T08:54:39Z</time>
      </trkpt>
      <trkpt lat="43.33161" lon="5.53491">
        <ele>447.1</ele>
        <time>2013-11-13T08:54:45Z</time>
      </trkpt>
      <trkpt lat="43.33166" lon="5.53492">
        <ele>447.8</ele>
        <time>2013-11-13T08:54:51Z</time>
      </trkpt>
      <trkpt lat="43.3317" lon="5.53494">
        <ele>448.9</ele>
        <time>2013-11-13T08:55:00Z</time>
      </trkpt>
      <trkpt lat="43.33174" lon="5.53496">
        <ele>450.2</ele>
        <time>2013-11-13T08:55:11Z</time>
      </trkpt>
      <trkpt lat="43.33179" lon="5.53497">
        <ele>450.9</ele>
        <time>2013-11-13T08:55:17Z</time>
      </trkpt>
      <trkpt lat="43.33184" lon="5.53498">
        <ele>451.6</ele>
        <time>2013-11-13T08:55:23Z</time>
      </trkpt>
      <trkpt lat="43.33188" lon="5.53501">
        <ele>453.1</ele>
        <time>2013-11-13T08:55:35Z</time>
      </trkpt>
      <trkpt lat="43.33193" lon="5.53501">
        <ele>453.2</ele>
        <time>2013-11-13T08:55:39Z</time>
      </trkpt>
      <trkpt lat="43.33198" lon="5.53501">
        <ele>453.3</ele>
        <time>2013-11-13T08:55:43Z</time>
      </trkpt>
      <trkpt lat="43.33202" lon="5.535">
        <ele>453.3</ele>
        <time>2013-11-13T08:55:47Z</time>
      </trkpt>
      <trkpt lat="43.33207" lon="5.535">
        <ele>453.3</ele>
        <time>2013-11-13T08:55:51Z</time>
      </trkpt>
      <trkpt lat="43.33211" lon="5.53499">
        <ele>453.1</ele>
        <time>2013-11-13T08:55:54Z</time>
      </trkpt>
      <trkpt lat="43.33216" lon="5.53502">
        <ele>454.5</ele>
        <time>2013-11-13T08:56:05Z</time>
      </trkpt>
      <trkpt lat="43.33221" lon="5.53504">
        <ele>455.3</ele>
        <time>2013-11-13T08:56:12Z</time>
      </trkpt>
      <trkpt lat="43.33226" lon="5.53504">
        <ele>455.6</ele>
        <time>2013-11-13T08:56:17Z</time>
      </trkpt>
      <trkpt lat="43.3323" lon="5.53507">
        <ele>456.6</ele>
        <time>2013-11-13T08:56:25Z</time>
      </trkpt>
      <trkpt lat="43.33235" lon="5.53509">
        <ele>457.7</ele>
        <time>2013-11-13T08:56:34Z</time>
      </trkpt>
      <trkpt lat="43.33239" lon="5.53512">
        <ele>458.7</ele>
        <time>2013-11-13T08:56:43Z</time>
      </trkpt>
      <trkpt lat="43.33243" lon="5.53516">
        <ele>460.2</ele>
        <time>2013-11-13T08:56:55Z</time>
      </trkpt>
      <trkpt lat="43.33247" lon="5.53514">
        <ele>459.6</ele>
        <time>2013-11-13T08:56:58Z</time>
      </trkpt>
      <trkpt lat="43.33246" lon="5.53507">
        <ele>457.5</ele>
        <time>2013-11-13T08:57:09Z</time>
      </trkpt>
      <trkpt lat="43.33244" lon="5.53513">
        <ele>459.2</ele>
        <time>2013-11-13T08:57:23Z</time>
      </trkpt>
      <trkpt lat="43.33248" lon="5.53516">
        <ele>460.5</ele>
        <time>2013-11-13T08:57:33Z</time>
      </trkpt>
      <trkpt lat="43.33249" lon="5.53522">
        <ele>462.6</ele>
        <time>2013-11-13T08:57:52Z</time>
      </trkpt>
      <trkpt lat="43.33251" lon="5.53529">
        <ele>464.6</ele>
        <time>2013-11-13T08:58:08Z</time>
      </trkpt>
      <trkpt lat="43.33254" lon="5.53534">
        <ele>465.2</ele>
        <time>2013-11-13T08:58:14Z</time>
      </trkpt>
      <trkpt lat="43.33257" lon="5.53539">
        <ele>465.7</ele>
        <time>2013-11-13T08:58:20Z</time>
      </trkpt>
      <trkpt lat="43.3326" lon="5.53544">
        <ele>466.1</ele>
        <time>2013-11-13T08:58:24Z</time>
      </trkpt>
      <trkpt lat="43.33263" lon="5.5355">
        <ele>466.9</ele>
        <time>2013-11-13T08:58:31Z</time>
      </trkpt>
      <trkpt lat="43.33266" lon="5.53555">
        <ele>467.5</ele>
        <time>2013-11-13T08:58:37Z</time>
      </trkpt>
      <trkpt lat="43.33269" lon="5.53561">
        <ele>468.1</ele>
        <time>2013-11-13T08:58:43Z</time>
      </trkpt>
      <trkpt lat="43.33272" lon="5.53565">
        <ele>468.3</ele>
        <time>2013-11-13T08:58:47Z</time>
      </trkpt>
      <trkpt lat="43.33276" lon="5.5357">
        <ele>468.2</ele>
        <time>2013-11-13T08:58:52Z</time>
      </trkpt>
      <trkpt lat="43.3328" lon="5.53575">
        <ele>468.3</ele>
        <time>2013-11-13T08:58:56Z</time>
      </trkpt>
      <trkpt lat="43.33284" lon="5.53578">
        <ele>467.3</ele>
        <time>2013-11-13T08:59:01Z</time>
      </trkpt>
      <trkpt lat="43.33289" lon="5.53582">
        <ele>466.7</ele>
        <time>2013-11-13T08:59:04Z</time>
      </trkpt>
      <trkpt lat="43.33292" lon="5.53586">
        <ele>467</ele>
        <time>2013-11-13T08:59:09Z</time>
      </trkpt>
      <trkpt lat="43.33295" lon="5.53591">
        <ele>467.3</ele>
        <time>2013-11-13T08:59:13Z</time>
      </trkpt>
      <trkpt lat="43.333" lon="5.53594">
        <ele>466.3</ele>
        <time>2013-11-13T08:59:18Z</time>
      </trkpt>
      <trkpt lat="43.33304" lon="5.53598">
        <ele>465.6</ele>
        <time>2013-11-13T08:59:22Z</time>
      </trkpt>
      <trkpt lat="43.33307" lon="5.53602">
        <ele>465.6</ele>
        <time>2013-11-13T08:59:26Z</time>
      </trkpt>
      <trkpt lat="43.3331" lon="5.53608">
        <ele>466.2</ele>
        <time>2013-11-13T08:59:32Z</time>
      </trkpt>
      <trkpt lat="43.33313" lon="5.53614">
        <ele>466.9</ele>
        <time>2013-11-13T08:59:38Z</time>
      </trkpt>
      <trkpt lat="43.33315" lon="5.5362">
        <ele>467.6</ele>
        <time>2013-11-13T08:59:45Z</time>
      </trkpt>
      <trkpt lat="43.33318" lon="5.53625">
        <ele>467.9</ele>
        <time>2013-11-13T08:59:49Z</time>
      </trkpt>
      <trkpt lat="43.33321" lon="5.53631">
        <ele>468.1</ele>
        <time>2013-11-13T08:59:54Z</time>
      </trkpt>
      <trkpt lat="43.33323" lon="5.53637">
        <ele>469.1</ele>
        <time>2013-11-13T09:00:02Z</time>
      </trkpt>
      <trkpt lat="43.33325" lon="5.53644">
        <ele>470.6</ele>
        <time>2013-11-13T09:00:14Z</time>
      </trkpt>
      <trkpt lat="43.33326" lon="5.5365">
        <ele>472.1</ele>
        <time>2013-11-13T09:00:26Z</time>
      </trkpt>
      <trkpt lat="43.33328" lon="5.53657">
        <ele>472.7</ele>
        <time>2013-11-13T09:00:32Z</time>
      </trkpt>
      <trkpt lat="43.33331" lon="5.53662">
        <ele>473.2</ele>
        <time>2013-11-13T09:00:38Z</time>
      </trkpt>
      <trkpt lat="43.33333" lon="5.53668">
        <ele>473.9</ele>
        <time>2013-11-13T09:00:44Z</time>
      </trkpt>
      <trkpt lat="43.33335" lon="5.53675">
        <ele>474.7</ele>
        <time>2013-11-13T09:00:51Z</time>
      </trkpt>
      <trkpt lat="43.33338" lon="5.53681">
        <ele>475.2</ele>
        <time>2013-11-13T09:00:57Z</time>
      </trkpt>
      <trkpt lat="43.33341" lon="5.53686">
        <ele>475.7</ele>
        <time>2013-11-13T09:01:02Z</time>
      </trkpt>
      <trkpt lat="43.33343" lon="5.53692">
        <ele>476.2</ele>
        <time>2013-11-13T09:01:08Z</time>
      </trkpt>
      <trkpt lat="43.33346" lon="5.53699">
        <ele>477.1</ele>
        <time>2013-11-13T09:01:15Z</time>
      </trkpt>
      <trkpt lat="43.33347" lon="5.53705">
        <ele>478.2</ele>
        <time>2013-11-13T09:01:24Z</time>
      </trkpt>
      <trkpt lat="43.33349" lon="5.53712">
        <ele>479.1</ele>
        <time>2013-11-13T09:01:32Z</time>
      </trkpt>
      <trkpt lat="43.33352" lon="5.53718">
        <ele>479.4</ele>
        <time>2013-11-13T09:01:37Z</time>
      </trkpt>
      <trkpt lat="43.33354" lon="5.53723">
        <ele>479.8</ele>
        <time>2013-11-13T09:01:41Z</time>
      </trkpt>
      <trkpt lat="43.33357" lon="5.5373">
        <ele>480</ele>
        <time>2013-11-13T09:01:46Z</time>
      </trkpt>
      <trkpt lat="43.3336" lon="5.53735">
        <ele>480.2</ele>
        <time>2013-11-13T09:01:51Z</time>
      </trkpt>
      <trkpt lat="43.33363" lon="5.53741">
        <ele>480.3</ele>
        <time>2013-11-13T09:01:55Z</time>
      </trkpt>
      <trkpt lat="43.33366" lon="5.53747">
        <ele>480</ele>
        <time>2013-11-13T09:01:59Z</time>
      </trkpt>
      <trkpt lat="43.33368" lon="5.53753">
        <ele>480.1</ele>
        <time>2013-11-13T09:02:03Z</time>
      </trkpt>
      <trkpt lat="43.33371" lon="5.53759">
        <ele>480.6</ele>
        <time>2013-11-13T09:02:08Z</time>
      </trkpt>
      <trkpt lat="43.33372" lon="5.53765">
        <ele>481.1</ele>
        <time>2013-11-13T09:02:14Z</time>
      </trkpt>
      <trkpt lat="43.33375" lon="5.53772">
        <ele>481.4</ele>
        <time>2013-11-13T09:02:18Z</time>
      </trkpt>
      <trkpt lat="43.33377" lon="5.53777">
        <ele>481.7</ele>
        <time>2013-11-13T09:02:23Z</time>
      </trkpt>
      <trkpt lat="43.33378" lon="5.53785">
        <ele>482.4</ele>
        <time>2013-11-13T09:02:30Z</time>
      </trkpt>
      <trkpt lat="43.33379" lon="5.53791">
        <ele>483.4</ele>
        <time>2013-11-13T09:02:38Z</time>
      </trkpt>
      <trkpt lat="43.33381" lon="5.53799">
        <ele>484.1</ele>
        <time>2013-11-13T09:02:45Z</time>
      </trkpt>
      <trkpt lat="43.33383" lon="5.53805">
        <ele>484.5</ele>
        <time>2013-11-13T09:02:50Z</time>
      </trkpt>
      <trkpt lat="43.33384" lon="5.53812">
        <ele>484.8</ele>
        <time>2013-11-13T09:02:54Z</time>
      </trkpt>
      <trkpt lat="43.33387" lon="5.53818">
        <ele>485</ele>
        <time>2013-11-13T09:02:59Z</time>
      </trkpt>
      <trkpt lat="43.33388" lon="5.53825">
        <ele>485.6</ele>
        <time>2013-11-13T09:03:05Z</time>
      </trkpt>
      <trkpt lat="43.3339" lon="5.53831">
        <ele>485.5</ele>
        <time>2013-11-13T09:03:08Z</time>
      </trkpt>
      <trkpt lat="43.33392" lon="5.53837">
        <ele>486.1</ele>
        <time>2013-11-13T09:03:14Z</time>
      </trkpt>
      <trkpt lat="43.33394" lon="5.53843">
        <ele>486.5</ele>
        <time>2013-11-13T09:03:19Z</time>
      </trkpt>
      <trkpt lat="43.33396" lon="5.53849">
        <ele>486.9</ele>
        <time>2013-11-13T09:03:24Z</time>
      </trkpt>
      <trkpt lat="43.33399" lon="5.53854">
        <ele>486.3</ele>
        <time>2013-11-13T09:03:27Z</time>
      </trkpt>
      <trkpt lat="43.33402" lon="5.53858">
        <ele>485.7</ele>
        <time>2013-11-13T09:03:31Z</time>
      </trkpt>
      <trkpt lat="43.33405" lon="5.53863">
        <ele>485.1</ele>
        <time>2013-11-13T09:03:35Z</time>
      </trkpt>
      <trkpt lat="43.33409" lon="5.53869">
        <ele>484.4</ele>
        <time>2013-11-13T09:03:39Z</time>
      </trkpt>
      <trkpt lat="43.33412" lon="5.53874">
        <ele>484.3</ele>
        <time>2013-11-13T09:03:42Z</time>
      </trkpt>
      <trkpt lat="43.33412" lon="5.53881">
        <ele>485.3</ele>
        <time>2013-11-13T09:03:51Z</time>
      </trkpt>
      <trkpt lat="43.33414" lon="5.53887">
        <ele>486</ele>
        <time>2013-11-13T09:03:57Z</time>
      </trkpt>
      <trkpt lat="43.33415" lon="5.53893">
        <ele>486.8</ele>
        <time>2013-11-13T09:04:04Z</time>
      </trkpt>
      <trkpt lat="43.33419" lon="5.53899">
        <ele>487.2</ele>
        <time>2013-11-13T09:04:09Z</time>
      </trkpt>
      <trkpt lat="43.33423" lon="5.53904">
        <ele>487.6</ele>
        <time>2013-11-13T09:04:14Z</time>
      </trkpt>
      <trkpt lat="43.33426" lon="5.53909">
        <ele>488.3</ele>
        <time>2013-11-13T09:04:21Z</time>
      </trkpt>
      <trkpt lat="43.33429" lon="5.53914">
        <ele>488.9</ele>
        <time>2013-11-13T09:04:27Z</time>
      </trkpt>
      <trkpt lat="43.33434" lon="5.53919">
        <ele>489.4</ele>
        <time>2013-11-13T09:04:33Z</time>
      </trkpt>
      <trkpt lat="43.33439" lon="5.53923">
        <ele>490</ele>
        <time>2013-11-13T09:04:39Z</time>
      </trkpt>
      <trkpt lat="43.33441" lon="5.53928">
        <ele>491.3</ele>
        <time>2013-11-13T09:04:50Z</time>
      </trkpt>
      <trkpt lat="43.33443" lon="5.53934">
        <ele>493.1</ele>
        <time>2013-11-13T09:05:05Z</time>
      </trkpt>
      <trkpt lat="43.33447" lon="5.53938">
        <ele>493.8</ele>
        <time>2013-11-13T09:05:11Z</time>
      </trkpt>
      <trkpt lat="43.33451" lon="5.53942">
        <ele>494.1</ele>
        <time>2013-11-13T09:05:15Z</time>
      </trkpt>
      <trkpt lat="43.33454" lon="5.53946">
        <ele>494.7</ele>
        <time>2013-11-13T09:05:21Z</time>
      </trkpt>
      <trkpt lat="43.33458" lon="5.53952">
        <ele>495.6</ele>
        <time>2013-11-13T09:05:29Z</time>
      </trkpt>
      <trkpt lat="43.33462" lon="5.53956">
        <ele>495.8</ele>
        <time>2013-11-13T09:05:33Z</time>
      </trkpt>
      <trkpt lat="43.33465" lon="5.53961">
        <ele>496.5</ele>
        <time>2013-11-13T09:05:40Z</time>
      </trkpt>
      <trkpt lat="43.33469" lon="5.53966">
        <ele>497</ele>
        <time>2013-11-13T09:05:45Z</time>
      </trkpt>
      <trkpt lat="43.33473" lon="5.53969">
        <ele>496.9</ele>
        <time>2013-11-13T09:05:49Z</time>
      </trkpt>
      <trkpt lat="43.33477" lon="5.53973">
        <ele>496.5</ele>
        <time>2013-11-13T09:05:52Z</time>
      </trkpt>
      <trkpt lat="43.33482" lon="5.53976">
        <ele>496.1</ele>
        <time>2013-11-13T09:05:56Z</time>
      </trkpt>
      <trkpt lat="43.33486" lon="5.5398">
        <ele>495.7</ele>
        <time>2013-11-13T09:05:59Z</time>
      </trkpt>
      <trkpt lat="43.3349" lon="5.53983">
        <ele>495.2</ele>
        <time>2013-11-13T09:06:03Z</time>
      </trkpt>
      <trkpt lat="43.33494" lon="5.53989">
        <ele>495.2</ele>
        <time>2013-11-13T09:06:07Z</time>
      </trkpt>
      <trkpt lat="43.33497" lon="5.53994">
        <ele>495.4</ele>
        <time>2013-11-13T09:06:12Z</time>
      </trkpt>
      <trkpt lat="43.33501" lon="5.53999">
        <ele>495.6</ele>
        <time>2013-11-13T09:06:16Z</time>
      </trkpt>
      <trkpt lat="43.33502" lon="5.54005">
        <ele>497.6</ele>
        <time>2013-11-13T09:06:33Z</time>
      </trkpt>
      <trkpt lat="43.33502" lon="5.54012">
        <ele>499.8</ele>
        <time>2013-11-13T09:06:52Z</time>
      </trkpt>
      <trkpt lat="43.33502" lon="5.54019">
        <ele>501.9</ele>
        <time>2013-11-13T09:07:10Z</time>
      </trkpt>
      <trkpt lat="43.33504" lon="5.54025">
        <ele>503.7</ele>
        <time>2013-11-13T09:07:25Z</time>
      </trkpt>
      <trkpt lat="43.33507" lon="5.54031">
        <ele>505.2</ele>
        <time>2013-11-13T09:07:37Z</time>
      </trkpt>
      <trkpt lat="43.33511" lon="5.54036">
        <ele>506.3</ele>
        <time>2013-11-13T09:07:46Z</time>
      </trkpt>
      <trkpt lat="43.33515" lon="5.54037">
        <ele>506.3</ele>
        <time>2013-11-13T09:07:50Z</time>
      </trkpt>
      <trkpt lat="43.3352" lon="5.5404">
        <ele>506.6</ele>
        <time>2013-11-13T09:07:54Z</time>
      </trkpt>
      <trkpt lat="43.33525" lon="5.5404">
        <ele>506.2</ele>
        <time>2013-11-13T09:07:57Z</time>
      </trkpt>
      <trkpt lat="43.33529" lon="5.54044">
        <ele>506.7</ele>
        <time>2013-11-13T09:08:03Z</time>
      </trkpt>
      <trkpt lat="43.33532" lon="5.5405">
        <ele>507.7</ele>
        <time>2013-11-13T09:08:11Z</time>
      </trkpt>
      <trkpt lat="43.33535" lon="5.54055">
        <ele>508.6</ele>
        <time>2013-11-13T09:08:19Z</time>
      </trkpt>
      <trkpt lat="43.33537" lon="5.54062">
        <ele>509.8</ele>
        <time>2013-11-13T09:08:29Z</time>
      </trkpt>
      <trkpt lat="43.33539" lon="5.54068">
        <ele>510.8</ele>
        <time>2013-11-13T09:08:37Z</time>
      </trkpt>
      <trkpt lat="43.33542" lon="5.54074">
        <ele>511.5</ele>
        <time>2013-11-13T09:08:43Z</time>
      </trkpt>
      <trkpt lat="43.33545" lon="5.5408">
        <ele>512</ele>
        <time>2013-11-13T09:08:49Z</time>
      </trkpt>
      <trkpt lat="43.33549" lon="5.54084">
        <ele>512.2</ele>
        <time>2013-11-13T09:08:53Z</time>
      </trkpt>
      <trkpt lat="43.33552" lon="5.5409">
        <ele>512.8</ele>
        <time>2013-11-13T09:08:59Z</time>
      </trkpt>
      <trkpt lat="43.33555" lon="5.54097">
        <ele>513.5</ele>
        <time>2013-11-13T09:09:06Z</time>
      </trkpt>
      <trkpt lat="43.33556" lon="5.54103">
        <ele>514.5</ele>
        <time>2013-11-13T09:09:14Z</time>
      </trkpt>
      <trkpt lat="43.33558" lon="5.54109">
        <ele>515.3</ele>
        <time>2013-11-13T09:09:21Z</time>
      </trkpt>
      <trkpt lat="43.33561" lon="5.54116">
        <ele>515.9</ele>
        <time>2013-11-13T09:09:27Z</time>
      </trkpt>
      <trkpt lat="43.33564" lon="5.5412">
        <ele>515.7</ele>
        <time>2013-11-13T09:09:31Z</time>
      </trkpt>
      <trkpt lat="43.33567" lon="5.54127">
        <ele>516</ele>
        <time>2013-11-13T09:09:36Z</time>
      </trkpt>
      <trkpt lat="43.33569" lon="5.54132">
        <ele>516.3</ele>
        <time>2013-11-13T09:09:40Z</time>
      </trkpt>
      <trkpt lat="43.33571" lon="5.54139">
        <ele>516.9</ele>
        <time>2013-11-13T09:09:46Z</time>
      </trkpt>
      <trkpt lat="43.33574" lon="5.54145">
        <ele>517.2</ele>
        <time>2013-11-13T09:09:51Z</time>
      </trkpt>
      <trkpt lat="43.33576" lon="5.54151">
        <ele>517.4</ele>
        <time>2013-11-13T09:09:55Z</time>
      </trkpt>
      <trkpt lat="43.33576" lon="5.54158">
        <ele>518.4</ele>
        <time>2013-11-13T09:10:04Z</time>
      </trkpt>
      <trkpt lat="43.33577" lon="5.54164">
        <ele>519</ele>
        <time>2013-11-13T09:10:09Z</time>
      </trkpt>
      <trkpt lat="43.3358" lon="5.54169">
        <ele>519.1</ele>
        <time>2013-11-13T09:10:13Z</time>
      </trkpt>
      <trkpt lat="43.33581" lon="5.54176">
        <ele>520.1</ele>
        <time>2013-11-13T09:10:22Z</time>
      </trkpt>
      <trkpt lat="43.33584" lon="5.54181">
        <ele>520.6</ele>
        <time>2013-11-13T09:10:27Z</time>
      </trkpt>
      <trkpt lat="43.33588" lon="5.54187">
        <ele>522.7</ele>
        <time>2013-11-13T09:10:45Z</time>
      </trkpt>
      <trkpt lat="43.33593" lon="5.54191">
        <ele>525</ele>
        <time>2013-11-13T09:11:04Z</time>
      </trkpt>
      <trkpt lat="43.33596" lon="5.54196">
        <ele>526.9</ele>
        <time>2013-11-13T09:11:20Z</time>
      </trkpt>
      <trkpt lat="43.33599" lon="5.54202">
        <ele>528.6</ele>
        <time>2013-11-13T09:11:34Z</time>
      </trkpt>
      <trkpt lat="43.336" lon="5.54208">
        <ele>530.3</ele>
        <time>2013-11-13T09:11:48Z</time>
      </trkpt>
      <trkpt lat="43.33603" lon="5.54213">
        <ele>532</ele>
        <time>2013-11-13T09:12:02Z</time>
      </trkpt>
      <trkpt lat="43.33605" lon="5.54219">
        <ele>533.5</ele>
        <time>2013-11-13T09:12:15Z</time>
      </trkpt>
      <trkpt lat="43.33609" lon="5.54223">
        <ele>534.9</ele>
        <time>2013-11-13T09:12:26Z</time>
      </trkpt>
      <trkpt lat="43.33614" lon="5.54225">
        <ele>536.2</ele>
        <time>2013-11-13T09:12:36Z</time>
      </trkpt>
      <trkpt lat="43.33618" lon="5.54227">
        <ele>537.4</ele>
        <time>2013-11-13T09:12:46Z</time>
      </trkpt>
      <trkpt lat="43.3362" lon="5.54233">
        <ele>538.7</ele>
        <time>2013-11-13T09:12:57Z</time>
      </trkpt>
      <trkpt lat="43.33622" lon="5.54239">
        <ele>539.9</ele>
        <time>2013-11-13T09:13:06Z</time>
      </trkpt>
      <trkpt lat="43.33624" lon="5.54245">
        <ele>541</ele>
        <time>2013-11-13T09:13:15Z</time>
      </trkpt>
      <trkpt lat="43.33625" lon="5.54251">
        <ele>542.2</ele>
        <time>2013-11-13T09:13:25Z</time>
      </trkpt>
      <trkpt lat="43.33627" lon="5.54258">
        <ele>543.9</ele>
        <time>2013-11-13T09:13:39Z</time>
      </trkpt>
      <trkpt lat="43.33627" lon="5.54264">
        <ele>545.3</ele>
        <time>2013-11-13T09:13:50Z</time>
      </trkpt>
      <trkpt lat="43.33629" lon="5.5427">
        <ele>546.6</ele>
        <time>2013-11-13T09:14:01Z</time>
      </trkpt>
      <trkpt lat="43.3363" lon="5.54277">
        <ele>548</ele>
        <time>2013-11-13T09:14:12Z</time>
      </trkpt>
      <trkpt lat="43.33631" lon="5.54283">
        <ele>549.3</ele>
        <time>2013-11-13T09:14:23Z</time>
      </trkpt>
      <trkpt lat="43.33632" lon="5.54289">
        <ele>550.6</ele>
        <time>2013-11-13T09:14:33Z</time>
      </trkpt>
      <trkpt lat="43.33633" lon="5.54296">
        <ele>551.8</ele>
        <time>2013-11-13T09:14:43Z</time>
      </trkpt>
      <trkpt lat="43.33635" lon="5.54302">
        <ele>552.9</ele>
        <time>2013-11-13T09:14:52Z</time>
      </trkpt>
      <trkpt lat="43.33635" lon="5.54309">
        <ele>554</ele>
        <time>2013-11-13T09:15:01Z</time>
      </trkpt>
      <trkpt lat="43.33636" lon="5.54315">
        <ele>555.1</ele>
        <time>2013-11-13T09:15:10Z</time>
      </trkpt>
      <trkpt lat="43.33639" lon="5.5432">
        <ele>555.5</ele>
        <time>2013-11-13T09:15:15Z</time>
      </trkpt>
      <trkpt lat="43.33643" lon="5.54325">
        <ele>555.5</ele>
        <time>2013-11-13T09:15:19Z</time>
      </trkpt>
      <trkpt lat="43.33648" lon="5.54329">
        <ele>555.3</ele>
        <time>2013-11-13T09:15:23Z</time>
      </trkpt>
      <trkpt lat="43.33651" lon="5.54334">
        <ele>555.3</ele>
        <time>2013-11-13T09:15:27Z</time>
      </trkpt>
      <trkpt lat="43.33655" lon="5.54338">
        <ele>555.5</ele>
        <time>2013-11-13T09:15:31Z</time>
      </trkpt>
      <trkpt lat="43.33658" lon="5.54343">
        <ele>555.5</ele>
        <time>2013-11-13T09:15:35Z</time>
      </trkpt>
      <trkpt lat="43.33662" lon="5.54347">
        <ele>555.6</ele>
        <time>2013-11-13T09:15:39Z</time>
      </trkpt>
      <trkpt lat="43.33665" lon="5.54352">
        <ele>555.8</ele>
        <time>2013-11-13T09:15:44Z</time>
      </trkpt>
      <trkpt lat="43.33669" lon="5.54357">
        <ele>557</ele>
        <time>2013-11-13T09:15:54Z</time>
      </trkpt>
      <trkpt lat="43.33672" lon="5.54362">
        <ele>558.7</ele>
        <time>2013-11-13T09:16:08Z</time>
      </trkpt>
      <trkpt lat="43.33675" lon="5.54368">
        <ele>560.2</ele>
        <time>2013-11-13T09:16:20Z</time>
      </trkpt>
      <trkpt lat="43.33677" lon="5.54374">
        <ele>561.5</ele>
        <time>2013-11-13T09:16:31Z</time>
      </trkpt>
      <trkpt lat="43.33681" lon="5.54379">
        <ele>562.9</ele>
        <time>2013-11-13T09:16:42Z</time>
      </trkpt>
      <trkpt lat="43.33685" lon="5.54382">
        <ele>564</ele>
        <time>2013-11-13T09:16:51Z</time>
      </trkpt>
      <trkpt lat="43.33689" lon="5.54381">
        <ele>564.8</ele>
        <time>2013-11-13T09:16:58Z</time>
      </trkpt>
      <trkpt lat="43.33693" lon="5.54378">
        <ele>565.3</ele>
        <time>2013-11-13T09:17:03Z</time>
      </trkpt>
      <trkpt lat="43.33698" lon="5.54377">
        <ele>566.2</ele>
        <time>2013-11-13T09:17:10Z</time>
      </trkpt>
      <trkpt lat="43.33702" lon="5.54374">
        <ele>566.9</ele>
        <time>2013-11-13T09:17:17Z</time>
      </trkpt>
      <trkpt lat="43.33707" lon="5.54374">
        <ele>568</ele>
        <time>2013-11-13T09:17:26Z</time>
      </trkpt>
      <trkpt lat="43.33712" lon="5.54375">
        <ele>569</ele>
        <time>2013-11-13T09:17:34Z</time>
      </trkpt>
      <trkpt lat="43.33717" lon="5.54376">
        <ele>570.1</ele>
        <time>2013-11-13T09:17:43Z</time>
      </trkpt>
      <trkpt lat="43.33721" lon="5.54381">
        <ele>570.7</ele>
        <time>2013-11-13T09:17:49Z</time>
      </trkpt>
      <trkpt lat="43.33724" lon="5.54386">
        <ele>571.1</ele>
        <time>2013-11-13T09:17:54Z</time>
      </trkpt>
      <trkpt lat="43.33729" lon="5.54388">
        <ele>571.8</ele>
        <time>2013-11-13T09:18:00Z</time>
      </trkpt>
      <trkpt lat="43.33733" lon="5.54392">
        <ele>572.2</ele>
        <time>2013-11-13T09:18:06Z</time>
      </trkpt>
      <trkpt lat="43.33738" lon="5.54395">
        <ele>572.5</ele>
        <time>2013-11-13T09:18:10Z</time>
      </trkpt>
      <trkpt lat="43.33742" lon="5.54399">
        <ele>572.6</ele>
        <time>2013-11-13T09:18:14Z</time>
      </trkpt>
      <trkpt lat="43.33747" lon="5.544">
        <ele>573</ele>
        <time>2013-11-13T09:18:19Z</time>
      </trkpt>
      <trkpt lat="43.33752" lon="5.54401">
        <ele>573.9</ele>
        <time>2013-11-13T09:18:27Z</time>
      </trkpt>
      <trkpt lat="43.33757" lon="5.54401">
        <ele>575.7</ele>
        <time>2013-11-13T09:18:42Z</time>
      </trkpt>
      <trkpt lat="43.33763" lon="5.544">
        <ele>577.8</ele>
        <time>2013-11-13T09:18:59Z</time>
      </trkpt>
      <trkpt lat="43.33768" lon="5.54402">
        <ele>579.3</ele>
        <time>2013-11-13T09:19:11Z</time>
      </trkpt>
      <trkpt lat="43.33772" lon="5.54405">
        <ele>580.1</ele>
        <time>2013-11-13T09:19:18Z</time>
      </trkpt>
      <trkpt lat="43.33776" lon="5.54408">
        <ele>580.9</ele>
        <time>2013-11-13T09:19:25Z</time>
      </trkpt>
      <trkpt lat="43.33782" lon="5.54413">
        <ele>582</ele>
        <time>2013-11-13T09:19:34Z</time>
      </trkpt>
      <trkpt lat="43.33786" lon="5.54417">
        <ele>582.8</ele>
        <time>2013-11-13T09:19:42Z</time>
      </trkpt>
      <trkpt lat="43.3379" lon="5.54421">
        <ele>585</ele>
        <time>2013-11-13T09:20:01Z</time>
      </trkpt>
      <trkpt lat="43.33795" lon="5.54426">
        <ele>587.1</ele>
        <time>2013-11-13T09:20:19Z</time>
      </trkpt>
      <trkpt lat="43.33799" lon="5.54429">
        <ele>589.1</ele>
        <time>2013-11-13T09:20:35Z</time>
      </trkpt>
      <trkpt lat="43.33804" lon="5.54434">
        <ele>591.2</ele>
        <time>2013-11-13T09:20:53Z</time>
      </trkpt>
      <trkpt lat="43.33809" lon="5.54438">
        <ele>593</ele>
        <time>2013-11-13T09:21:08Z</time>
      </trkpt>
      <trkpt lat="43.33813" lon="5.54442">
        <ele>594.6</ele>
        <time>2013-11-13T09:21:21Z</time>
      </trkpt>
      <trkpt lat="43.33817" lon="5.54446">
        <ele>596.1</ele>
        <time>2013-11-13T09:21:33Z</time>
      </trkpt>
      <trkpt lat="43.33821" lon="5.5445">
        <ele>597.4</ele>
        <time>2013-11-13T09:21:43Z</time>
      </trkpt>
      <trkpt lat="43.33825" lon="5.54456">
        <ele>598.7</ele>
        <time>2013-11-13T09:21:54Z</time>
      </trkpt>
      <trkpt lat="43.33828" lon="5.5446">
        <ele>599.7</ele>
        <time>2013-11-13T09:22:02Z</time>
      </trkpt>
      <trkpt lat="43.33832" lon="5.54465">
        <ele>600.7</ele>
        <time>2013-11-13T09:22:10Z</time>
      </trkpt>
      <trkpt lat="43.33835" lon="5.5447">
        <ele>601.7</ele>
        <time>2013-11-13T09:22:19Z</time>
      </trkpt>
      <trkpt lat="43.33839" lon="5.54473">
        <ele>602.8</ele>
        <time>2013-11-13T09:22:28Z</time>
      </trkpt>
      <trkpt lat="43.33842" lon="5.54479">
        <ele>603.9</ele>
        <time>2013-11-13T09:22:37Z</time>
      </trkpt>
      <trkpt lat="43.33847" lon="5.54482">
        <ele>605</ele>
        <time>2013-11-13T09:22:46Z</time>
      </trkpt>
      <trkpt lat="43.33851" lon="5.54485">
        <ele>605.9</ele>
        <time>2013-11-13T09:22:53Z</time>
      </trkpt>
      <trkpt lat="43.33855" lon="5.54482">
        <ele>606.8</ele>
        <time>2013-11-13T09:23:01Z</time>
      </trkpt>
      <trkpt lat="43.33859" lon="5.54481">
        <ele>607.9</ele>
        <time>2013-11-13T09:23:10Z</time>
      </trkpt>
      <trkpt lat="43.33863" lon="5.54485">
        <ele>608.7</ele>
        <time>2013-11-13T09:23:17Z</time>
      </trkpt>
      <trkpt lat="43.33867" lon="5.54489">
        <ele>609.5</ele>
        <time>2013-11-13T09:23:24Z</time>
      </trkpt>
      <trkpt lat="43.3387" lon="5.54494">
        <ele>609.8</ele>
        <time>2013-11-13T09:23:28Z</time>
      </trkpt>
      <trkpt lat="43.33873" lon="5.545">
        <ele>610.1</ele>
        <time>2013-11-13T09:23:33Z</time>
      </trkpt>
      <trkpt lat="43.33876" lon="5.54504">
        <ele>611.2</ele>
        <time>2013-11-13T09:23:42Z</time>
      </trkpt>
      <trkpt lat="43.33877" lon="5.5451">
        <ele>611.8</ele>
        <time>2013-11-13T09:23:47Z</time>
      </trkpt>
      <trkpt lat="43.33877" lon="5.54517">
        <ele>612.5</ele>
        <time>2013-11-13T09:23:54Z</time>
      </trkpt>
      <trkpt lat="43.33879" lon="5.54523">
        <ele>613.3</ele>
        <time>2013-11-13T09:24:00Z</time>
      </trkpt>
      <trkpt lat="43.3388" lon="5.5453">
        <ele>614</ele>
        <time>2013-11-13T09:24:07Z</time>
      </trkpt>
      <trkpt lat="43.33882" lon="5.54535">
        <ele>614.7</ele>
        <time>2013-11-13T09:24:13Z</time>
      </trkpt>
      <trkpt lat="43.33884" lon="5.54541">
        <ele>615.2</ele>
        <time>2013-11-13T09:24:18Z</time>
      </trkpt>
      <trkpt lat="43.33886" lon="5.54546">
        <ele>615.8</ele>
        <time>2013-11-13T09:24:24Z</time>
      </trkpt>
      <trkpt lat="43.33888" lon="5.54552">
        <ele>616.3</ele>
        <time>2013-11-13T09:24:29Z</time>
      </trkpt>
      <trkpt lat="43.33891" lon="5.54557">
        <ele>616.7</ele>
        <time>2013-11-13T09:24:34Z</time>
      </trkpt>
      <trkpt lat="43.33894" lon="5.54562">
        <ele>617</ele>
        <time>2013-11-13T09:24:38Z</time>
      </trkpt>
      <trkpt lat="43.33898" lon="5.54566">
        <ele>617.2</ele>
        <time>2013-11-13T09:24:43Z</time>
      </trkpt>
      <trkpt lat="43.33901" lon="5.54572">
        <ele>617.4</ele>
        <time>2013-11-13T09:24:47Z</time>
      </trkpt>
      <trkpt lat="43.33904" lon="5.54577">
        <ele>617.5</ele>
        <time>2013-11-13T09:24:51Z</time>
      </trkpt>
      <trkpt lat="43.33907" lon="5.54582">
        <ele>617.4</ele>
        <time>2013-11-13T09:24:55Z</time>
      </trkpt>
      <trkpt lat="43.3391" lon="5.54587">
        <ele>617.8</ele>
        <time>2013-11-13T09:25:00Z</time>
      </trkpt>
      <trkpt lat="43.33914" lon="5.54591">
        <ele>618.2</ele>
        <time>2013-11-13T09:25:05Z</time>
      </trkpt>
      <trkpt lat="43.33919" lon="5.54593">
        <ele>619.1</ele>
        <time>2013-11-13T09:25:12Z</time>
      </trkpt>
      <trkpt lat="43.33923" lon="5.54596">
        <ele>620.8</ele>
        <time>2013-11-13T09:25:26Z</time>
      </trkpt>
      <trkpt lat="43.33928" lon="5.54598">
        <ele>622.6</ele>
        <time>2013-11-13T09:25:41Z</time>
      </trkpt>
      <trkpt lat="43.33933" lon="5.546">
        <ele>624.1</ele>
        <time>2013-11-13T09:25:53Z</time>
      </trkpt>
      <trkpt lat="43.33937" lon="5.54601">
        <ele>625.4</ele>
        <time>2013-11-13T09:26:04Z</time>
      </trkpt>
      <trkpt lat="43.33942" lon="5.54603">
        <ele>626.9</ele>
        <time>2013-11-13T09:26:16Z</time>
      </trkpt>
      <trkpt lat="43.33946" lon="5.54606">
        <ele>628.2</ele>
        <time>2013-11-13T09:26:27Z</time>
      </trkpt>
      <trkpt lat="43.3395" lon="5.54609">
        <ele>629.6</ele>
        <time>2013-11-13T09:26:38Z</time>
      </trkpt>
      <trkpt lat="43.33954" lon="5.54612">
        <ele>630.7</ele>
        <time>2013-11-13T09:26:47Z</time>
      </trkpt>
      <trkpt lat="43.33957" lon="5.54618">
        <ele>631.5</ele>
        <time>2013-11-13T09:26:54Z</time>
      </trkpt>
      <trkpt lat="43.3396" lon="5.54621">
        <ele>632.5</ele>
        <time>2013-11-13T09:27:02Z</time>
      </trkpt>
      <trkpt lat="43.33961" lon="5.54628">
        <ele>633</ele>
        <time>2013-11-13T09:27:07Z</time>
      </trkpt>
      <trkpt lat="43.33965" lon="5.54632">
        <ele>633.7</ele>
        <time>2013-11-13T09:27:13Z</time>
      </trkpt>
      <trkpt lat="43.33969" lon="5.54636">
        <ele>634.5</ele>
        <time>2013-11-13T09:27:20Z</time>
      </trkpt>
      <trkpt lat="43.33971" lon="5.54642">
        <ele>635</ele>
        <time>2013-11-13T09:27:26Z</time>
      </trkpt>
      <trkpt lat="43.33973" lon="5.54648">
        <ele>635.4</ele>
        <time>2013-11-13T09:27:31Z</time>
      </trkpt>
      <trkpt lat="43.33975" lon="5.54655">
        <ele>635.6</ele>
        <time>2013-11-13T09:27:35Z</time>
      </trkpt>
      <trkpt lat="43.33976" lon="5.54662">
        <ele>635.7</ele>
        <time>2013-11-13T09:27:39Z</time>
      </trkpt>
      <trkpt lat="43.33977" lon="5.54668">
        <ele>636</ele>
        <time>2013-11-13T09:27:44Z</time>
      </trkpt>
      <trkpt lat="43.33977" lon="5.54675">
        <ele>636.9</ele>
        <time>2013-11-13T09:27:51Z</time>
      </trkpt>
      <trkpt lat="43.33979" lon="5.54681">
        <ele>637.9</ele>
        <time>2013-11-13T09:27:59Z</time>
      </trkpt>
      <trkpt lat="43.33981" lon="5.54687">
        <ele>639</ele>
        <time>2013-11-13T09:28:09Z</time>
      </trkpt>
      <trkpt lat="43.33983" lon="5.54694">
        <ele>640</ele>
        <time>2013-11-13T09:28:17Z</time>
      </trkpt>
      <trkpt lat="43.33984" lon="5.54701">
        <ele>641</ele>
        <time>2013-11-13T09:28:25Z</time>
      </trkpt>
      <trkpt lat="43.33984" lon="5.54707">
        <ele>641.9</ele>
        <time>2013-11-13T09:28:33Z</time>
      </trkpt>
      <trkpt lat="43.33986" lon="5.54713">
        <ele>642.8</ele>
        <time>2013-11-13T09:28:40Z</time>
      </trkpt>
      <trkpt lat="43.33987" lon="5.54719">
        <ele>643.7</ele>
        <time>2013-11-13T09:28:48Z</time>
      </trkpt>
      <trkpt lat="43.33988" lon="5.54726">
        <ele>644.6</ele>
        <time>2013-11-13T09:28:55Z</time>
      </trkpt>
      <trkpt lat="43.33991" lon="5.5473">
        <ele>645.3</ele>
        <time>2013-11-13T09:29:01Z</time>
      </trkpt>
      <trkpt lat="43.33996" lon="5.54734">
        <ele>645.9</ele>
        <time>2013-11-13T09:29:07Z</time>
      </trkpt>
      <trkpt lat="43.34" lon="5.54738">
        <ele>646.5</ele>
        <time>2013-11-13T09:29:13Z</time>
      </trkpt>
      <trkpt lat="43.34004" lon="5.5474">
        <ele>647.6</ele>
        <time>2013-11-13T09:29:22Z</time>
      </trkpt>
      <trkpt lat="43.34009" lon="5.54742">
        <ele>648.6</ele>
        <time>2013-11-13T09:29:30Z</time>
      </trkpt>
      <trkpt lat="43.34014" lon="5.5474">
        <ele>649.3</ele>
        <time>2013-11-13T09:29:37Z</time>
      </trkpt>
      <trkpt lat="43.34018" lon="5.54739">
        <ele>650.1</ele>
        <time>2013-11-13T09:29:44Z</time>
      </trkpt>
      <trkpt lat="43.34023" lon="5.54741">
        <ele>651</ele>
        <time>2013-11-13T09:29:51Z</time>
      </trkpt>
      <trkpt lat="43.34028" lon="5.54741">
        <ele>651.9</ele>
        <time>2013-11-13T09:29:58Z</time>
      </trkpt>
      <trkpt lat="43.34032" lon="5.54742">
        <ele>652.9</ele>
        <time>2013-11-13T09:30:07Z</time>
      </trkpt>
      <trkpt lat="43.34037" lon="5.54742">
        <ele>653.7</ele>
        <time>2013-11-13T09:30:13Z</time>
      </trkpt>
      <trkpt lat="43.34041" lon="5.54741">
        <ele>654.4</ele>
        <time>2013-11-13T09:30:20Z</time>
      </trkpt>
      <trkpt lat="43.34046" lon="5.5474">
        <ele>655.2</ele>
        <time>2013-11-13T09:30:26Z</time>
      </trkpt>
      <trkpt lat="43.3405" lon="5.5474">
        <ele>656</ele>
        <time>2013-11-13T09:30:33Z</time>
      </trkpt>
      <trkpt lat="43.34055" lon="5.54736">
        <ele>656.7</ele>
        <time>2013-11-13T09:30:39Z</time>
      </trkpt>
      <trkpt lat="43.34059" lon="5.54736">
        <ele>657.5</ele>
        <time>2013-11-13T09:30:46Z</time>
      </trkpt>
      <trkpt lat="43.34064" lon="5.54736">
        <ele>658.5</ele>
        <time>2013-11-13T09:30:54Z</time>
      </trkpt>
      <trkpt lat="43.34068" lon="5.54732">
        <ele>659.2</ele>
        <time>2013-11-13T09:31:01Z</time>
      </trkpt>
      <trkpt lat="43.34072" lon="5.54728">
        <ele>659.9</ele>
        <time>2013-11-13T09:31:07Z</time>
      </trkpt>
      <trkpt lat="43.34076" lon="5.54725">
        <ele>660.8</ele>
        <time>2013-11-13T09:31:14Z</time>
      </trkpt>
      <trkpt lat="43.34081" lon="5.54726">
        <ele>661.8</ele>
        <time>2013-11-13T09:31:23Z</time>
      </trkpt>
      <trkpt lat="43.34085" lon="5.54722">
        <ele>662.7</ele>
        <time>2013-11-13T09:31:30Z</time>
      </trkpt>
      <trkpt lat="43.34087" lon="5.54716">
        <ele>663.1</ele>
        <time>2013-11-13T09:31:35Z</time>
      </trkpt>
      <trkpt lat="43.34086" lon="5.5471">
        <ele>663.1</ele>
        <time>2013-11-13T09:31:39Z</time>
      </trkpt>
      <trkpt lat="43.3409" lon="5.54705">
        <ele>663.8</ele>
        <time>2013-11-13T09:31:45Z</time>
      </trkpt>
      <trkpt lat="43.34095" lon="5.54703">
        <ele>664.8</ele>
        <time>2013-11-13T09:31:53Z</time>
      </trkpt>
      <trkpt lat="43.341" lon="5.54703">
        <ele>665.8</ele>
        <time>2013-11-13T09:32:01Z</time>
      </trkpt>
      <trkpt lat="43.34104" lon="5.54701">
        <ele>666.8</ele>
        <time>2013-11-13T09:32:10Z</time>
      </trkpt>
      <trkpt lat="43.34108" lon="5.54699">
        <ele>667.6</ele>
        <time>2013-11-13T09:32:16Z</time>
      </trkpt>
      <trkpt lat="43.34113" lon="5.54696">
        <ele>668.4</ele>
        <time>2013-11-13T09:32:23Z</time>
      </trkpt>
      <trkpt lat="43.34117" lon="5.54694">
        <ele>669.3</ele>
        <time>2013-11-13T09:32:31Z</time>
      </trkpt>
      <trkpt lat="43.34122" lon="5.54696">
        <ele>670.3</ele>
        <time>2013-11-13T09:32:39Z</time>
      </trkpt>
      <trkpt lat="43.34127" lon="5.54692">
        <ele>671.1</ele>
        <time>2013-11-13T09:32:46Z</time>
      </trkpt>
      <trkpt lat="43.34129" lon="5.54687">
        <ele>671.6</ele>
        <time>2013-11-13T09:32:51Z</time>
      </trkpt>
      <trkpt lat="43.34133" lon="5.54683">
        <ele>672.3</ele>
        <time>2013-11-13T09:32:58Z</time>
      </trkpt>
      <trkpt lat="43.34137" lon="5.54679">
        <ele>672.8</ele>
        <time>2013-11-13T09:33:03Z</time>
      </trkpt>
      <trkpt lat="43.3414" lon="5.54674">
        <ele>673.3</ele>
        <time>2013-11-13T09:33:08Z</time>
      </trkpt>
      <trkpt lat="43.34144" lon="5.5467">
        <ele>674</ele>
        <time>2013-11-13T09:33:15Z</time>
      </trkpt>
      <trkpt lat="43.34146" lon="5.54664">
        <ele>674.3</ele>
        <time>2013-11-13T09:33:19Z</time>
      </trkpt>
      <trkpt lat="43.34149" lon="5.5466">
        <ele>674.8</ele>
        <time>2013-11-13T09:33:24Z</time>
      </trkpt>
      <trkpt lat="43.3415" lon="5.54654">
        <ele>674.9</ele>
        <time>2013-11-13T09:33:28Z</time>
      </trkpt>
      <trkpt lat="43.34148" lon="5.54647">
        <ele>674.6</ele>
        <time>2013-11-13T09:33:31Z</time>
      </trkpt>
      <trkpt lat="43.34146" lon="5.54642">
        <ele>674.1</ele>
        <time>2013-11-13T09:33:35Z</time>
      </trkpt>
      <trkpt lat="43.34143" lon="5.54636">
        <ele>673.6</ele>
        <time>2013-11-13T09:33:38Z</time>
      </trkpt>
      <trkpt lat="43.34148" lon="5.54636">
        <ele>674.4</ele>
        <time>2013-11-13T09:33:45Z</time>
      </trkpt>
      <trkpt lat="43.34144" lon="5.54632">
        <ele>673.8</ele>
        <time>2013-11-13T09:33:48Z</time>
      </trkpt>
      <trkpt lat="43.34147" lon="5.54637">
        <ele>674.2</ele>
        <time>2013-11-13T09:33:53Z</time>
      </trkpt>
      <trkpt lat="43.34142" lon="5.54637">
        <ele>673.4</ele>
        <time>2013-11-13T09:33:57Z</time>
      </trkpt>
      <trkpt lat="43.34146" lon="5.54634">
        <ele>674.1</ele>
        <time>2013-11-13T09:34:03Z</time>
      </trkpt>
      <trkpt lat="43.34145" lon="5.54627">
        <ele>673.9</ele>
        <time>2013-11-13T09:34:07Z</time>
      </trkpt>
      <trkpt lat="43.34145" lon="5.5462">
        <ele>673.8</ele>
        <time>2013-11-13T09:34:11Z</time>
      </trkpt>
      <trkpt lat="43.34142" lon="5.54614">
        <ele>673.3</ele>
        <time>2013-11-13T09:34:14Z</time>
      </trkpt>
      <trkpt lat="43.3414" lon="5.54609">
        <ele>672.9</ele>
        <time>2013-11-13T09:34:17Z</time>
      </trkpt>
      <trkpt lat="43.34137" lon="5.54603">
        <ele>672.4</ele>
        <time>2013-11-13T09:34:21Z</time>
      </trkpt>
      <trkpt lat="43.3414" lon="5.54597">
        <ele>672.9</ele>
        <time>2013-11-13T09:34:27Z</time>
      </trkpt>
      <trkpt lat="43.34142" lon="5.5459">
        <ele>673.1</ele>
        <time>2013-11-13T09:34:31Z</time>
      </trkpt>
      <trkpt lat="43.34142" lon="5.54582">
        <ele>673.2</ele>
        <time>2013-11-13T09:34:36Z</time>
      </trkpt>
      <trkpt lat="43.34143" lon="5.54575">
        <ele>673.3</ele>
        <time>2013-11-13T09:34:40Z</time>
      </trkpt>
      <trkpt lat="43.34143" lon="5.54568">
        <ele>673.3</ele>
        <time>2013-11-13T09:34:44Z</time>
      </trkpt>
      <trkpt lat="43.34145" lon="5.54562">
        <ele>673.7</ele>
        <time>2013-11-13T09:34:49Z</time>
      </trkpt>
      <trkpt lat="43.34147" lon="5.54555">
        <ele>674</ele>
        <time>2013-11-13T09:34:54Z</time>
      </trkpt>
      <trkpt lat="43.34149" lon="5.54549">
        <ele>674.5</ele>
        <time>2013-11-13T09:35:00Z</time>
      </trkpt>
      <trkpt lat="43.34153" lon="5.54544">
        <ele>675</ele>
        <time>2013-11-13T09:35:05Z</time>
      </trkpt>
      <trkpt lat="43.34158" lon="5.54541">
        <ele>675.7</ele>
        <time>2013-11-13T09:35:12Z</time>
      </trkpt>
      <trkpt lat="43.34163" lon="5.54541">
        <ele>676.5</ele>
        <time>2013-11-13T09:35:19Z</time>
      </trkpt>
      <trkpt lat="43.34168" lon="5.54543">
        <ele>677.2</ele>
        <time>2013-11-13T09:35:25Z</time>
      </trkpt>
      <trkpt lat="43.34173" lon="5.54542">
        <ele>677.9</ele>
        <time>2013-11-13T09:35:31Z</time>
      </trkpt>
      <trkpt lat="43.34178" lon="5.54541">
        <ele>678.7</ele>
        <time>2013-11-13T09:35:38Z</time>
      </trkpt>
      <trkpt lat="43.34183" lon="5.54539">
        <ele>679.3</ele>
        <time>2013-11-13T09:35:44Z</time>
      </trkpt>
      <trkpt lat="43.34187" lon="5.54536">
        <ele>680</ele>
        <time>2013-11-13T09:35:51Z</time>
      </trkpt>
      <trkpt lat="43.34192" lon="5.54535">
        <ele>680.7</ele>
        <time>2013-11-13T09:35:57Z</time>
      </trkpt>
      <trkpt lat="43.34196" lon="5.54538">
        <ele>681.4</ele>
        <time>2013-11-13T09:36:04Z</time>
      </trkpt>
      <trkpt lat="43.34199" lon="5.54544">
        <ele>681.9</ele>
        <time>2013-11-13T09:36:09Z</time>
      </trkpt>
      <trkpt lat="43.34202" lon="5.54551">
        <ele>682.5</ele>
        <time>2013-11-13T09:36:15Z</time>
      </trkpt>
      <trkpt lat="43.34204" lon="5.54556">
        <ele>683</ele>
        <time>2013-11-13T09:36:21Z</time>
      </trkpt>
      <trkpt lat="43.34206" lon="5.54562">
        <ele>683.5</ele>
        <time>2013-11-13T09:36:26Z</time>
      </trkpt>
      <trkpt lat="43.34209" lon="5.54568">
        <ele>684.2</ele>
        <time>2013-11-13T09:36:32Z</time>
      </trkpt>
      <trkpt lat="43.34211" lon="5.54574">
        <ele>684.6</ele>
        <time>2013-11-13T09:36:37Z</time>
      </trkpt>
      <trkpt lat="43.34211" lon="5.5458">
        <ele>684.9</ele>
        <time>2013-11-13T09:36:41Z</time>
      </trkpt>
      <trkpt lat="43.34211" lon="5.54587">
        <ele>685</ele>
        <time>2013-11-13T09:36:46Z</time>
      </trkpt>
      <trkpt lat="43.34212" lon="5.54594">
        <ele>685.2</ele>
        <time>2013-11-13T09:36:50Z</time>
      </trkpt>
      <trkpt lat="43.34214" lon="5.546">
        <ele>685.5</ele>
        <time>2013-11-13T09:36:55Z</time>
      </trkpt>
      <trkpt lat="43.34216" lon="5.54606">
        <ele>685.9</ele>
        <time>2013-11-13T09:37:00Z</time>
      </trkpt>
      <trkpt lat="43.34218" lon="5.54613">
        <ele>686.2</ele>
        <time>2013-11-13T09:37:05Z</time>
      </trkpt>
      <trkpt lat="43.3422" lon="5.54619">
        <ele>686.5</ele>
        <time>2013-11-13T09:37:09Z</time>
      </trkpt>
      <trkpt lat="43.34223" lon="5.54624">
        <ele>686.9</ele>
        <time>2013-11-13T09:37:14Z</time>
      </trkpt>
      <trkpt lat="43.34226" lon="5.54629">
        <ele>687.4</ele>
        <time>2013-11-13T09:37:19Z</time>
      </trkpt>
      <trkpt lat="43.34229" lon="5.54633">
        <ele>688</ele>
        <time>2013-11-13T09:37:25Z</time>
      </trkpt>
      <trkpt lat="43.34233" lon="5.54638">
        <ele>688.5</ele>
        <time>2013-11-13T09:37:30Z</time>
      </trkpt>
      <trkpt lat="43.34237" lon="5.54644">
        <ele>689.1</ele>
        <time>2013-11-13T09:37:37Z</time>
      </trkpt>
      <trkpt lat="43.34241" lon="5.54647">
        <ele>689.8</ele>
        <time>2013-11-13T09:37:43Z</time>
      </trkpt>
      <trkpt lat="43.34246" lon="5.54648">
        <ele>690.6</ele>
        <time>2013-11-13T09:37:50Z</time>
      </trkpt>
      <trkpt lat="43.3425" lon="5.54652">
        <ele>691.2</ele>
        <time>2013-11-13T09:37:56Z</time>
      </trkpt>
      <trkpt lat="43.34255" lon="5.54656">
        <ele>691.9</ele>
        <time>2013-11-13T09:38:02Z</time>
      </trkpt>
      <trkpt lat="43.3426" lon="5.54656">
        <ele>692.7</ele>
        <time>2013-11-13T09:38:09Z</time>
      </trkpt>
      <trkpt lat="43.34264" lon="5.54658">
        <ele>693.4</ele>
        <time>2013-11-13T09:38:15Z</time>
      </trkpt>
      <trkpt lat="43.34268" lon="5.54661">
        <ele>694.1</ele>
        <time>2013-11-13T09:38:21Z</time>
      </trkpt>
      <trkpt lat="43.34273" lon="5.54663">
        <ele>694.8</ele>
        <time>2013-11-13T09:38:28Z</time>
      </trkpt>
      <trkpt lat="43.34277" lon="5.54664">
        <ele>695.6</ele>
        <time>2013-11-13T09:38:34Z</time>
      </trkpt>
      <trkpt lat="43.34283" lon="5.54665">
        <ele>696.5</ele>
        <time>2013-11-13T09:38:42Z</time>
      </trkpt>
      <trkpt lat="43.34288" lon="5.54666">
        <ele>697.3</ele>
        <time>2013-11-13T09:38:49Z</time>
      </trkpt>
      <trkpt lat="43.34291" lon="5.54672">
        <ele>698</ele>
        <time>2013-11-13T09:38:55Z</time>
      </trkpt>
      <trkpt lat="43.34292" lon="5.54678">
        <ele>698.3</ele>
        <time>2013-11-13T09:39:00Z</time>
      </trkpt>
      <trkpt lat="43.34293" lon="5.54686">
        <ele>698.7</ele>
        <time>2013-11-13T09:39:05Z</time>
      </trkpt>
      <trkpt lat="43.34294" lon="5.54692">
        <ele>699.1</ele>
        <time>2013-11-13T09:39:10Z</time>
      </trkpt>
      <trkpt lat="43.34295" lon="5.54699">
        <ele>699.5</ele>
        <time>2013-11-13T09:39:15Z</time>
      </trkpt>
      <trkpt lat="43.34296" lon="5.54706">
        <ele>699.8</ele>
        <time>2013-11-13T09:39:20Z</time>
      </trkpt>
      <trkpt lat="43.34296" lon="5.54713">
        <ele>700</ele>
        <time>2013-11-13T09:39:25Z</time>
      </trkpt>
      <trkpt lat="43.34296" lon="5.54721">
        <ele>700.2</ele>
        <time>2013-11-13T09:39:29Z</time>
      </trkpt>
      <trkpt lat="43.34295" lon="5.54727">
        <ele>700.3</ele>
        <time>2013-11-13T09:39:34Z</time>
      </trkpt>
      <trkpt lat="43.34295" lon="5.54734">
        <ele>700.5</ele>
        <time>2013-11-13T09:39:38Z</time>
      </trkpt>
      <trkpt lat="43.34294" lon="5.54741">
        <ele>700.5</ele>
        <time>2013-11-13T09:39:42Z</time>
      </trkpt>
      <trkpt lat="43.34294" lon="5.54748">
        <ele>700.8</ele>
        <time>2013-11-13T09:39:46Z</time>
      </trkpt>
      <trkpt lat="43.34296" lon="5.54754">
        <ele>701.2</ele>
        <time>2013-11-13T09:39:51Z</time>
      </trkpt>
      <trkpt lat="43.34298" lon="5.5476">
        <ele>701.7</ele>
        <time>2013-11-13T09:39:57Z</time>
      </trkpt>
      <trkpt lat="43.34301" lon="5.54765">
        <ele>702.3</ele>
        <time>2013-11-13T09:40:03Z</time>
      </trkpt>
      <trkpt lat="43.34306" lon="5.54766">
        <ele>702.9</ele>
        <time>2013-11-13T09:40:08Z</time>
      </trkpt>
      <trkpt lat="43.3431" lon="5.54765">
        <ele>703.4</ele>
        <time>2013-11-13T09:40:14Z</time>
      </trkpt>
      <trkpt lat="43.34315" lon="5.54763">
        <ele>704</ele>
        <time>2013-11-13T09:40:20Z</time>
      </trkpt>
      <trkpt lat="43.3432" lon="5.54761">
        <ele>704.5</ele>
        <time>2013-11-13T09:40:25Z</time>
      </trkpt>
      <trkpt lat="43.34324" lon="5.54759">
        <ele>705.1</ele>
        <time>2013-11-13T09:40:31Z</time>
      </trkpt>
      <trkpt lat="43.34329" lon="5.54759">
        <ele>705.7</ele>
        <time>2013-11-13T09:40:36Z</time>
      </trkpt>
      <trkpt lat="43.34334" lon="5.5476">
        <ele>706.3</ele>
        <time>2013-11-13T09:40:43Z</time>
      </trkpt>
      <trkpt lat="43.34339" lon="5.54762">
        <ele>706.6</ele>
        <time>2013-11-13T09:40:47Z</time>
      </trkpt>
      <trkpt lat="43.34344" lon="5.54759">
        <ele>706.8</ele>
        <time>2013-11-13T09:40:52Z</time>
      </trkpt>
      <trkpt lat="43.34348" lon="5.54757">
        <ele>707</ele>
        <time>2013-11-13T09:40:56Z</time>
      </trkpt>
      <trkpt lat="43.34353" lon="5.54753">
        <ele>707.2</ele>
        <time>2013-11-13T09:41:00Z</time>
      </trkpt>
      <trkpt lat="43.34357" lon="5.54748">
        <ele>707.4</ele>
        <time>2013-11-13T09:41:05Z</time>
      </trkpt>
      <trkpt lat="43.34362" lon="5.54747">
        <ele>707.7</ele>
        <time>2013-11-13T09:41:10Z</time>
      </trkpt>
      <trkpt lat="43.34366" lon="5.54747">
        <ele>708</ele>
        <time>2013-11-13T09:41:14Z</time>
      </trkpt>
      <trkpt lat="43.34371" lon="5.54744">
        <ele>708.3</ele>
        <time>2013-11-13T09:41:19Z</time>
      </trkpt>
      <trkpt lat="43.34375" lon="5.54742">
        <ele>708.5</ele>
        <time>2013-11-13T09:41:23Z</time>
      </trkpt>
      <trkpt lat="43.3438" lon="5.54739">
        <ele>708.8</ele>
        <time>2013-11-13T09:41:27Z</time>
      </trkpt>
      <trkpt lat="43.34384" lon="5.54735">
        <ele>709.1</ele>
        <time>2013-11-13T09:41:32Z</time>
      </trkpt>
      <trkpt lat="43.34388" lon="5.54733">
        <ele>709.3</ele>
        <time>2013-11-13T09:41:36Z</time>
      </trkpt>
      <trkpt lat="43.34393" lon="5.5473">
        <ele>709.7</ele>
        <time>2013-11-13T09:41:41Z</time>
      </trkpt>
      <trkpt lat="43.34397" lon="5.54727">
        <ele>710</ele>
        <time>2013-11-13T09:41:45Z</time>
      </trkpt>
      <trkpt lat="43.34402" lon="5.54725">
        <ele>710.3</ele>
        <time>2013-11-13T09:41:50Z</time>
      </trkpt>
      <trkpt lat="43.34407" lon="5.54724">
        <ele>710.6</ele>
        <time>2013-11-13T09:41:55Z</time>
      </trkpt>
      <trkpt lat="43.34412" lon="5.54725">
        <ele>711</ele>
        <time>2013-11-13T09:42:00Z</time>
      </trkpt>
      <trkpt lat="43.34417" lon="5.54726">
        <ele>711.3</ele>
        <time>2013-11-13T09:42:04Z</time>
      </trkpt>
      <trkpt lat="43.34419" lon="5.54732">
        <ele>710.7</ele>
        <time>2013-11-13T09:42:08Z</time>
      </trkpt>
      <trkpt lat="43.34421" lon="5.54738">
        <ele>710.2</ele>
        <time>2013-11-13T09:42:11Z</time>
      </trkpt>
      <trkpt lat="43.34423" lon="5.54744">
        <ele>709.8</ele>
        <time>2013-11-13T09:42:14Z</time>
      </trkpt>
      <trkpt lat="43.34423" lon="5.54751">
        <ele>709.6</ele>
        <time>2013-11-13T09:42:18Z</time>
      </trkpt>
      <trkpt lat="43.34425" lon="5.54758">
        <ele>709.5</ele>
        <time>2013-11-13T09:42:22Z</time>
      </trkpt>
      <trkpt lat="43.34426" lon="5.54764">
        <ele>709.4</ele>
        <time>2013-11-13T09:42:26Z</time>
      </trkpt>
      <trkpt lat="43.34425" lon="5.54772">
        <ele>709.7</ele>
        <time>2013-11-13T09:42:31Z</time>
      </trkpt>
      <trkpt lat="43.34424" lon="5.54779">
        <ele>710.1</ele>
        <time>2013-11-13T09:42:36Z</time>
      </trkpt>
      <trkpt lat="43.34422" lon="5.54785">
        <ele>710.6</ele>
        <time>2013-11-13T09:42:41Z</time>
      </trkpt>
      <trkpt lat="43.3442" lon="5.5479">
        <ele>711.2</ele>
        <time>2013-11-13T09:42:47Z</time>
      </trkpt>
      <trkpt lat="43.34417" lon="5.54796">
        <ele>712</ele>
        <time>2013-11-13T09:42:54Z</time>
      </trkpt>
      <trkpt lat="43.34415" lon="5.54802">
        <ele>712.1</ele>
        <time>2013-11-13T09:42:57Z</time>
      </trkpt>
      <trkpt lat="43.34414" lon="5.54808">
        <ele>712.2</ele>
        <time>2013-11-13T09:43:02Z</time>
      </trkpt>
      <trkpt lat="43.34413" lon="5.54816">
        <ele>712.4</ele>
        <time>2013-11-13T09:43:06Z</time>
      </trkpt>
      <trkpt lat="43.34413" lon="5.54823">
        <ele>712.5</ele>
        <time>2013-11-13T09:43:11Z</time>
      </trkpt>
      <trkpt lat="43.34412" lon="5.54829">
        <ele>712.6</ele>
        <time>2013-11-13T09:43:14Z</time>
      </trkpt>
      <trkpt lat="43.34411" lon="5.54835">
        <ele>712.8</ele>
        <time>2013-11-13T09:43:19Z</time>
      </trkpt>
      <trkpt lat="43.3441" lon="5.54841">
        <ele>713.1</ele>
        <time>2013-11-13T09:43:23Z</time>
      </trkpt>
      <trkpt lat="43.34405" lon="5.54842">
        <ele>712.9</ele>
        <time>2013-11-13T09:43:27Z</time>
      </trkpt>
      <trkpt lat="43.344" lon="5.54839">
        <ele>712.4</ele>
        <time>2013-11-13T09:43:30Z</time>
      </trkpt>
      <trkpt lat="43.34395" lon="5.54836">
        <ele>712</ele>
        <time>2013-11-13T09:43:34Z</time>
      </trkpt>
      <trkpt lat="43.3439" lon="5.54837">
        <ele>711.7</ele>
        <time>2013-11-13T09:43:37Z</time>
      </trkpt>
      <trkpt lat="43.34386" lon="5.5484">
        <ele>711.7</ele>
        <time>2013-11-13T09:43:41Z</time>
      </trkpt>
      <trkpt lat="43.34382" lon="5.54844">
        <ele>711.7</ele>
        <time>2013-11-13T09:43:45Z</time>
      </trkpt>
      <trkpt lat="43.34377" lon="5.54848">
        <ele>711.7</ele>
        <time>2013-11-13T09:43:50Z</time>
      </trkpt>
      <trkpt lat="43.34372" lon="5.54851">
        <ele>711.7</ele>
        <time>2013-11-13T09:43:54Z</time>
      </trkpt>
      <trkpt lat="43.34368" lon="5.54853">
        <ele>711.6</ele>
        <time>2013-11-13T09:43:57Z</time>
      </trkpt>
      <trkpt lat="43.34363" lon="5.54855">
        <ele>711.5</ele>
        <time>2013-11-13T09:44:01Z</time>
      </trkpt>
      <trkpt lat="43.34358" lon="5.54857">
        <ele>711.3</ele>
        <time>2013-11-13T09:44:05Z</time>
      </trkpt>
      <trkpt lat="43.34353" lon="5.54857">
        <ele>711.2</ele>
        <time>2013-11-13T09:44:08Z</time>
      </trkpt>
      <trkpt lat="43.34349" lon="5.54859">
        <ele>711</ele>
        <time>2013-11-13T09:44:11Z</time>
      </trkpt>
      <trkpt lat="43.34344" lon="5.54859">
        <ele>710.7</ele>
        <time>2013-11-13T09:44:15Z</time>
      </trkpt>
      <trkpt lat="43.34339" lon="5.54859">
        <ele>710.5</ele>
        <time>2013-11-13T09:44:18Z</time>
      </trkpt>
      <trkpt lat="43.34335" lon="5.54861">
        <ele>710.4</ele>
        <time>2013-11-13T09:44:21Z</time>
      </trkpt>
      <trkpt lat="43.3433" lon="5.54862">
        <ele>710</ele>
        <time>2013-11-13T09:44:25Z</time>
      </trkpt>
      <trkpt lat="43.34325" lon="5.54863">
        <ele>709.5</ele>
        <time>2013-11-13T09:44:28Z</time>
      </trkpt>
      <trkpt lat="43.3432" lon="5.54866">
        <ele>709.1</ele>
        <time>2013-11-13T09:44:32Z</time>
      </trkpt>
      <trkpt lat="43.34315" lon="5.54868">
        <ele>708.7</ele>
        <time>2013-11-13T09:44:36Z</time>
      </trkpt>
      <trkpt lat="43.34311" lon="5.54873">
        <ele>708.4</ele>
        <time>2013-11-13T09:44:39Z</time>
      </trkpt>
      <trkpt lat="43.34305" lon="5.54875">
        <ele>708</ele>
        <time>2013-11-13T09:44:43Z</time>
      </trkpt>
      <trkpt lat="43.343" lon="5.54878">
        <ele>707.5</ele>
        <time>2013-11-13T09:44:47Z</time>
      </trkpt>
      <trkpt lat="43.34294" lon="5.54879">
        <ele>706.8</ele>
        <time>2013-11-13T09:44:51Z</time>
      </trkpt>
      <trkpt lat="43.34289" lon="5.54881">
        <ele>706.3</ele>
        <time>2013-11-13T09:44:55Z</time>
      </trkpt>
      <trkpt lat="43.34284" lon="5.54883">
        <ele>705.8</ele>
        <time>2013-11-13T09:44:58Z</time>
      </trkpt>
      <trkpt lat="43.3428" lon="5.54884">
        <ele>705.3</ele>
        <time>2013-11-13T09:45:02Z</time>
      </trkpt>
      <trkpt lat="43.34275" lon="5.54886">
        <ele>704.8</ele>
        <time>2013-11-13T09:45:05Z</time>
      </trkpt>
      <trkpt lat="43.3427" lon="5.54886">
        <ele>704.2</ele>
        <time>2013-11-13T09:45:09Z</time>
      </trkpt>
      <trkpt lat="43.34266" lon="5.54887">
        <ele>703.6</ele>
        <time>2013-11-13T09:45:12Z</time>
      </trkpt>
      <trkpt lat="43.34261" lon="5.54887">
        <ele>703</ele>
        <time>2013-11-13T09:45:16Z</time>
      </trkpt>
      <trkpt lat="43.34255" lon="5.54889">
        <ele>702.4</ele>
        <time>2013-11-13T09:45:20Z</time>
      </trkpt>
      <trkpt lat="43.34251" lon="5.5489">
        <ele>701.8</ele>
        <time>2013-11-13T09:45:24Z</time>
      </trkpt>
      <trkpt lat="43.34245" lon="5.54891">
        <ele>701.1</ele>
        <time>2013-11-13T09:45:28Z</time>
      </trkpt>
      <trkpt lat="43.3424" lon="5.54893">
        <ele>700.6</ele>
        <time>2013-11-13T09:45:31Z</time>
      </trkpt>
      <trkpt lat="43.34236" lon="5.54895">
        <ele>700.1</ele>
        <time>2013-11-13T09:45:35Z</time>
      </trkpt>
      <trkpt lat="43.34231" lon="5.54898">
        <ele>699.7</ele>
        <time>2013-11-13T09:45:38Z</time>
      </trkpt>
      <trkpt lat="43.34227" lon="5.54901">
        <ele>699.3</ele>
        <time>2013-11-13T09:45:41Z</time>
      </trkpt>
      <trkpt lat="43.34223" lon="5.54904">
        <ele>699</ele>
        <time>2013-11-13T09:45:45Z</time>
      </trkpt>
      <trkpt lat="43.34218" lon="5.54907">
        <ele>698.6</ele>
        <time>2013-11-13T09:45:48Z</time>
      </trkpt>
      <trkpt lat="43.34214" lon="5.54911">
        <ele>698.3</ele>
        <time>2013-11-13T09:45:52Z</time>
      </trkpt>
      <trkpt lat="43.3421" lon="5.54915">
        <ele>698</ele>
        <time>2013-11-13T09:45:55Z</time>
      </trkpt>
      <trkpt lat="43.34205" lon="5.54917">
        <ele>697.7</ele>
        <time>2013-11-13T09:45:58Z</time>
      </trkpt>
      <trkpt lat="43.34201" lon="5.54918">
        <ele>697.3</ele>
        <time>2013-11-13T09:46:02Z</time>
      </trkpt>
      <trkpt lat="43.34196" lon="5.54919">
        <ele>696.8</ele>
        <time>2013-11-13T09:46:05Z</time>
      </trkpt>
      <trkpt lat="43.3419" lon="5.54919">
        <ele>696.1</ele>
        <time>2013-11-13T09:46:09Z</time>
      </trkpt>
      <trkpt lat="43.34185" lon="5.54918">
        <ele>695.4</ele>
        <time>2013-11-13T09:46:13Z</time>
      </trkpt>
      <trkpt lat="43.3418" lon="5.54918">
        <ele>694.7</ele>
        <time>2013-11-13T09:46:17Z</time>
      </trkpt>
      <trkpt lat="43.34174" lon="5.54917">
        <ele>694</ele>
        <time>2013-11-13T09:46:21Z</time>
      </trkpt>
      <trkpt lat="43.34169" lon="5.54916">
        <ele>693.2</ele>
        <time>2013-11-13T09:46:26Z</time>
      </trkpt>
      <trkpt lat="43.34165" lon="5.54913">
        <ele>692.5</ele>
        <time>2013-11-13T09:46:30Z</time>
      </trkpt>
      <trkpt lat="43.3416" lon="5.5491">
        <ele>691.7</ele>
        <time>2013-11-13T09:46:34Z</time>
      </trkpt>
      <trkpt lat="43.34155" lon="5.54908">
        <ele>691.1</ele>
        <time>2013-11-13T09:46:38Z</time>
      </trkpt>
      <trkpt lat="43.3415" lon="5.54906">
        <ele>690.4</ele>
        <time>2013-11-13T09:46:42Z</time>
      </trkpt>
      <trkpt lat="43.34145" lon="5.54905">
        <ele>689.7</ele>
        <time>2013-11-13T09:46:46Z</time>
      </trkpt>
      <trkpt lat="43.3414" lon="5.54902">
        <ele>688.9</ele>
        <time>2013-11-13T09:46:50Z</time>
      </trkpt>
      <trkpt lat="43.34135" lon="5.54899">
        <ele>688.1</ele>
        <time>2013-11-13T09:46:55Z</time>
      </trkpt>
      <trkpt lat="43.34131" lon="5.54895">
        <ele>687.2</ele>
        <time>2013-11-13T09:46:59Z</time>
      </trkpt>
      <trkpt lat="43.34126" lon="5.54891">
        <ele>686.2</ele>
        <time>2013-11-13T09:47:04Z</time>
      </trkpt>
      <trkpt lat="43.34122" lon="5.54886">
        <ele>685.2</ele>
        <time>2013-11-13T09:47:09Z</time>
      </trkpt>
      <trkpt lat="43.34119" lon="5.54882">
        <ele>684.3</ele>
        <time>2013-11-13T09:47:13Z</time>
      </trkpt>
      <trkpt lat="43.34114" lon="5.54879">
        <ele>683.3</ele>
        <time>2013-11-13T09:47:18Z</time>
      </trkpt>
      <trkpt lat="43.3411" lon="5.54876">
        <ele>682.4</ele>
        <time>2013-11-13T09:47:23Z</time>
      </trkpt>
      <trkpt lat="43.34105" lon="5.54872">
        <ele>681.3</ele>
        <time>2013-11-13T09:47:28Z</time>
      </trkpt>
      <trkpt lat="43.34101" lon="5.54868">
        <ele>680.3</ele>
        <time>2013-11-13T09:47:33Z</time>
      </trkpt>
      <trkpt lat="43.34097" lon="5.54862">
        <ele>679.1</ele>
        <time>2013-11-13T09:47:39Z</time>
      </trkpt>
      <trkpt lat="43.34093" lon="5.54858">
        <ele>677.9</ele>
        <time>2013-11-13T09:47:45Z</time>
      </trkpt>
      <trkpt lat="43.34088" lon="5.54854">
        <ele>676.6</ele>
        <time>2013-11-13T09:47:51Z</time>
      </trkpt>
      <trkpt lat="43.34084" lon="5.5485">
        <ele>675.4</ele>
        <time>2013-11-13T09:47:57Z</time>
      </trkpt>
      <trkpt lat="43.3408" lon="5.54846">
        <ele>674.4</ele>
        <time>2013-11-13T09:48:01Z</time>
      </trkpt>
      <trkpt lat="43.34074" lon="5.54844">
        <ele>673.2</ele>
        <time>2013-11-13T09:48:07Z</time>
      </trkpt>
      <trkpt lat="43.34069" lon="5.54844">
        <ele>672.3</ele>
        <time>2013-11-13T09:48:12Z</time>
      </trkpt>
      <trkpt lat="43.34065" lon="5.54843">
        <ele>671.5</ele>
        <time>2013-11-13T09:48:16Z</time>
      </trkpt>
      <trkpt lat="43.3406" lon="5.54844">
        <ele>671</ele>
        <time>2013-11-13T09:48:20Z</time>
      </trkpt>
      <trkpt lat="43.34055" lon="5.54846">
        <ele>670.4</ele>
        <time>2013-11-13T09:48:23Z</time>
      </trkpt>
      <trkpt lat="43.3405" lon="5.54844">
        <ele>669.5</ele>
        <time>2013-11-13T09:48:28Z</time>
      </trkpt>
      <trkpt lat="43.34048" lon="5.54838">
        <ele>668.5</ele>
        <time>2013-11-13T09:48:33Z</time>
      </trkpt>
      <trkpt lat="43.3405" lon="5.5483">
        <ele>667.7</ele>
        <time>2013-11-13T09:48:37Z</time>
      </trkpt>
      <trkpt lat="43.34051" lon="5.54824">
        <ele>667</ele>
        <time>2013-11-13T09:48:41Z</time>
      </trkpt>
      <trkpt lat="43.34051" lon="5.54818">
        <ele>666.1</ele>
        <time>2013-11-13T09:48:45Z</time>
      </trkpt>
      <trkpt lat="43.3405" lon="5.54811">
        <ele>665</ele>
        <time>2013-11-13T09:48:51Z</time>
      </trkpt>
      <trkpt lat="43.34046" lon="5.54806">
        <ele>663.7</ele>
        <time>2013-11-13T09:48:57Z</time>
      </trkpt>
      <trkpt lat="43.34041" lon="5.54805">
        <ele>662.8</ele>
        <time>2013-11-13T09:49:01Z</time>
      </trkpt>
      <trkpt lat="43.34036" lon="5.54807">
        <ele>662.4</ele>
        <time>2013-11-13T09:49:05Z</time>
      </trkpt>
      <trkpt lat="43.34032" lon="5.5481">
        <ele>662.1</ele>
        <time>2013-11-13T09:49:08Z</time>
      </trkpt>
      <trkpt lat="43.34027" lon="5.54812">
        <ele>661.6</ele>
        <time>2013-11-13T09:49:12Z</time>
      </trkpt>
      <trkpt lat="43.34022" lon="5.54813">
        <ele>661</ele>
        <time>2013-11-13T09:49:16Z</time>
      </trkpt>
      <trkpt lat="43.34017" lon="5.54814">
        <ele>660.5</ele>
        <time>2013-11-13T09:49:19Z</time>
      </trkpt>
      <trkpt lat="43.34013" lon="5.54816">
        <ele>660.2</ele>
        <time>2013-11-13T09:49:22Z</time>
      </trkpt>
      <trkpt lat="43.34008" lon="5.54818">
        <ele>659.7</ele>
        <time>2013-11-13T09:49:26Z</time>
      </trkpt>
      <trkpt lat="43.34003" lon="5.54819">
        <ele>659.3</ele>
        <time>2013-11-13T09:49:29Z</time>
      </trkpt>
      <trkpt lat="43.33998" lon="5.54822">
        <ele>659.1</ele>
        <time>2013-11-13T09:49:33Z</time>
      </trkpt>
      <trkpt lat="43.33994" lon="5.54826">
        <ele>659.1</ele>
        <time>2013-11-13T09:49:37Z</time>
      </trkpt>
      <trkpt lat="43.3399" lon="5.5483">
        <ele>659.2</ele>
        <time>2013-11-13T09:49:41Z</time>
      </trkpt>
      <trkpt lat="43.33986" lon="5.54834">
        <ele>659.2</ele>
        <time>2013-11-13T09:49:45Z</time>
      </trkpt>
      <trkpt lat="43.33982" lon="5.54838">
        <ele>658.9</ele>
        <time>2013-11-13T09:49:48Z</time>
      </trkpt>
      <trkpt lat="43.33978" lon="5.54842">
        <ele>658.7</ele>
        <time>2013-11-13T09:49:52Z</time>
      </trkpt>
      <trkpt lat="43.33973" lon="5.54845">
        <ele>658.2</ele>
        <time>2013-11-13T09:49:56Z</time>
      </trkpt>
      <trkpt lat="43.33969" lon="5.5484">
        <ele>657.3</ele>
        <time>2013-11-13T09:50:00Z</time>
      </trkpt>
      <trkpt lat="43.33967" lon="5.54834">
        <ele>656.7</ele>
        <time>2013-11-13T09:50:04Z</time>
      </trkpt>
      <trkpt lat="43.33965" lon="5.54829">
        <ele>655.8</ele>
        <time>2013-11-13T09:50:08Z</time>
      </trkpt>
      <trkpt lat="43.3396" lon="5.54828">
        <ele>655.1</ele>
        <time>2013-11-13T09:50:12Z</time>
      </trkpt>
      <trkpt lat="43.33955" lon="5.54829">
        <ele>654.6</ele>
        <time>2013-11-13T09:50:16Z</time>
      </trkpt>
      <trkpt lat="43.3395" lon="5.54829">
        <ele>654</ele>
        <time>2013-11-13T09:50:20Z</time>
      </trkpt>
      <trkpt lat="43.33945" lon="5.54829">
        <ele>653.4</ele>
        <time>2013-11-13T09:50:23Z</time>
      </trkpt>
      <trkpt lat="43.33941" lon="5.5483">
        <ele>652.9</ele>
        <time>2013-11-13T09:50:26Z</time>
      </trkpt>
      <trkpt lat="43.33936" lon="5.54831">
        <ele>652.3</ele>
        <time>2013-11-13T09:50:30Z</time>
      </trkpt>
      <trkpt lat="43.33931" lon="5.54832">
        <ele>651.8</ele>
        <time>2013-11-13T09:50:33Z</time>
      </trkpt>
      <trkpt lat="43.33926" lon="5.54832">
        <ele>651.1</ele>
        <time>2013-11-13T09:50:38Z</time>
      </trkpt>
      <trkpt lat="43.33921" lon="5.54832">
        <ele>650.4</ele>
        <time>2013-11-13T09:50:41Z</time>
      </trkpt>
      <trkpt lat="43.33916" lon="5.54832">
        <ele>649.8</ele>
        <time>2013-11-13T09:50:45Z</time>
      </trkpt>
      <trkpt lat="43.33911" lon="5.54832">
        <ele>649.3</ele>
        <time>2013-11-13T09:50:49Z</time>
      </trkpt>
      <trkpt lat="43.33906" lon="5.54831">
        <ele>648.7</ele>
        <time>2013-11-13T09:50:52Z</time>
      </trkpt>
      <trkpt lat="43.33901" lon="5.54831">
        <ele>648.2</ele>
        <time>2013-11-13T09:50:56Z</time>
      </trkpt>
      <trkpt lat="43.33895" lon="5.54831">
        <ele>647.6</ele>
        <time>2013-11-13T09:51:00Z</time>
      </trkpt>
      <trkpt lat="43.3389" lon="5.54831">
        <ele>647.1</ele>
        <time>2013-11-13T09:51:03Z</time>
      </trkpt>
      <trkpt lat="43.33886" lon="5.54831">
        <ele>646.6</ele>
        <time>2013-11-13T09:51:07Z</time>
      </trkpt>
      <trkpt lat="43.33881" lon="5.54831">
        <ele>646</ele>
        <time>2013-11-13T09:51:10Z</time>
      </trkpt>
      <trkpt lat="43.33876" lon="5.54831">
        <ele>645.5</ele>
        <time>2013-11-13T09:51:14Z</time>
      </trkpt>
      <trkpt lat="43.33871" lon="5.54832">
        <ele>645</ele>
        <time>2013-11-13T09:51:17Z</time>
      </trkpt>
      <trkpt lat="43.33867" lon="5.5483">
        <ele>644.5</ele>
        <time>2013-11-13T09:51:20Z</time>
      </trkpt>
      <trkpt lat="43.33861" lon="5.5483">
        <ele>644</ele>
        <time>2013-11-13T09:51:24Z</time>
      </trkpt>
      <trkpt lat="43.33857" lon="5.54829">
        <ele>643.5</ele>
        <time>2013-11-13T09:51:27Z</time>
      </trkpt>
      <trkpt lat="43.33851" lon="5.54829">
        <ele>642.9</ele>
        <time>2013-11-13T09:51:31Z</time>
      </trkpt>
      <trkpt lat="43.33847" lon="5.54829">
        <ele>642.4</ele>
        <time>2013-11-13T09:51:35Z</time>
      </trkpt>
      <trkpt lat="43.33841" lon="5.5483">
        <ele>641.8</ele>
        <time>2013-11-13T09:51:39Z</time>
      </trkpt>
      <trkpt lat="43.33836" lon="5.54829">
        <ele>641.3</ele>
        <time>2013-11-13T09:51:42Z</time>
      </trkpt>
      <trkpt lat="43.33831" lon="5.54828">
        <ele>640.9</ele>
        <time>2013-11-13T09:51:46Z</time>
      </trkpt>
      <trkpt lat="43.33826" lon="5.54824">
        <ele>640.7</ele>
        <time>2013-11-13T09:51:50Z</time>
      </trkpt>
      <trkpt lat="43.33823" lon="5.5482">
        <ele>640.5</ele>
        <time>2013-11-13T09:51:53Z</time>
      </trkpt>
      <trkpt lat="43.33818" lon="5.54818">
        <ele>640.3</ele>
        <time>2013-11-13T09:51:56Z</time>
      </trkpt>
      <trkpt lat="43.33812" lon="5.54816">
        <ele>640</ele>
        <time>2013-11-13T09:52:00Z</time>
      </trkpt>
      <trkpt lat="43.33808" lon="5.54816">
        <ele>639.8</ele>
        <time>2013-11-13T09:52:04Z</time>
      </trkpt>
      <trkpt lat="43.33803" lon="5.54815">
        <ele>639.6</ele>
        <time>2013-11-13T09:52:07Z</time>
      </trkpt>
      <trkpt lat="43.33797" lon="5.54815">
        <ele>639.3</ele>
        <time>2013-11-13T09:52:11Z</time>
      </trkpt>
      <trkpt lat="43.33792" lon="5.54816">
        <ele>639.1</ele>
        <time>2013-11-13T09:52:14Z</time>
      </trkpt>
      <trkpt lat="43.33787" lon="5.54817">
        <ele>638.9</ele>
        <time>2013-11-13T09:52:18Z</time>
      </trkpt>
      <trkpt lat="43.33782" lon="5.54817">
        <ele>638.7</ele>
        <time>2013-11-13T09:52:22Z</time>
      </trkpt>
      <trkpt lat="43.33777" lon="5.54816">
        <ele>638.4</ele>
        <time>2013-11-13T09:52:25Z</time>
      </trkpt>
      <trkpt lat="43.33772" lon="5.54816">
        <ele>638.2</ele>
        <time>2013-11-13T09:52:29Z</time>
      </trkpt>
      <trkpt lat="43.33767" lon="5.54816">
        <ele>637.9</ele>
        <time>2013-11-13T09:52:32Z</time>
      </trkpt>
      <trkpt lat="43.33762" lon="5.54815">
        <ele>637.7</ele>
        <time>2013-11-13T09:52:36Z</time>
      </trkpt>
      <trkpt lat="43.33757" lon="5.54815">
        <ele>637.4</ele>
        <time>2013-11-13T09:52:39Z</time>
      </trkpt>
      <trkpt lat="43.33752" lon="5.54814">
        <ele>637.2</ele>
        <time>2013-11-13T09:52:43Z</time>
      </trkpt>
      <trkpt lat="43.33747" lon="5.54814">
        <ele>636.8</ele>
        <time>2013-11-13T09:52:46Z</time>
      </trkpt>
      <trkpt lat="43.33741" lon="5.54815">
        <ele>636.5</ele>
        <time>2013-11-13T09:52:50Z</time>
      </trkpt>
      <trkpt lat="43.33736" lon="5.54817">
        <ele>636.2</ele>
        <time>2013-11-13T09:52:54Z</time>
      </trkpt>
      <trkpt lat="43.33732" lon="5.54819">
        <ele>636</ele>
        <time>2013-11-13T09:52:57Z</time>
      </trkpt>
      <trkpt lat="43.33727" lon="5.54821">
        <ele>635.8</ele>
        <time>2013-11-13T09:53:01Z</time>
      </trkpt>
      <trkpt lat="43.33721" lon="5.54821">
        <ele>635.5</ele>
        <time>2013-11-13T09:53:05Z</time>
      </trkpt>
      <trkpt lat="43.33716" lon="5.54822">
        <ele>635.2</ele>
        <time>2013-11-13T09:53:08Z</time>
      </trkpt>
      <trkpt lat="43.33711" lon="5.54824">
        <ele>635</ele>
        <time>2013-11-13T09:53:12Z</time>
      </trkpt>
      <trkpt lat="43.33707" lon="5.54825">
        <ele>634.7</ele>
        <time>2013-11-13T09:53:15Z</time>
      </trkpt>
      <trkpt lat="43.33702" lon="5.54826">
        <ele>634.5</ele>
        <time>2013-11-13T09:53:18Z</time>
      </trkpt>
      <trkpt lat="43.33696" lon="5.54827">
        <ele>634.2</ele>
        <time>2013-11-13T09:53:22Z</time>
      </trkpt>
      <trkpt lat="43.33692" lon="5.54828">
        <ele>634</ele>
        <time>2013-11-13T09:53:25Z</time>
      </trkpt>
      <trkpt lat="43.33686" lon="5.54829">
        <ele>633.8</ele>
        <time>2013-11-13T09:53:29Z</time>
      </trkpt>
      <trkpt lat="43.33681" lon="5.5483">
        <ele>633.6</ele>
        <time>2013-11-13T09:53:33Z</time>
      </trkpt>
      <trkpt lat="43.33676" lon="5.54832">
        <ele>633.4</ele>
        <time>2013-11-13T09:53:37Z</time>
      </trkpt>
      <trkpt lat="43.33671" lon="5.54832">
        <ele>633.1</ele>
        <time>2013-11-13T09:53:41Z</time>
      </trkpt>
      <trkpt lat="43.33666" lon="5.54832">
        <ele>632.9</ele>
        <time>2013-11-13T09:53:44Z</time>
      </trkpt>
      <trkpt lat="43.3366" lon="5.54834">
        <ele>633</ele>
        <time>2013-11-13T09:53:49Z</time>
      </trkpt>
      <trkpt lat="43.33656" lon="5.54836">
        <ele>633</ele>
        <time>2013-11-13T09:53:52Z</time>
      </trkpt>
      <trkpt lat="43.33651" lon="5.54837">
        <ele>633</ele>
        <time>2013-11-13T09:53:56Z</time>
      </trkpt>
      <trkpt lat="43.33646" lon="5.54839">
        <ele>633</ele>
        <time>2013-11-13T09:54:00Z</time>
      </trkpt>
      <trkpt lat="43.33642" lon="5.54841">
        <ele>633.1</ele>
        <time>2013-11-13T09:54:04Z</time>
      </trkpt>
      <trkpt lat="43.33637" lon="5.54844">
        <ele>633.1</ele>
        <time>2013-11-13T09:54:09Z</time>
      </trkpt>
      <trkpt lat="43.33633" lon="5.54847">
        <ele>633.1</ele>
        <time>2013-11-13T09:54:12Z</time>
      </trkpt>
      <trkpt lat="43.33629" lon="5.54851">
        <ele>633.1</ele>
        <time>2013-11-13T09:54:16Z</time>
      </trkpt>
      <trkpt lat="43.33624" lon="5.54854">
        <ele>633.1</ele>
        <time>2013-11-13T09:54:21Z</time>
      </trkpt>
      <trkpt lat="43.33619" lon="5.54858">
        <ele>633.1</ele>
        <time>2013-11-13T09:54:25Z</time>
      </trkpt>
      <trkpt lat="43.33615" lon="5.54862">
        <ele>633.1</ele>
        <time>2013-11-13T09:54:29Z</time>
      </trkpt>
      <trkpt lat="43.33609" lon="5.54866">
        <ele>633.1</ele>
        <time>2013-11-13T09:54:34Z</time>
      </trkpt>
      <trkpt lat="43.33606" lon="5.5487">
        <ele>633.1</ele>
        <time>2013-11-13T09:54:38Z</time>
      </trkpt>
      <trkpt lat="43.33602" lon="5.54874">
        <ele>633.1</ele>
        <time>2013-11-13T09:54:42Z</time>
      </trkpt>
      <trkpt lat="43.33598" lon="5.54879">
        <ele>633.1</ele>
        <time>2013-11-13T09:54:46Z</time>
      </trkpt>
      <trkpt lat="43.33595" lon="5.54884">
        <ele>633.1</ele>
        <time>2013-11-13T09:54:50Z</time>
      </trkpt>
      <trkpt lat="43.33592" lon="5.5489">
        <ele>633.1</ele>
        <time>2013-11-13T09:54:54Z</time>
      </trkpt>
      <trkpt lat="43.3359" lon="5.54896">
        <ele>633.1</ele>
        <time>2013-11-13T09:54:58Z</time>
      </trkpt>
      <trkpt lat="43.33588" lon="5.54902">
        <ele>633</ele>
        <time>2013-11-13T09:55:02Z</time>
      </trkpt>
      <trkpt lat="43.33586" lon="5.54909">
        <ele>633</ele>
        <time>2013-11-13T09:55:06Z</time>
      </trkpt>
      <trkpt lat="43.33584" lon="5.54915">
        <ele>633</ele>
        <time>2013-11-13T09:55:10Z</time>
      </trkpt>
      <trkpt lat="43.33583" lon="5.54921">
        <ele>632.8</ele>
        <time>2013-11-13T09:55:13Z</time>
      </trkpt>
      <trkpt lat="43.33581" lon="5.54928">
        <ele>632.3</ele>
        <time>2013-11-13T09:55:17Z</time>
      </trkpt>
      <trkpt lat="43.33579" lon="5.54935">
        <ele>631.9</ele>
        <time>2013-11-13T09:55:20Z</time>
      </trkpt>
      <trkpt lat="43.33578" lon="5.54942">
        <ele>631.5</ele>
        <time>2013-11-13T09:55:24Z</time>
      </trkpt>
      <trkpt lat="43.33576" lon="5.54948">
        <ele>631.2</ele>
        <time>2013-11-13T09:55:27Z</time>
      </trkpt>
      <trkpt lat="43.33575" lon="5.54954">
        <ele>630.9</ele>
        <time>2013-11-13T09:55:30Z</time>
      </trkpt>
      <trkpt lat="43.33574" lon="5.54962">
        <ele>630.5</ele>
        <time>2013-11-13T09:55:34Z</time>
      </trkpt>
      <trkpt lat="43.33573" lon="5.54968">
        <ele>630.2</ele>
        <time>2013-11-13T09:55:37Z</time>
      </trkpt>
      <trkpt lat="43.33571" lon="5.54974">
        <ele>629.9</ele>
        <time>2013-11-13T09:55:41Z</time>
      </trkpt>
      <trkpt lat="43.33568" lon="5.54981">
        <ele>629.5</ele>
        <time>2013-11-13T09:55:44Z</time>
      </trkpt>
      <trkpt lat="43.33567" lon="5.54987">
        <ele>629.2</ele>
        <time>2013-11-13T09:55:48Z</time>
      </trkpt>
      <trkpt lat="43.33565" lon="5.54994">
        <ele>628.8</ele>
        <time>2013-11-13T09:55:51Z</time>
      </trkpt>
      <trkpt lat="43.33563" lon="5.55">
        <ele>628.5</ele>
        <time>2013-11-13T09:55:54Z</time>
      </trkpt>
      <trkpt lat="43.33561" lon="5.55006">
        <ele>628.3</ele>
        <time>2013-11-13T09:55:58Z</time>
      </trkpt>
      <trkpt lat="43.33559" lon="5.55012">
        <ele>628</ele>
        <time>2013-11-13T09:56:01Z</time>
      </trkpt>
      <trkpt lat="43.33557" lon="5.55018">
        <ele>627.9</ele>
        <time>2013-11-13T09:56:05Z</time>
      </trkpt>
      <trkpt lat="43.33554" lon="5.55025">
        <ele>627.6</ele>
        <time>2013-11-13T09:56:09Z</time>
      </trkpt>
      <trkpt lat="43.33553" lon="5.55031">
        <ele>627.5</ele>
        <time>2013-11-13T09:56:12Z</time>
      </trkpt>
      <trkpt lat="43.33551" lon="5.55038">
        <ele>627.3</ele>
        <time>2013-11-13T09:56:16Z</time>
      </trkpt>
      <trkpt lat="43.33548" lon="5.55045">
        <ele>627.1</ele>
        <time>2013-11-13T09:56:20Z</time>
      </trkpt>
      <trkpt lat="43.33546" lon="5.5505">
        <ele>626.9</ele>
        <time>2013-11-13T09:56:23Z</time>
      </trkpt>
      <trkpt lat="43.33543" lon="5.55055">
        <ele>626.7</ele>
        <time>2013-11-13T09:56:27Z</time>
      </trkpt>
      <trkpt lat="43.33539" lon="5.55061">
        <ele>626.5</ele>
        <time>2013-11-13T09:56:30Z</time>
      </trkpt>
      <trkpt lat="43.33536" lon="5.55066">
        <ele>626.4</ele>
        <time>2013-11-13T09:56:34Z</time>
      </trkpt>
      <trkpt lat="43.33533" lon="5.5507">
        <ele>626.2</ele>
        <time>2013-11-13T09:56:37Z</time>
      </trkpt>
      <trkpt lat="43.33528" lon="5.55076">
        <ele>626</ele>
        <time>2013-11-13T09:56:42Z</time>
      </trkpt>
      <trkpt lat="43.33524" lon="5.5508">
        <ele>625.9</ele>
        <time>2013-11-13T09:56:46Z</time>
      </trkpt>
      <trkpt lat="43.33521" lon="5.55085">
        <ele>625.8</ele>
        <time>2013-11-13T09:56:49Z</time>
      </trkpt>
      <trkpt lat="43.33517" lon="5.55088">
        <ele>625.6</ele>
        <time>2013-11-13T09:56:52Z</time>
      </trkpt>
      <trkpt lat="43.33513" lon="5.55091">
        <ele>625.5</ele>
        <time>2013-11-13T09:56:56Z</time>
      </trkpt>
      <trkpt lat="43.33508" lon="5.55091">
        <ele>625.4</ele>
        <time>2013-11-13T09:56:59Z</time>
      </trkpt>
      <trkpt lat="43.33506" lon="5.55086">
        <ele>625.3</ele>
        <time>2013-11-13T09:57:03Z</time>
      </trkpt>
      <trkpt lat="43.3351" lon="5.55082">
        <ele>625.3</ele>
        <time>2013-11-13T09:57:06Z</time>
      </trkpt>
      <trkpt lat="43.3351" lon="5.55076">
        <ele>625.3</ele>
        <time>2013-11-13T09:57:10Z</time>
      </trkpt>
      <trkpt lat="43.33507" lon="5.5508">
        <ele>625.2</ele>
        <time>2013-11-13T09:57:13Z</time>
      </trkpt>
      <trkpt lat="43.3351" lon="5.55077">
        <ele>625.3</ele>
        <time>2013-11-13T09:57:17Z</time>
      </trkpt>
      <trkpt lat="43.33506" lon="5.5508">
        <ele>625.2</ele>
        <time>2013-11-13T09:57:21Z</time>
      </trkpt>
      <trkpt lat="43.3351" lon="5.55076">
        <ele>625.3</ele>
        <time>2013-11-13T09:57:25Z</time>
      </trkpt>
      <trkpt lat="43.33511" lon="5.5507">
        <ele>625.3</ele>
        <time>2013-11-13T09:57:28Z</time>
      </trkpt>
      <trkpt lat="43.33514" lon="5.55075">
        <ele>625.4</ele>
        <time>2013-11-13T09:57:32Z</time>
      </trkpt>
      <trkpt lat="43.33511" lon="5.5508">
        <ele>625.4</ele>
        <time>2013-11-13T09:57:36Z</time>
      </trkpt>
      <trkpt lat="43.33509" lon="5.55085">
        <ele>625.3</ele>
        <time>2013-11-13T09:57:39Z</time>
      </trkpt>
      <trkpt lat="43.33505" lon="5.55081">
        <ele>625.2</ele>
        <time>2013-11-13T09:57:43Z</time>
      </trkpt>
      <trkpt lat="43.3351" lon="5.55082">
        <ele>625.3</ele>
        <time>2013-11-13T09:57:46Z</time>
      </trkpt>
      <trkpt lat="43.33511" lon="5.55076">
        <ele>625.3</ele>
        <time>2013-11-13T09:57:50Z</time>
      </trkpt>
      <trkpt lat="43.3351" lon="5.55082">
        <ele>625.3</ele>
        <time>2013-11-13T09:57:54Z</time>
      </trkpt>
      <trkpt lat="43.33509" lon="5.55088">
        <ele>625.4</ele>
        <time>2013-11-13T09:57:58Z</time>
      </trkpt>
      <trkpt lat="43.33514" lon="5.55091">
        <ele>625.5</ele>
        <time>2013-11-13T09:58:01Z</time>
      </trkpt>
      <trkpt lat="43.33519" lon="5.5509">
        <ele>625.7</ele>
        <time>2013-11-13T09:58:06Z</time>
      </trkpt>
      <trkpt lat="43.33524" lon="5.5509">
        <ele>625.8</ele>
        <time>2013-11-13T09:58:11Z</time>
      </trkpt>
      <trkpt lat="43.33529" lon="5.55092">
        <ele>626</ele>
        <time>2013-11-13T09:58:15Z</time>
      </trkpt>
      <trkpt lat="43.33533" lon="5.55093">
        <ele>626</ele>
        <time>2013-11-13T09:58:18Z</time>
      </trkpt>
      <trkpt lat="43.33537" lon="5.55088">
        <ele>626.2</ele>
        <time>2013-11-13T09:58:23Z</time>
      </trkpt>
      <trkpt lat="43.3354" lon="5.55084">
        <ele>626.4</ele>
        <time>2013-11-13T09:58:27Z</time>
      </trkpt>
      <trkpt lat="43.33545" lon="5.55082">
        <ele>626.6</ele>
        <time>2013-11-13T09:58:31Z</time>
      </trkpt>
      <trkpt lat="43.33549" lon="5.55085">
        <ele>626.7</ele>
        <time>2013-11-13T09:58:35Z</time>
      </trkpt>
      <trkpt lat="43.33553" lon="5.5509">
        <ele>626.6</ele>
        <time>2013-11-13T09:58:39Z</time>
      </trkpt>
      <trkpt lat="43.33556" lon="5.55095">
        <ele>626.5</ele>
        <time>2013-11-13T09:58:43Z</time>
      </trkpt>
      <trkpt lat="43.33561" lon="5.55099">
        <ele>626.5</ele>
        <time>2013-11-13T09:58:47Z</time>
      </trkpt>
      <trkpt lat="43.33565" lon="5.55099">
        <ele>626.5</ele>
        <time>2013-11-13T09:58:51Z</time>
      </trkpt>
      <trkpt lat="43.3357" lon="5.55098">
        <ele>626.7</ele>
        <time>2013-11-13T09:58:55Z</time>
      </trkpt>
      <trkpt lat="43.33575" lon="5.55097">
        <ele>626.8</ele>
        <time>2013-11-13T09:58:59Z</time>
      </trkpt>
      <trkpt lat="43.33578" lon="5.55092">
        <ele>627.2</ele>
        <time>2013-11-13T09:59:04Z</time>
      </trkpt>
      <trkpt lat="43.33581" lon="5.55087">
        <ele>627.7</ele>
        <time>2013-11-13T09:59:09Z</time>
      </trkpt>
      <trkpt lat="43.33577" lon="5.5509">
        <ele>627.3</ele>
        <time>2013-11-13T09:59:12Z</time>
      </trkpt>
      <trkpt lat="43.33581" lon="5.55093">
        <ele>627.2</ele>
        <time>2013-11-13T09:59:16Z</time>
      </trkpt>
      <trkpt lat="43.33576" lon="5.55091">
        <ele>627.3</ele>
        <time>2013-11-13T09:59:20Z</time>
      </trkpt>
      <trkpt lat="43.33575" lon="5.55085">
        <ele>627.6</ele>
        <time>2013-11-13T09:59:24Z</time>
      </trkpt>
      <trkpt lat="43.33578" lon="5.5508">
        <ele>627.9</ele>
        <time>2013-11-13T09:59:28Z</time>
      </trkpt>
      <trkpt lat="43.33579" lon="5.55087">
        <ele>627.6</ele>
        <time>2013-11-13T09:59:31Z</time>
      </trkpt>
      <trkpt lat="43.33575" lon="5.55091">
        <ele>627.2</ele>
        <time>2013-11-13T09:59:35Z</time>
      </trkpt>
      <trkpt lat="43.3358" lon="5.55093">
        <ele>627.2</ele>
        <time>2013-11-13T09:59:38Z</time>
      </trkpt>
      <trkpt lat="43.33581" lon="5.55086">
        <ele>627.7</ele>
        <time>2013-11-13T09:59:44Z</time>
      </trkpt>
      <trkpt lat="43.33579" lon="5.55092">
        <ele>627.3</ele>
        <time>2013-11-13T09:59:47Z</time>
      </trkpt>
      <trkpt lat="43.33582" lon="5.55087">
        <ele>627.7</ele>
        <time>2013-11-13T09:59:52Z</time>
      </trkpt>
      <trkpt lat="43.3358" lon="5.55093">
        <ele>627.2</ele>
        <time>2013-11-13T09:59:55Z</time>
      </trkpt>
      <trkpt lat="43.33578" lon="5.55087">
        <ele>627.6</ele>
        <time>2013-11-13T10:00:00Z</time>
      </trkpt>
      <trkpt lat="43.33581" lon="5.55092">
        <ele>627.3</ele>
        <time>2013-11-13T10:00:03Z</time>
      </trkpt>
      <trkpt lat="43.33577" lon="5.55091">
        <ele>627.3</ele>
        <time>2013-11-13T10:00:06Z</time>
      </trkpt>
      <trkpt lat="43.33581" lon="5.5509">
        <ele>627.5</ele>
        <time>2013-11-13T10:00:11Z</time>
      </trkpt>
      <trkpt lat="43.33577" lon="5.55091">
        <ele>627.3</ele>
        <time>2013-11-13T10:00:14Z</time>
      </trkpt>
      <trkpt lat="43.3358" lon="5.55087">
        <ele>627.6</ele>
        <time>2013-11-13T10:00:18Z</time>
      </trkpt>
      <trkpt lat="43.33579" lon="5.55093">
        <ele>627.2</ele>
        <time>2013-11-13T10:00:21Z</time>
      </trkpt>
      <trkpt lat="43.33579" lon="5.55087">
        <ele>627.6</ele>
        <time>2013-11-13T10:00:26Z</time>
      </trkpt>
      <trkpt lat="43.3358" lon="5.55093">
        <ele>627.2</ele>
        <time>2013-11-13T10:00:29Z</time>
      </trkpt>
      <trkpt lat="43.33582" lon="5.55087">
        <ele>627.7</ele>
        <time>2013-11-13T10:00:34Z</time>
      </trkpt>
      <trkpt lat="43.3358" lon="5.55093">
        <ele>627.2</ele>
        <time>2013-11-13T10:00:38Z</time>
      </trkpt>
      <trkpt lat="43.33576" lon="5.55096">
        <ele>627</ele>
        <time>2013-11-13T10:00:41Z</time>
      </trkpt>
      <trkpt lat="43.33572" lon="5.55095">
        <ele>626.9</ele>
        <time>2013-11-13T10:00:44Z</time>
      </trkpt>
      <trkpt lat="43.33568" lon="5.55091">
        <ele>627</ele>
        <time>2013-11-13T10:00:48Z</time>
      </trkpt>
      <trkpt lat="43.33566" lon="5.55097">
        <ele>626.7</ele>
        <time>2013-11-13T10:00:51Z</time>
      </trkpt>
      <trkpt lat="43.33562" lon="5.55099">
        <ele>626.5</ele>
        <time>2013-11-13T10:00:55Z</time>
      </trkpt>
      <trkpt lat="43.33559" lon="5.55094">
        <ele>626.6</ele>
        <time>2013-11-13T10:00:59Z</time>
      </trkpt>
      <trkpt lat="43.33556" lon="5.55089">
        <ele>626.8</ele>
        <time>2013-11-13T10:01:03Z</time>
      </trkpt>
      <trkpt lat="43.33553" lon="5.55083">
        <ele>626.9</ele>
        <time>2013-11-13T10:01:07Z</time>
      </trkpt>
      <trkpt lat="43.33551" lon="5.55077">
        <ele>626.9</ele>
        <time>2013-11-13T10:01:11Z</time>
      </trkpt>
      <trkpt lat="43.33548" lon="5.55072">
        <ele>626.8</ele>
        <time>2013-11-13T10:01:14Z</time>
      </trkpt>
      <trkpt lat="43.33545" lon="5.55068">
        <ele>626.7</ele>
        <time>2013-11-13T10:01:18Z</time>
      </trkpt>
      <trkpt lat="43.3354" lon="5.55065">
        <ele>626.5</ele>
        <time>2013-11-13T10:01:22Z</time>
      </trkpt>
      <trkpt lat="43.33536" lon="5.55068">
        <ele>626.3</ele>
        <time>2013-11-13T10:01:25Z</time>
      </trkpt>
      <trkpt lat="43.33532" lon="5.55072">
        <ele>626.2</ele>
        <time>2013-11-13T10:01:29Z</time>
      </trkpt>
      <trkpt lat="43.33529" lon="5.55077">
        <ele>626</ele>
        <time>2013-11-13T10:01:32Z</time>
      </trkpt>
      <trkpt lat="43.33525" lon="5.55081">
        <ele>625.9</ele>
        <time>2013-11-13T10:01:36Z</time>
      </trkpt>
      <trkpt lat="43.33521" lon="5.55085">
        <ele>625.8</ele>
        <time>2013-11-13T10:01:39Z</time>
      </trkpt>
      <trkpt lat="43.33517" lon="5.55089">
        <ele>625.6</ele>
        <time>2013-11-13T10:01:42Z</time>
      </trkpt>
      <trkpt lat="43.33512" lon="5.5509">
        <ele>625.5</ele>
        <time>2013-11-13T10:01:46Z</time>
      </trkpt>
      <trkpt lat="43.33507" lon="5.5509">
        <ele>625.4</ele>
        <time>2013-11-13T10:01:50Z</time>
      </trkpt>
      <trkpt lat="43.33502" lon="5.55089">
        <ele>625.2</ele>
        <time>2013-11-13T10:01:54Z</time>
      </trkpt>
      <trkpt lat="43.33499" lon="5.55109">
        <ele>626.2</ele>
        <time>2013-11-13T10:02:08Z</time>
      </trkpt>
      <trkpt lat="43.33503" lon="5.55124">
        <ele>624.9</ele>
        <time>2013-11-13T10:02:16Z</time>
      </trkpt>
      <trkpt lat="43.33508" lon="5.55145">
        <ele>622.9</ele>
        <time>2013-11-13T10:02:28Z</time>
      </trkpt>
      <trkpt lat="43.33495" lon="5.55161">
        <ele>622.7</ele>
        <time>2013-11-13T10:02:42Z</time>
      </trkpt>
      <trkpt lat="43.33483" lon="5.55192">
        <ele>622.3</ele>
        <time>2013-11-13T10:03:01Z</time>
      </trkpt>
      <trkpt lat="43.33474" lon="5.55219">
        <ele>622.7</ele>
        <time>2013-11-13T10:03:19Z</time>
      </trkpt>
      <trkpt lat="43.33456" lon="5.55231">
        <ele>625.7</ele>
        <time>2013-11-13T10:03:46Z</time>
      </trkpt>
      <trkpt lat="43.33431" lon="5.55242">
        <ele>630.6</ele>
        <time>2013-11-13T10:04:26Z</time>
      </trkpt>
      <trkpt lat="43.33404" lon="5.55245">
        <ele>637.1</ele>
        <time>2013-11-13T10:05:20Z</time>
      </trkpt>
      <trkpt lat="43.33387" lon="5.55239">
        <ele>640.8</ele>
        <time>2013-11-13T10:05:50Z</time>
      </trkpt>
      <trkpt lat="43.33373" lon="5.55249">
        <ele>646.7</ele>
        <time>2013-11-13T10:06:40Z</time>
      </trkpt>
      <trkpt lat="43.33351" lon="5.55272">
        <ele>657.1</ele>
        <time>2013-11-13T10:08:06Z</time>
      </trkpt>
      <trkpt lat="43.33325" lon="5.55293">
        <ele>668.9</ele>
        <time>2013-11-13T10:09:45Z</time>
      </trkpt>
      <trkpt lat="43.333" lon="5.55319">
        <ele>677.9</ele>
        <time>2013-11-13T10:10:57Z</time>
      </trkpt>
      <trkpt lat="43.33282" lon="5.55341">
        <ele>681.8</ele>
        <time>2013-11-13T10:11:31Z</time>
      </trkpt>
      <trkpt lat="43.33264" lon="5.55365">
        <ele>678.4</ele>
        <time>2013-11-13T10:11:50Z</time>
      </trkpt>
      <trkpt lat="43.33245" lon="5.55378">
        <ele>673.7</ele>
        <time>2013-11-13T10:12:13Z</time>
      </trkpt>
      <trkpt lat="43.33254" lon="5.55397">
        <ele>670.8</ele>
        <time>2013-11-13T10:12:27Z</time>
      </trkpt>
      <trkpt lat="43.3327" lon="5.55399">
        <ele>670.3</ele>
        <time>2013-11-13T10:12:39Z</time>
      </trkpt>
      <trkpt lat="43.33287" lon="5.55381">
        <ele>674</ele>
        <time>2013-11-13T10:13:11Z</time>
      </trkpt>
      <trkpt lat="43.33311" lon="5.55384">
        <ele>672.8</ele>
        <time>2013-11-13T10:13:27Z</time>
      </trkpt>
      <trkpt lat="43.33333" lon="5.5538">
        <ele>672.7</ele>
        <time>2013-11-13T10:13:45Z</time>
      </trkpt>
      <trkpt lat="43.33343" lon="5.55393">
        <ele>665.8</ele>
        <time>2013-11-13T10:14:17Z</time>
      </trkpt>
      <trkpt lat="43.33363" lon="5.55407">
        <ele>652.5</ele>
        <time>2013-11-13T10:15:10Z</time>
      </trkpt>
      <trkpt lat="43.33386" lon="5.55419">
        <ele>636</ele>
        <time>2013-11-13T10:16:11Z</time>
      </trkpt>
      <trkpt lat="43.33413" lon="5.55408">
        <ele>620.7</ele>
        <time>2013-11-13T10:17:18Z</time>
      </trkpt>
      <trkpt lat="43.3344" lon="5.55376">
        <ele>617.9</ele>
        <time>2013-11-13T10:17:42Z</time>
      </trkpt>
      <trkpt lat="43.33449" lon="5.55314">
        <ele>624.9</ele>
        <time>2013-11-13T10:18:43Z</time>
      </trkpt>
      <trkpt lat="43.3345" lon="5.5527">
        <ele>626.4</ele>
        <time>2013-11-13T10:19:12Z</time>
      </trkpt>
      <trkpt lat="43.33453" lon="5.55255">
        <ele>626.4</ele>
        <time>2013-11-13T10:19:21Z</time>
      </trkpt>
      <trkpt lat="43.33475" lon="5.55237">
        <ele>622.4</ele>
        <time>2013-11-13T10:19:42Z</time>
      </trkpt>
      <trkpt lat="43.33494" lon="5.55215">
        <ele>620.1</ele>
        <time>2013-11-13T10:19:59Z</time>
      </trkpt>
      <trkpt lat="43.3351" lon="5.55183">
        <ele>619.6</ele>
        <time>2013-11-13T10:20:21Z</time>
      </trkpt>
      <trkpt lat="43.33517" lon="5.55148">
        <ele>621.8</ele>
        <time>2013-11-13T10:20:48Z</time>
      </trkpt>
      <trkpt lat="43.33515" lon="5.55119">
        <ele>624.4</ele>
        <time>2013-11-13T10:21:13Z</time>
      </trkpt>
      <trkpt lat="43.33505" lon="5.55093">
        <ele>627.1</ele>
        <time>2013-11-13T10:21:39Z</time>
      </trkpt>
      <trkpt lat="43.33497" lon="5.55086">
        <ele>624.6</ele>
        <time>2013-11-13T10:21:51Z</time>
      </trkpt>
      <trkpt lat="43.33493" lon="5.55082">
        <ele>623.6</ele>
        <time>2013-11-13T10:21:56Z</time>
      </trkpt>
      <trkpt lat="43.33489" lon="5.55076">
        <ele>622.9</ele>
        <time>2013-11-13T10:22:00Z</time>
      </trkpt>
      <trkpt lat="43.33486" lon="5.55072">
        <ele>622.2</ele>
        <time>2013-11-13T10:22:04Z</time>
      </trkpt>
      <trkpt lat="43.33482" lon="5.55067">
        <ele>621.4</ele>
        <time>2013-11-13T10:22:08Z</time>
      </trkpt>
      <trkpt lat="43.33478" lon="5.55061">
        <ele>620.6</ele>
        <time>2013-11-13T10:22:12Z</time>
      </trkpt>
      <trkpt lat="43.33475" lon="5.55056">
        <ele>619.9</ele>
        <time>2013-11-13T10:22:16Z</time>
      </trkpt>
      <trkpt lat="43.33472" lon="5.55051">
        <ele>619.3</ele>
        <time>2013-11-13T10:22:20Z</time>
      </trkpt>
      <trkpt lat="43.33469" lon="5.55046">
        <ele>618.7</ele>
        <time>2013-11-13T10:22:23Z</time>
      </trkpt>
      <trkpt lat="43.33466" lon="5.5504">
        <ele>618.2</ele>
        <time>2013-11-13T10:22:27Z</time>
      </trkpt>
      <trkpt lat="43.33465" lon="5.55033">
        <ele>617.9</ele>
        <time>2013-11-13T10:22:31Z</time>
      </trkpt>
      <trkpt lat="43.33463" lon="5.55026">
        <ele>617.5</ele>
        <time>2013-11-13T10:22:34Z</time>
      </trkpt>
      <trkpt lat="43.33461" lon="5.5502">
        <ele>617</ele>
        <time>2013-11-13T10:22:38Z</time>
      </trkpt>
      <trkpt lat="43.33459" lon="5.55014">
        <ele>616.7</ele>
        <time>2013-11-13T10:22:41Z</time>
      </trkpt>
      <trkpt lat="43.33458" lon="5.55007">
        <ele>616.4</ele>
        <time>2013-11-13T10:22:44Z</time>
      </trkpt>
      <trkpt lat="43.33456" lon="5.55001">
        <ele>616.1</ele>
        <time>2013-11-13T10:22:48Z</time>
      </trkpt>
      <trkpt lat="43.33455" lon="5.54995">
        <ele>616</ele>
        <time>2013-11-13T10:22:51Z</time>
      </trkpt>
      <trkpt lat="43.33454" lon="5.54989">
        <ele>615.8</ele>
        <time>2013-11-13T10:22:54Z</time>
      </trkpt>
      <trkpt lat="43.33453" lon="5.54982">
        <ele>615.8</ele>
        <time>2013-11-13T10:22:58Z</time>
      </trkpt>
      <trkpt lat="43.33452" lon="5.54976">
        <ele>615.7</ele>
        <time>2013-11-13T10:23:02Z</time>
      </trkpt>
      <trkpt lat="43.33451" lon="5.5497">
        <ele>615.6</ele>
        <time>2013-11-13T10:23:05Z</time>
      </trkpt>
      <trkpt lat="43.33449" lon="5.54963">
        <ele>615.3</ele>
        <time>2013-11-13T10:23:09Z</time>
      </trkpt>
      <trkpt lat="43.33447" lon="5.54957">
        <ele>615.2</ele>
        <time>2013-11-13T10:23:12Z</time>
      </trkpt>
      <trkpt lat="43.33446" lon="5.54951">
        <ele>615</ele>
        <time>2013-11-13T10:23:16Z</time>
      </trkpt>
      <trkpt lat="43.33444" lon="5.54945">
        <ele>614.8</ele>
        <time>2013-11-13T10:23:19Z</time>
      </trkpt>
      <trkpt lat="43.33442" lon="5.54939">
        <ele>614.6</ele>
        <time>2013-11-13T10:23:22Z</time>
      </trkpt>
      <trkpt lat="43.33441" lon="5.54932">
        <ele>614.6</ele>
        <time>2013-11-13T10:23:26Z</time>
      </trkpt>
      <trkpt lat="43.3344" lon="5.54926">
        <ele>614.5</ele>
        <time>2013-11-13T10:23:30Z</time>
      </trkpt>
      <trkpt lat="43.33439" lon="5.5492">
        <ele>614.4</ele>
        <time>2013-11-13T10:23:33Z</time>
      </trkpt>
      <trkpt lat="43.33438" lon="5.54913">
        <ele>614.4</ele>
        <time>2013-11-13T10:23:37Z</time>
      </trkpt>
      <trkpt lat="43.33437" lon="5.54906">
        <ele>614.4</ele>
        <time>2013-11-13T10:23:42Z</time>
      </trkpt>
      <trkpt lat="43.33436" lon="5.54898">
        <ele>614.5</ele>
        <time>2013-11-13T10:23:46Z</time>
      </trkpt>
      <trkpt lat="43.33434" lon="5.54892">
        <ele>614.5</ele>
        <time>2013-11-13T10:23:50Z</time>
      </trkpt>
      <trkpt lat="43.33433" lon="5.54886">
        <ele>614.5</ele>
        <time>2013-11-13T10:23:54Z</time>
      </trkpt>
      <trkpt lat="43.33433" lon="5.54878">
        <ele>614.6</ele>
        <time>2013-11-13T10:23:58Z</time>
      </trkpt>
      <trkpt lat="43.33432" lon="5.54872">
        <ele>614.8</ele>
        <time>2013-11-13T10:24:02Z</time>
      </trkpt>
      <trkpt lat="43.33431" lon="5.54865">
        <ele>614.8</ele>
        <time>2013-11-13T10:24:07Z</time>
      </trkpt>
      <trkpt lat="43.33431" lon="5.54857">
        <ele>615</ele>
        <time>2013-11-13T10:24:11Z</time>
      </trkpt>
      <trkpt lat="43.3343" lon="5.5485">
        <ele>615.1</ele>
        <time>2013-11-13T10:24:16Z</time>
      </trkpt>
      <trkpt lat="43.3343" lon="5.54844">
        <ele>615.3</ele>
        <time>2013-11-13T10:24:20Z</time>
      </trkpt>
      <trkpt lat="43.3343" lon="5.54837">
        <ele>615.5</ele>
        <time>2013-11-13T10:24:24Z</time>
      </trkpt>
      <trkpt lat="43.3343" lon="5.54831">
        <ele>615.7</ele>
        <time>2013-11-13T10:24:28Z</time>
      </trkpt>
      <trkpt lat="43.3343" lon="5.54824">
        <ele>615.9</ele>
        <time>2013-11-13T10:24:33Z</time>
      </trkpt>
      <trkpt lat="43.3343" lon="5.54816">
        <ele>616.2</ele>
        <time>2013-11-13T10:24:38Z</time>
      </trkpt>
      <trkpt lat="43.33429" lon="5.54808">
        <ele>616.5</ele>
        <time>2013-11-13T10:24:43Z</time>
      </trkpt>
      <trkpt lat="43.33428" lon="5.54797">
        <ele>616.8</ele>
        <time>2013-11-13T10:24:50Z</time>
      </trkpt>
      <trkpt lat="43.33429" lon="5.5479">
        <ele>617.2</ele>
        <time>2013-11-13T10:24:55Z</time>
      </trkpt>
      <trkpt lat="43.33429" lon="5.54784">
        <ele>617.5</ele>
        <time>2013-11-13T10:25:00Z</time>
      </trkpt>
      <trkpt lat="43.33429" lon="5.54777">
        <ele>617.7</ele>
        <time>2013-11-13T10:25:04Z</time>
      </trkpt>
      <trkpt lat="43.33429" lon="5.54769">
        <ele>618</ele>
        <time>2013-11-13T10:25:09Z</time>
      </trkpt>
      <trkpt lat="43.3343" lon="5.54762">
        <ele>618.3</ele>
        <time>2013-11-13T10:25:14Z</time>
      </trkpt>
      <trkpt lat="43.3343" lon="5.54755">
        <ele>618.6</ele>
        <time>2013-11-13T10:25:19Z</time>
      </trkpt>
      <trkpt lat="43.33433" lon="5.5475">
        <ele>619</ele>
        <time>2013-11-13T10:25:23Z</time>
      </trkpt>
      <trkpt lat="43.33435" lon="5.54743">
        <ele>619.3</ele>
        <time>2013-11-13T10:25:29Z</time>
      </trkpt>
      <trkpt lat="43.33434" lon="5.54736">
        <ele>619.5</ele>
        <time>2013-11-13T10:25:33Z</time>
      </trkpt>
      <trkpt lat="43.33433" lon="5.5473">
        <ele>619.6</ele>
        <time>2013-11-13T10:25:37Z</time>
      </trkpt>
      <trkpt lat="43.33434" lon="5.54723">
        <ele>619.9</ele>
        <time>2013-11-13T10:25:41Z</time>
      </trkpt>
      <trkpt lat="43.33435" lon="5.54716">
        <ele>620.2</ele>
        <time>2013-11-13T10:25:46Z</time>
      </trkpt>
      <trkpt lat="43.33434" lon="5.54709">
        <ele>620.3</ele>
        <time>2013-11-13T10:25:50Z</time>
      </trkpt>
      <trkpt lat="43.33433" lon="5.54702">
        <ele>620.5</ele>
        <time>2013-11-13T10:25:55Z</time>
      </trkpt>
      <trkpt lat="43.3343" lon="5.54696">
        <ele>620.4</ele>
        <time>2013-11-13T10:25:59Z</time>
      </trkpt>
      <trkpt lat="43.33427" lon="5.54691">
        <ele>620.3</ele>
        <time>2013-11-13T10:26:03Z</time>
      </trkpt>
      <trkpt lat="43.33422" lon="5.54686">
        <ele>620</ele>
        <time>2013-11-13T10:26:07Z</time>
      </trkpt>
      <trkpt lat="43.33418" lon="5.54683">
        <ele>619.7</ele>
        <time>2013-11-13T10:26:10Z</time>
      </trkpt>
      <trkpt lat="43.33413" lon="5.54679">
        <ele>619</ele>
        <time>2013-11-13T10:26:14Z</time>
      </trkpt>
      <trkpt lat="43.33409" lon="5.54676">
        <ele>618.3</ele>
        <time>2013-11-13T10:26:18Z</time>
      </trkpt>
      <trkpt lat="43.33403" lon="5.54672">
        <ele>617.5</ele>
        <time>2013-11-13T10:26:23Z</time>
      </trkpt>
      <trkpt lat="43.33399" lon="5.54668">
        <ele>616.8</ele>
        <time>2013-11-13T10:26:27Z</time>
      </trkpt>
      <trkpt lat="43.33396" lon="5.54664">
        <ele>616.2</ele>
        <time>2013-11-13T10:26:30Z</time>
      </trkpt>
      <trkpt lat="43.33392" lon="5.5466">
        <ele>615.7</ele>
        <time>2013-11-13T10:26:33Z</time>
      </trkpt>
      <trkpt lat="43.33388" lon="5.54656">
        <ele>615</ele>
        <time>2013-11-13T10:26:37Z</time>
      </trkpt>
      <trkpt lat="43.33385" lon="5.54651">
        <ele>614.5</ele>
        <time>2013-11-13T10:26:41Z</time>
      </trkpt>
      <trkpt lat="43.33382" lon="5.54646">
        <ele>614.1</ele>
        <time>2013-11-13T10:26:44Z</time>
      </trkpt>
      <trkpt lat="43.33378" lon="5.54642">
        <ele>613.6</ele>
        <time>2013-11-13T10:26:47Z</time>
      </trkpt>
      <trkpt lat="43.33375" lon="5.54636">
        <ele>613.2</ele>
        <time>2013-11-13T10:26:51Z</time>
      </trkpt>
      <trkpt lat="43.33372" lon="5.54631">
        <ele>612.9</ele>
        <time>2013-11-13T10:26:54Z</time>
      </trkpt>
      <trkpt lat="43.33369" lon="5.54625">
        <ele>612.6</ele>
        <time>2013-11-13T10:26:58Z</time>
      </trkpt>
      <trkpt lat="43.33368" lon="5.54618">
        <ele>612.6</ele>
        <time>2013-11-13T10:27:02Z</time>
      </trkpt>
      <trkpt lat="43.33368" lon="5.54611">
        <ele>612.8</ele>
        <time>2013-11-13T10:27:06Z</time>
      </trkpt>
      <trkpt lat="43.33368" lon="5.54604">
        <ele>613</ele>
        <time>2013-11-13T10:27:11Z</time>
      </trkpt>
      <trkpt lat="43.33368" lon="5.54597">
        <ele>613.1</ele>
        <time>2013-11-13T10:27:15Z</time>
      </trkpt>
      <trkpt lat="43.33368" lon="5.54591">
        <ele>613.3</ele>
        <time>2013-11-13T10:27:19Z</time>
      </trkpt>
      <trkpt lat="43.33368" lon="5.54585">
        <ele>613.6</ele>
        <time>2013-11-13T10:27:23Z</time>
      </trkpt>
      <trkpt lat="43.33368" lon="5.54578">
        <ele>613.3</ele>
        <time>2013-11-13T10:27:27Z</time>
      </trkpt>
      <trkpt lat="43.33368" lon="5.54572">
        <ele>613</ele>
        <time>2013-11-13T10:27:30Z</time>
      </trkpt>
      <trkpt lat="43.33368" lon="5.54565">
        <ele>612.7</ele>
        <time>2013-11-13T10:27:33Z</time>
      </trkpt>
      <trkpt lat="43.33368" lon="5.54559">
        <ele>612.5</ele>
        <time>2013-11-13T10:27:36Z</time>
      </trkpt>
      <trkpt lat="43.33368" lon="5.54552">
        <ele>612.2</ele>
        <time>2013-11-13T10:27:39Z</time>
      </trkpt>
      <trkpt lat="43.33368" lon="5.54546">
        <ele>611.9</ele>
        <time>2013-11-13T10:27:43Z</time>
      </trkpt>
      <trkpt lat="43.33367" lon="5.54539">
        <ele>611.5</ele>
        <time>2013-11-13T10:27:46Z</time>
      </trkpt>
      <trkpt lat="43.33366" lon="5.54532">
        <ele>611.1</ele>
        <time>2013-11-13T10:27:50Z</time>
      </trkpt>
      <trkpt lat="43.33365" lon="5.54526">
        <ele>610.8</ele>
        <time>2013-11-13T10:27:53Z</time>
      </trkpt>
      <trkpt lat="43.33363" lon="5.54518">
        <ele>610.3</ele>
        <time>2013-11-13T10:27:57Z</time>
      </trkpt>
      <trkpt lat="43.33361" lon="5.54511">
        <ele>609.8</ele>
        <time>2013-11-13T10:28:01Z</time>
      </trkpt>
      <trkpt lat="43.33359" lon="5.54506">
        <ele>609.4</ele>
        <time>2013-11-13T10:28:04Z</time>
      </trkpt>
      <trkpt lat="43.33356" lon="5.54501">
        <ele>608.9</ele>
        <time>2013-11-13T10:28:07Z</time>
      </trkpt>
      <trkpt lat="43.33353" lon="5.54496">
        <ele>608.4</ele>
        <time>2013-11-13T10:28:11Z</time>
      </trkpt>
      <trkpt lat="43.33349" lon="5.5449">
        <ele>607.8</ele>
        <time>2013-11-13T10:28:15Z</time>
      </trkpt>
      <trkpt lat="43.33346" lon="5.54485">
        <ele>607.3</ele>
        <time>2013-11-13T10:28:18Z</time>
      </trkpt>
      <trkpt lat="43.33344" lon="5.54479">
        <ele>606.8</ele>
        <time>2013-11-13T10:28:21Z</time>
      </trkpt>
      <trkpt lat="43.33341" lon="5.54474">
        <ele>606.3</ele>
        <time>2013-11-13T10:28:25Z</time>
      </trkpt>
      <trkpt lat="43.33338" lon="5.54468">
        <ele>605.8</ele>
        <time>2013-11-13T10:28:28Z</time>
      </trkpt>
      <trkpt lat="43.33333" lon="5.54463">
        <ele>605.2</ele>
        <time>2013-11-13T10:28:33Z</time>
      </trkpt>
      <trkpt lat="43.3333" lon="5.54457">
        <ele>604.5</ele>
        <time>2013-11-13T10:28:37Z</time>
      </trkpt>
      <trkpt lat="43.33327" lon="5.54451">
        <ele>603.9</ele>
        <time>2013-11-13T10:28:41Z</time>
      </trkpt>
      <trkpt lat="43.33325" lon="5.54444">
        <ele>603.4</ele>
        <time>2013-11-13T10:28:44Z</time>
      </trkpt>
      <trkpt lat="43.33324" lon="5.54438">
        <ele>603</ele>
        <time>2013-11-13T10:28:48Z</time>
      </trkpt>
      <trkpt lat="43.33321" lon="5.54432">
        <ele>602.5</ele>
        <time>2013-11-13T10:28:51Z</time>
      </trkpt>
      <trkpt lat="43.33319" lon="5.54426">
        <ele>602</ele>
        <time>2013-11-13T10:28:55Z</time>
      </trkpt>
      <trkpt lat="43.33317" lon="5.54419">
        <ele>601.5</ele>
        <time>2013-11-13T10:28:58Z</time>
      </trkpt>
      <trkpt lat="43.33315" lon="5.54412">
        <ele>601</ele>
        <time>2013-11-13T10:29:02Z</time>
      </trkpt>
      <trkpt lat="43.33313" lon="5.54405">
        <ele>600.4</ele>
        <time>2013-11-13T10:29:06Z</time>
      </trkpt>
      <trkpt lat="43.33312" lon="5.54397">
        <ele>599.9</ele>
        <time>2013-11-13T10:29:10Z</time>
      </trkpt>
      <trkpt lat="43.3331" lon="5.54391">
        <ele>599.4</ele>
        <time>2013-11-13T10:29:13Z</time>
      </trkpt>
      <trkpt lat="43.33309" lon="5.54385">
        <ele>599</ele>
        <time>2013-11-13T10:29:17Z</time>
      </trkpt>
      <trkpt lat="43.33306" lon="5.54379">
        <ele>598.4</ele>
        <time>2013-11-13T10:29:20Z</time>
      </trkpt>
      <trkpt lat="43.33304" lon="5.54373">
        <ele>597.9</ele>
        <time>2013-11-13T10:29:24Z</time>
      </trkpt>
      <trkpt lat="43.33302" lon="5.54366">
        <ele>597.4</ele>
        <time>2013-11-13T10:29:27Z</time>
      </trkpt>
      <trkpt lat="43.333" lon="5.5436">
        <ele>596.9</ele>
        <time>2013-11-13T10:29:31Z</time>
      </trkpt>
      <trkpt lat="43.33297" lon="5.54353">
        <ele>596.4</ele>
        <time>2013-11-13T10:29:35Z</time>
      </trkpt>
      <trkpt lat="43.33295" lon="5.54347">
        <ele>595.9</ele>
        <time>2013-11-13T10:29:39Z</time>
      </trkpt>
      <trkpt lat="43.33292" lon="5.54341">
        <ele>595.4</ele>
        <time>2013-11-13T10:29:42Z</time>
      </trkpt>
      <trkpt lat="43.3329" lon="5.54333">
        <ele>594.9</ele>
        <time>2013-11-13T10:29:46Z</time>
      </trkpt>
      <trkpt lat="43.33288" lon="5.54327">
        <ele>594.5</ele>
        <time>2013-11-13T10:29:50Z</time>
      </trkpt>
      <trkpt lat="43.33284" lon="5.54321">
        <ele>594.1</ele>
        <time>2013-11-13T10:29:53Z</time>
      </trkpt>
      <trkpt lat="43.33281" lon="5.54315">
        <ele>593.8</ele>
        <time>2013-11-13T10:29:57Z</time>
      </trkpt>
      <trkpt lat="43.33278" lon="5.5431">
        <ele>593.5</ele>
        <time>2013-11-13T10:30:00Z</time>
      </trkpt>
      <trkpt lat="43.33275" lon="5.54305">
        <ele>593.1</ele>
        <time>2013-11-13T10:30:04Z</time>
      </trkpt>
      <trkpt lat="43.33271" lon="5.543">
        <ele>592.8</ele>
        <time>2013-11-13T10:30:07Z</time>
      </trkpt>
      <trkpt lat="43.33267" lon="5.54294">
        <ele>592.5</ele>
        <time>2013-11-13T10:30:11Z</time>
      </trkpt>
      <trkpt lat="43.33264" lon="5.54289">
        <ele>592.2</ele>
        <time>2013-11-13T10:30:14Z</time>
      </trkpt>
      <trkpt lat="43.33261" lon="5.54285">
        <ele>592</ele>
        <time>2013-11-13T10:30:18Z</time>
      </trkpt>
      <trkpt lat="43.33257" lon="5.54281">
        <ele>591.7</ele>
        <time>2013-11-13T10:30:21Z</time>
      </trkpt>
      <trkpt lat="43.33252" lon="5.54276">
        <ele>591.4</ele>
        <time>2013-11-13T10:30:25Z</time>
      </trkpt>
      <trkpt lat="43.33249" lon="5.54272">
        <ele>591.1</ele>
        <time>2013-11-13T10:30:28Z</time>
      </trkpt>
      <trkpt lat="43.33245" lon="5.54268">
        <ele>590.6</ele>
        <time>2013-11-13T10:30:31Z</time>
      </trkpt>
      <trkpt lat="43.33241" lon="5.54263">
        <ele>589.8</ele>
        <time>2013-11-13T10:30:36Z</time>
      </trkpt>
      <trkpt lat="43.33237" lon="5.5426">
        <ele>589.3</ele>
        <time>2013-11-13T10:30:39Z</time>
      </trkpt>
      <trkpt lat="43.33233" lon="5.54256">
        <ele>588.7</ele>
        <time>2013-11-13T10:30:43Z</time>
      </trkpt>
      <trkpt lat="43.33228" lon="5.54251">
        <ele>588.1</ele>
        <time>2013-11-13T10:30:47Z</time>
      </trkpt>
      <trkpt lat="43.33224" lon="5.54248">
        <ele>587.6</ele>
        <time>2013-11-13T10:30:50Z</time>
      </trkpt>
      <trkpt lat="43.3322" lon="5.54244">
        <ele>587</ele>
        <time>2013-11-13T10:30:54Z</time>
      </trkpt>
      <trkpt lat="43.33216" lon="5.5424">
        <ele>586.4</ele>
        <time>2013-11-13T10:30:58Z</time>
      </trkpt>
      <trkpt lat="43.33212" lon="5.54236">
        <ele>585.9</ele>
        <time>2013-11-13T10:31:01Z</time>
      </trkpt>
      <trkpt lat="43.33208" lon="5.54232">
        <ele>585.4</ele>
        <time>2013-11-13T10:31:05Z</time>
      </trkpt>
      <trkpt lat="43.33205" lon="5.54226">
        <ele>584.9</ele>
        <time>2013-11-13T10:31:08Z</time>
      </trkpt>
      <trkpt lat="43.33202" lon="5.5422">
        <ele>584.5</ele>
        <time>2013-11-13T10:31:12Z</time>
      </trkpt>
      <trkpt lat="43.33199" lon="5.54215">
        <ele>584.1</ele>
        <time>2013-11-13T10:31:15Z</time>
      </trkpt>
      <trkpt lat="43.33195" lon="5.5421">
        <ele>583.5</ele>
        <time>2013-11-13T10:31:19Z</time>
      </trkpt>
      <trkpt lat="43.33191" lon="5.54206">
        <ele>583.1</ele>
        <time>2013-11-13T10:31:22Z</time>
      </trkpt>
      <trkpt lat="43.33187" lon="5.54202">
        <ele>582.6</ele>
        <time>2013-11-13T10:31:26Z</time>
      </trkpt>
      <trkpt lat="43.33182" lon="5.542">
        <ele>581.9</ele>
        <time>2013-11-13T10:31:30Z</time>
      </trkpt>
      <trkpt lat="43.33178" lon="5.54204">
        <ele>581.4</ele>
        <time>2013-11-13T10:31:33Z</time>
      </trkpt>
      <trkpt lat="43.33174" lon="5.54208">
        <ele>580.9</ele>
        <time>2013-11-13T10:31:37Z</time>
      </trkpt>
      <trkpt lat="43.33171" lon="5.54212">
        <ele>580.5</ele>
        <time>2013-11-13T10:31:40Z</time>
      </trkpt>
      <trkpt lat="43.33167" lon="5.54218">
        <ele>580.1</ele>
        <time>2013-11-13T10:31:44Z</time>
      </trkpt>
      <trkpt lat="43.33163" lon="5.54222">
        <ele>579.4</ele>
        <time>2013-11-13T10:31:47Z</time>
      </trkpt>
      <trkpt lat="43.33159" lon="5.54228">
        <ele>578.8</ele>
        <time>2013-11-13T10:31:52Z</time>
      </trkpt>
      <trkpt lat="43.33157" lon="5.54233">
        <ele>578.3</ele>
        <time>2013-11-13T10:31:55Z</time>
      </trkpt>
      <trkpt lat="43.33153" lon="5.54237">
        <ele>577.7</ele>
        <time>2013-11-13T10:31:59Z</time>
      </trkpt>
      <trkpt lat="43.33149" lon="5.54242">
        <ele>577.1</ele>
        <time>2013-11-13T10:32:03Z</time>
      </trkpt>
      <trkpt lat="43.33144" lon="5.54245">
        <ele>576.5</ele>
        <time>2013-11-13T10:32:06Z</time>
      </trkpt>
      <trkpt lat="43.3314" lon="5.54249">
        <ele>575.8</ele>
        <time>2013-11-13T10:32:10Z</time>
      </trkpt>
      <trkpt lat="43.33136" lon="5.54253">
        <ele>575.1</ele>
        <time>2013-11-13T10:32:14Z</time>
      </trkpt>
      <trkpt lat="43.33131" lon="5.54255">
        <ele>574.2</ele>
        <time>2013-11-13T10:32:19Z</time>
      </trkpt>
      <trkpt lat="43.33126" lon="5.54254">
        <ele>573.4</ele>
        <time>2013-11-13T10:32:23Z</time>
      </trkpt>
      <trkpt lat="43.33122" lon="5.54249">
        <ele>573</ele>
        <time>2013-11-13T10:32:26Z</time>
      </trkpt>
      <trkpt lat="43.3312" lon="5.54243">
        <ele>572.6</ele>
        <time>2013-11-13T10:32:30Z</time>
      </trkpt>
      <trkpt lat="43.3312" lon="5.54236">
        <ele>572.4</ele>
        <time>2013-11-13T10:32:33Z</time>
      </trkpt>
      <trkpt lat="43.3312" lon="5.54229">
        <ele>572.3</ele>
        <time>2013-11-13T10:32:37Z</time>
      </trkpt>
      <trkpt lat="43.33121" lon="5.54223">
        <ele>572.3</ele>
        <time>2013-11-13T10:32:41Z</time>
      </trkpt>
      <trkpt lat="43.33121" lon="5.54216">
        <ele>572.2</ele>
        <time>2013-11-13T10:32:45Z</time>
      </trkpt>
      <trkpt lat="43.3312" lon="5.54208">
        <ele>571.9</ele>
        <time>2013-11-13T10:32:49Z</time>
      </trkpt>
      <trkpt lat="43.33119" lon="5.542">
        <ele>571.5</ele>
        <time>2013-11-13T10:32:53Z</time>
      </trkpt>
      <trkpt lat="43.33117" lon="5.54193">
        <ele>571</ele>
        <time>2013-11-13T10:32:56Z</time>
      </trkpt>
      <trkpt lat="43.33114" lon="5.54187">
        <ele>570.4</ele>
        <time>2013-11-13T10:33:00Z</time>
      </trkpt>
      <trkpt lat="43.33113" lon="5.5418">
        <ele>569.9</ele>
        <time>2013-11-13T10:33:04Z</time>
      </trkpt>
      <trkpt lat="43.3311" lon="5.54174">
        <ele>569.3</ele>
        <time>2013-11-13T10:33:08Z</time>
      </trkpt>
      <trkpt lat="43.33108" lon="5.54167">
        <ele>568.8</ele>
        <time>2013-11-13T10:33:11Z</time>
      </trkpt>
      <trkpt lat="43.33107" lon="5.54161">
        <ele>568.3</ele>
        <time>2013-11-13T10:33:14Z</time>
      </trkpt>
      <trkpt lat="43.33106" lon="5.54155">
        <ele>567.8</ele>
        <time>2013-11-13T10:33:18Z</time>
      </trkpt>
      <trkpt lat="43.33105" lon="5.54147">
        <ele>567.4</ele>
        <time>2013-11-13T10:33:22Z</time>
      </trkpt>
      <trkpt lat="43.33103" lon="5.5414">
        <ele>566.8</ele>
        <time>2013-11-13T10:33:26Z</time>
      </trkpt>
      <trkpt lat="43.33102" lon="5.54134">
        <ele>566.3</ele>
        <time>2013-11-13T10:33:29Z</time>
      </trkpt>
      <trkpt lat="43.331" lon="5.54128">
        <ele>565.7</ele>
        <time>2013-11-13T10:33:33Z</time>
      </trkpt>
      <trkpt lat="43.33097" lon="5.54121">
        <ele>564.9</ele>
        <time>2013-11-13T10:33:37Z</time>
      </trkpt>
      <trkpt lat="43.33094" lon="5.54114">
        <ele>564.1</ele>
        <time>2013-11-13T10:33:42Z</time>
      </trkpt>
      <trkpt lat="43.33092" lon="5.54109">
        <ele>563.5</ele>
        <time>2013-11-13T10:33:45Z</time>
      </trkpt>
      <trkpt lat="43.33088" lon="5.54103">
        <ele>562.6</ele>
        <time>2013-11-13T10:33:50Z</time>
      </trkpt>
      <trkpt lat="43.33085" lon="5.54099">
        <ele>561.8</ele>
        <time>2013-11-13T10:33:54Z</time>
      </trkpt>
      <trkpt lat="43.3308" lon="5.54096">
        <ele>560.8</ele>
        <time>2013-11-13T10:33:59Z</time>
      </trkpt>
      <trkpt lat="43.33074" lon="5.54098">
        <ele>559.9</ele>
        <time>2013-11-13T10:34:04Z</time>
      </trkpt>
      <trkpt lat="43.3307" lon="5.54102">
        <ele>559.4</ele>
        <time>2013-11-13T10:34:07Z</time>
      </trkpt>
      <trkpt lat="43.33066" lon="5.54106">
        <ele>558.9</ele>
        <time>2013-11-13T10:34:11Z</time>
      </trkpt>
      <trkpt lat="43.33063" lon="5.54113">
        <ele>558.7</ele>
        <time>2013-11-13T10:34:15Z</time>
      </trkpt>
      <trkpt lat="43.33061" lon="5.54118">
        <ele>558.6</ele>
        <time>2013-11-13T10:34:18Z</time>
      </trkpt>
      <trkpt lat="43.33058" lon="5.54124">
        <ele>558.4</ele>
        <time>2013-11-13T10:34:22Z</time>
      </trkpt>
      <trkpt lat="43.33056" lon="5.54129">
        <ele>558.2</ele>
        <time>2013-11-13T10:34:25Z</time>
      </trkpt>
      <trkpt lat="43.33051" lon="5.54133">
        <ele>557.7</ele>
        <time>2013-11-13T10:34:29Z</time>
      </trkpt>
      <trkpt lat="43.33046" lon="5.54134">
        <ele>557</ele>
        <time>2013-11-13T10:34:33Z</time>
      </trkpt>
      <trkpt lat="43.33041" lon="5.5413">
        <ele>555.9</ele>
        <time>2013-11-13T10:34:38Z</time>
      </trkpt>
      <trkpt lat="43.33037" lon="5.54126">
        <ele>555.1</ele>
        <time>2013-11-13T10:34:42Z</time>
      </trkpt>
      <trkpt lat="43.33035" lon="5.54121">
        <ele>554.4</ele>
        <time>2013-11-13T10:34:46Z</time>
      </trkpt>
      <trkpt lat="43.33032" lon="5.54116">
        <ele>553.6</ele>
        <time>2013-11-13T10:34:50Z</time>
      </trkpt>
      <trkpt lat="43.33029" lon="5.54109">
        <ele>552.7</ele>
        <time>2013-11-13T10:34:55Z</time>
      </trkpt>
      <trkpt lat="43.33025" lon="5.54103">
        <ele>551.8</ele>
        <time>2013-11-13T10:34:59Z</time>
      </trkpt>
      <trkpt lat="43.33022" lon="5.54099">
        <ele>551</ele>
        <time>2013-11-13T10:35:03Z</time>
      </trkpt>
      <trkpt lat="43.33019" lon="5.54094">
        <ele>550.1</ele>
        <time>2013-11-13T10:35:08Z</time>
      </trkpt>
      <trkpt lat="43.33015" lon="5.54089">
        <ele>549.1</ele>
        <time>2013-11-13T10:35:13Z</time>
      </trkpt>
      <trkpt lat="43.3301" lon="5.54086">
        <ele>548</ele>
        <time>2013-11-13T10:35:18Z</time>
      </trkpt>
      <trkpt lat="43.33006" lon="5.54084">
        <ele>547</ele>
        <time>2013-11-13T10:35:23Z</time>
      </trkpt>
      <trkpt lat="43.33001" lon="5.54083">
        <ele>546</ele>
        <time>2013-11-13T10:35:28Z</time>
      </trkpt>
      <trkpt lat="43.32995" lon="5.54084">
        <ele>546</ele>
        <time>2013-11-13T10:35:32Z</time>
      </trkpt>
      <trkpt lat="43.32989" lon="5.54085">
        <ele>546</ele>
        <time>2013-11-13T10:35:37Z</time>
      </trkpt>
      <trkpt lat="43.32985" lon="5.54088">
        <ele>546.2</ele>
        <time>2013-11-13T10:35:41Z</time>
      </trkpt>
      <trkpt lat="43.3298" lon="5.5409">
        <ele>546.3</ele>
        <time>2013-11-13T10:35:45Z</time>
      </trkpt>
      <trkpt lat="43.32976" lon="5.54092">
        <ele>546.5</ele>
        <time>2013-11-13T10:35:50Z</time>
      </trkpt>
      <trkpt lat="43.32971" lon="5.54095">
        <ele>546.7</ele>
        <time>2013-11-13T10:35:54Z</time>
      </trkpt>
      <trkpt lat="43.32966" lon="5.54098">
        <ele>546.9</ele>
        <time>2013-11-13T10:35:59Z</time>
      </trkpt>
      <trkpt lat="43.32962" lon="5.541">
        <ele>547.1</ele>
        <time>2013-11-13T10:36:03Z</time>
      </trkpt>
      <trkpt lat="43.32956" lon="5.54101">
        <ele>547.2</ele>
        <time>2013-11-13T10:36:08Z</time>
      </trkpt>
      <trkpt lat="43.32951" lon="5.54099">
        <ele>547</ele>
        <time>2013-11-13T10:36:12Z</time>
      </trkpt>
      <trkpt lat="43.32947" lon="5.54094">
        <ele>546.4</ele>
        <time>2013-11-13T10:36:16Z</time>
      </trkpt>
      <trkpt lat="43.32943" lon="5.54089">
        <ele>545.9</ele>
        <time>2013-11-13T10:36:19Z</time>
      </trkpt>
      <trkpt lat="43.3294" lon="5.54084">
        <ele>545.4</ele>
        <time>2013-11-13T10:36:23Z</time>
      </trkpt>
      <trkpt lat="43.32935" lon="5.54079">
        <ele>544.6</ele>
        <time>2013-11-13T10:36:27Z</time>
      </trkpt>
      <trkpt lat="43.32931" lon="5.54074">
        <ele>543.7</ele>
        <time>2013-11-13T10:36:32Z</time>
      </trkpt>
      <trkpt lat="43.32928" lon="5.54069">
        <ele>542.8</ele>
        <time>2013-11-13T10:36:36Z</time>
      </trkpt>
      <trkpt lat="43.32925" lon="5.54065">
        <ele>541.9</ele>
        <time>2013-11-13T10:36:41Z</time>
      </trkpt>
      <trkpt lat="43.32922" lon="5.5406">
        <ele>540.9</ele>
        <time>2013-11-13T10:36:46Z</time>
      </trkpt>
      <trkpt lat="43.32919" lon="5.54053">
        <ele>539.6</ele>
        <time>2013-11-13T10:36:52Z</time>
      </trkpt>
      <trkpt lat="43.32918" lon="5.54047">
        <ele>538.5</ele>
        <time>2013-11-13T10:36:57Z</time>
      </trkpt>
      <trkpt lat="43.32915" lon="5.54041">
        <ele>537.4</ele>
        <time>2013-11-13T10:37:02Z</time>
      </trkpt>
      <trkpt lat="43.32913" lon="5.54035">
        <ele>536.2</ele>
        <time>2013-11-13T10:37:08Z</time>
      </trkpt>
      <trkpt lat="43.32912" lon="5.54029">
        <ele>535.1</ele>
        <time>2013-11-13T10:37:13Z</time>
      </trkpt>
      <trkpt lat="43.32911" lon="5.54022">
        <ele>534</ele>
        <time>2013-11-13T10:37:18Z</time>
      </trkpt>
      <trkpt lat="43.32909" lon="5.54016">
        <ele>532.9</ele>
        <time>2013-11-13T10:37:24Z</time>
      </trkpt>
      <trkpt lat="43.32906" lon="5.54011">
        <ele>531.9</ele>
        <time>2013-11-13T10:37:29Z</time>
      </trkpt>
      <trkpt lat="43.32902" lon="5.54006">
        <ele>531</ele>
        <time>2013-11-13T10:37:33Z</time>
      </trkpt>
      <trkpt lat="43.32898" lon="5.54001">
        <ele>530.2</ele>
        <time>2013-11-13T10:37:37Z</time>
      </trkpt>
      <trkpt lat="43.32894" lon="5.53997">
        <ele>529.4</ele>
        <time>2013-11-13T10:37:42Z</time>
      </trkpt>
      <trkpt lat="43.32891" lon="5.53992">
        <ele>528.7</ele>
        <time>2013-11-13T10:37:46Z</time>
      </trkpt>
      <trkpt lat="43.32887" lon="5.53988">
        <ele>527.9</ele>
        <time>2013-11-13T10:37:50Z</time>
      </trkpt>
      <trkpt lat="43.32883" lon="5.53984">
        <ele>527.2</ele>
        <time>2013-11-13T10:37:54Z</time>
      </trkpt>
      <trkpt lat="43.32879" lon="5.53979">
        <ele>526.5</ele>
        <time>2013-11-13T10:37:58Z</time>
      </trkpt>
      <trkpt lat="43.32875" lon="5.53976">
        <ele>525.8</ele>
        <time>2013-11-13T10:38:01Z</time>
      </trkpt>
      <trkpt lat="43.32869" lon="5.53972">
        <ele>525.1</ele>
        <time>2013-11-13T10:38:06Z</time>
      </trkpt>
      <trkpt lat="43.32865" lon="5.53968">
        <ele>524.4</ele>
        <time>2013-11-13T10:38:10Z</time>
      </trkpt>
      <trkpt lat="43.32862" lon="5.53965">
        <ele>523.7</ele>
        <time>2013-11-13T10:38:14Z</time>
      </trkpt>
      <trkpt lat="43.32856" lon="5.53961">
        <ele>523</ele>
        <time>2013-11-13T10:38:18Z</time>
      </trkpt>
      <trkpt lat="43.32852" lon="5.53959">
        <ele>522.4</ele>
        <time>2013-11-13T10:38:22Z</time>
      </trkpt>
      <trkpt lat="43.32847" lon="5.53957">
        <ele>521.9</ele>
        <time>2013-11-13T10:38:25Z</time>
      </trkpt>
      <trkpt lat="43.32842" lon="5.53952">
        <ele>521</ele>
        <time>2013-11-13T10:38:30Z</time>
      </trkpt>
      <trkpt lat="43.32837" lon="5.5395">
        <ele>520.5</ele>
        <time>2013-11-13T10:38:34Z</time>
      </trkpt>
      <trkpt lat="43.32833" lon="5.53948">
        <ele>520</ele>
        <time>2013-11-13T10:38:37Z</time>
      </trkpt>
      <trkpt lat="43.32828" lon="5.53948">
        <ele>518.8</ele>
        <time>2013-11-13T10:38:43Z</time>
      </trkpt>
      <trkpt lat="43.32822" lon="5.53948">
        <ele>517.5</ele>
        <time>2013-11-13T10:38:49Z</time>
      </trkpt>
      <trkpt lat="43.32816" lon="5.53948">
        <ele>516.5</ele>
        <time>2013-11-13T10:38:54Z</time>
      </trkpt>
      <trkpt lat="43.32812" lon="5.5395">
        <ele>515.8</ele>
        <time>2013-11-13T10:38:58Z</time>
      </trkpt>
      <trkpt lat="43.32807" lon="5.5395">
        <ele>514.9</ele>
        <time>2013-11-13T10:39:02Z</time>
      </trkpt>
      <trkpt lat="43.32802" lon="5.53953">
        <ele>514.2</ele>
        <time>2013-11-13T10:39:06Z</time>
      </trkpt>
      <trkpt lat="43.32797" lon="5.53955">
        <ele>513.5</ele>
        <time>2013-11-13T10:39:10Z</time>
      </trkpt>
      <trkpt lat="43.32792" lon="5.53958">
        <ele>513</ele>
        <time>2013-11-13T10:39:14Z</time>
      </trkpt>
      <trkpt lat="43.32786" lon="5.5396">
        <ele>512</ele>
        <time>2013-11-13T10:39:19Z</time>
      </trkpt>
      <trkpt lat="43.32781" lon="5.53963">
        <ele>511.4</ele>
        <time>2013-11-13T10:39:23Z</time>
      </trkpt>
      <trkpt lat="43.32776" lon="5.53965">
        <ele>510.7</ele>
        <time>2013-11-13T10:39:27Z</time>
      </trkpt>
      <trkpt lat="43.32771" lon="5.53966">
        <ele>509.7</ele>
        <time>2013-11-13T10:39:32Z</time>
      </trkpt>
      <trkpt lat="43.32766" lon="5.53968">
        <ele>508.9</ele>
        <time>2013-11-13T10:39:36Z</time>
      </trkpt>
      <trkpt lat="43.3276" lon="5.5397">
        <ele>508</ele>
        <time>2013-11-13T10:39:41Z</time>
      </trkpt>
      <trkpt lat="43.32755" lon="5.53972">
        <ele>507</ele>
        <time>2013-11-13T10:39:46Z</time>
      </trkpt>
      <trkpt lat="43.3275" lon="5.53973">
        <ele>506</ele>
        <time>2013-11-13T10:39:51Z</time>
      </trkpt>
      <trkpt lat="43.32745" lon="5.53973">
        <ele>505.1</ele>
        <time>2013-11-13T10:39:56Z</time>
      </trkpt>
      <trkpt lat="43.32739" lon="5.53974">
        <ele>504.3</ele>
        <time>2013-11-13T10:40:00Z</time>
      </trkpt>
      <trkpt lat="43.32734" lon="5.53976">
        <ele>503.9</ele>
        <time>2013-11-13T10:40:04Z</time>
      </trkpt>
      <trkpt lat="43.32729" lon="5.53977">
        <ele>503.2</ele>
        <time>2013-11-13T10:40:08Z</time>
      </trkpt>
      <trkpt lat="43.32724" lon="5.53977">
        <ele>502.2</ele>
        <time>2013-11-13T10:40:12Z</time>
      </trkpt>
      <trkpt lat="43.32719" lon="5.53977">
        <ele>501.5</ele>
        <time>2013-11-13T10:40:16Z</time>
      </trkpt>
      <trkpt lat="43.32714" lon="5.53979">
        <ele>500.9</ele>
        <time>2013-11-13T10:40:20Z</time>
      </trkpt>
      <trkpt lat="43.32709" lon="5.53981">
        <ele>500.3</ele>
        <time>2013-11-13T10:40:24Z</time>
      </trkpt>
      <trkpt lat="43.32706" lon="5.53985">
        <ele>500.3</ele>
        <time>2013-11-13T10:40:28Z</time>
      </trkpt>
      <trkpt lat="43.32701" lon="5.53989">
        <ele>500.1</ele>
        <time>2013-11-13T10:40:31Z</time>
      </trkpt>
      <trkpt lat="43.32697" lon="5.53993">
        <ele>500</ele>
        <time>2013-11-13T10:40:35Z</time>
      </trkpt>
      <trkpt lat="43.32692" lon="5.53996">
        <ele>499.7</ele>
        <time>2013-11-13T10:40:39Z</time>
      </trkpt>
      <trkpt lat="43.32687" lon="5.53999">
        <ele>499.3</ele>
        <time>2013-11-13T10:40:42Z</time>
      </trkpt>
      <trkpt lat="43.32683" lon="5.53998">
        <ele>498.3</ele>
        <time>2013-11-13T10:40:47Z</time>
      </trkpt>
      <trkpt lat="43.32679" lon="5.53994">
        <ele>497.1</ele>
        <time>2013-11-13T10:40:53Z</time>
      </trkpt>
      <trkpt lat="43.32674" lon="5.53991">
        <ele>495.8</ele>
        <time>2013-11-13T10:40:59Z</time>
      </trkpt>
      <trkpt lat="43.3267" lon="5.53988">
        <ele>494.6</ele>
        <time>2013-11-13T10:41:05Z</time>
      </trkpt>
      <trkpt lat="43.32664" lon="5.53987">
        <ele>493.4</ele>
        <time>2013-11-13T10:41:10Z</time>
      </trkpt>
      <trkpt lat="43.32658" lon="5.53986">
        <ele>492.2</ele>
        <time>2013-11-13T10:41:16Z</time>
      </trkpt>
      <trkpt lat="43.32654" lon="5.53983">
        <ele>491</ele>
        <time>2013-11-13T10:41:22Z</time>
      </trkpt>
      <trkpt lat="43.32651" lon="5.53978">
        <ele>489.6</ele>
        <time>2013-11-13T10:41:28Z</time>
      </trkpt>
      <trkpt lat="43.32648" lon="5.53971">
        <ele>488.2</ele>
        <time>2013-11-13T10:41:35Z</time>
      </trkpt>
      <trkpt lat="43.32647" lon="5.53964">
        <ele>486.8</ele>
        <time>2013-11-13T10:41:42Z</time>
      </trkpt>
      <trkpt lat="43.32646" lon="5.53957">
        <ele>485.6</ele>
        <time>2013-11-13T10:41:47Z</time>
      </trkpt>
      <trkpt lat="43.32644" lon="5.53951">
        <ele>484.5</ele>
        <time>2013-11-13T10:41:53Z</time>
      </trkpt>
      <trkpt lat="43.32643" lon="5.53944">
        <ele>483.4</ele>
        <time>2013-11-13T10:41:58Z</time>
      </trkpt>
      <trkpt lat="43.32642" lon="5.53937">
        <ele>482.1</ele>
        <time>2013-11-13T10:42:04Z</time>
      </trkpt>
      <trkpt lat="43.3264" lon="5.53931">
        <ele>480.8</ele>
        <time>2013-11-13T10:42:10Z</time>
      </trkpt>
      <trkpt lat="43.32638" lon="5.53924">
        <ele>479.7</ele>
        <time>2013-11-13T10:42:15Z</time>
      </trkpt>
      <trkpt lat="43.32635" lon="5.53917">
        <ele>478.1</ele>
        <time>2013-11-13T10:42:23Z</time>
      </trkpt>
      <trkpt lat="43.32633" lon="5.53912">
        <ele>477.4</ele>
        <time>2013-11-13T10:42:27Z</time>
      </trkpt>
      <trkpt lat="43.3263" lon="5.53906">
        <ele>476.6</ele>
        <time>2013-11-13T10:42:31Z</time>
      </trkpt>
      <trkpt lat="43.32626" lon="5.53901">
        <ele>475.8</ele>
        <time>2013-11-13T10:42:35Z</time>
      </trkpt>
      <trkpt lat="43.32623" lon="5.53895">
        <ele>475</ele>
        <time>2013-11-13T10:42:39Z</time>
      </trkpt>
      <trkpt lat="43.3262" lon="5.53888">
        <ele>474.4</ele>
        <time>2013-11-13T10:42:43Z</time>
      </trkpt>
      <trkpt lat="43.32618" lon="5.53881">
        <ele>473.9</ele>
        <time>2013-11-13T10:42:47Z</time>
      </trkpt>
      <trkpt lat="43.32618" lon="5.53874">
        <ele>473.5</ele>
        <time>2013-11-13T10:42:51Z</time>
      </trkpt>
      <trkpt lat="43.32617" lon="5.53867">
        <ele>473.1</ele>
        <time>2013-11-13T10:42:54Z</time>
      </trkpt>
      <trkpt lat="43.32615" lon="5.53862">
        <ele>472.7</ele>
        <time>2013-11-13T10:42:57Z</time>
      </trkpt>
      <trkpt lat="43.32613" lon="5.53856">
        <ele>472.3</ele>
        <time>2013-11-13T10:43:01Z</time>
      </trkpt>
      <trkpt lat="43.32612" lon="5.53849">
        <ele>471.9</ele>
        <time>2013-11-13T10:43:04Z</time>
      </trkpt>
      <trkpt lat="43.32609" lon="5.53842">
        <ele>471.5</ele>
        <time>2013-11-13T10:43:08Z</time>
      </trkpt>
      <trkpt lat="43.32606" lon="5.53836">
        <ele>471.2</ele>
        <time>2013-11-13T10:43:12Z</time>
      </trkpt>
      <trkpt lat="43.32603" lon="5.53831">
        <ele>470.8</ele>
        <time>2013-11-13T10:43:15Z</time>
      </trkpt>
      <trkpt lat="43.32601" lon="5.53823">
        <ele>470.2</ele>
        <time>2013-11-13T10:43:19Z</time>
      </trkpt>
      <trkpt lat="43.32598" lon="5.53816">
        <ele>469.7</ele>
        <time>2013-11-13T10:43:23Z</time>
      </trkpt>
      <trkpt lat="43.32595" lon="5.53809">
        <ele>469.2</ele>
        <time>2013-11-13T10:43:27Z</time>
      </trkpt>
      <trkpt lat="43.32593" lon="5.53803">
        <ele>468.8</ele>
        <time>2013-11-13T10:43:31Z</time>
      </trkpt>
      <trkpt lat="43.3259" lon="5.53797">
        <ele>468.4</ele>
        <time>2013-11-13T10:43:34Z</time>
      </trkpt>
      <trkpt lat="43.32588" lon="5.5379">
        <ele>468</ele>
        <time>2013-11-13T10:43:38Z</time>
      </trkpt>
      <trkpt lat="43.32586" lon="5.53783">
        <ele>467.6</ele>
        <time>2013-11-13T10:43:42Z</time>
      </trkpt>
      <trkpt lat="43.32584" lon="5.53777">
        <ele>467.3</ele>
        <time>2013-11-13T10:43:45Z</time>
      </trkpt>
      <trkpt lat="43.32581" lon="5.5377">
        <ele>466.6</ele>
        <time>2013-11-13T10:43:49Z</time>
      </trkpt>
      <trkpt lat="43.32579" lon="5.53764">
        <ele>466.2</ele>
        <time>2013-11-13T10:43:53Z</time>
      </trkpt>
      <trkpt lat="43.32576" lon="5.53757">
        <ele>465.5</ele>
        <time>2013-11-13T10:43:57Z</time>
      </trkpt>
      <trkpt lat="43.32574" lon="5.53751">
        <ele>465.1</ele>
        <time>2013-11-13T10:44:00Z</time>
      </trkpt>
      <trkpt lat="43.3257" lon="5.53746">
        <ele>464.6</ele>
        <time>2013-11-13T10:44:04Z</time>
      </trkpt>
      <trkpt lat="43.32567" lon="5.5374">
        <ele>464.1</ele>
        <time>2013-11-13T10:44:08Z</time>
      </trkpt>
      <trkpt lat="43.32563" lon="5.53736">
        <ele>463.7</ele>
        <time>2013-11-13T10:44:11Z</time>
      </trkpt>
      <trkpt lat="43.32558" lon="5.53732">
        <ele>463.2</ele>
        <time>2013-11-13T10:44:15Z</time>
      </trkpt>
      <trkpt lat="43.32552" lon="5.5373">
        <ele>462.7</ele>
        <time>2013-11-13T10:44:19Z</time>
      </trkpt>
      <trkpt lat="43.32546" lon="5.53729">
        <ele>462.3</ele>
        <time>2013-11-13T10:44:23Z</time>
      </trkpt>
      <trkpt lat="43.32542" lon="5.53728">
        <ele>462</ele>
        <time>2013-11-13T10:44:26Z</time>
      </trkpt>
      <trkpt lat="43.32536" lon="5.53728">
        <ele>461.6</ele>
        <time>2013-11-13T10:44:30Z</time>
      </trkpt>
      <trkpt lat="43.32531" lon="5.53727">
        <ele>461.2</ele>
        <time>2013-11-13T10:44:33Z</time>
      </trkpt>
      <trkpt lat="43.32526" lon="5.53728">
        <ele>460.9</ele>
        <time>2013-11-13T10:44:37Z</time>
      </trkpt>
      <trkpt lat="43.32521" lon="5.53728">
        <ele>460.5</ele>
        <time>2013-11-13T10:44:40Z</time>
      </trkpt>
      <trkpt lat="43.32516" lon="5.53728">
        <ele>460.2</ele>
        <time>2013-11-13T10:44:44Z</time>
      </trkpt>
      <trkpt lat="43.32511" lon="5.53727">
        <ele>459.9</ele>
        <time>2013-11-13T10:44:47Z</time>
      </trkpt>
      <trkpt lat="43.32506" lon="5.53725">
        <ele>459.6</ele>
        <time>2013-11-13T10:44:50Z</time>
      </trkpt>
      <trkpt lat="43.32502" lon="5.53725">
        <ele>459.3</ele>
        <time>2013-11-13T10:44:54Z</time>
      </trkpt>
      <trkpt lat="43.32497" lon="5.53725">
        <ele>458.9</ele>
        <time>2013-11-13T10:44:57Z</time>
      </trkpt>
      <trkpt lat="43.32491" lon="5.53725">
        <ele>458.5</ele>
        <time>2013-11-13T10:45:01Z</time>
      </trkpt>
      <trkpt lat="43.32487" lon="5.53725">
        <ele>458.1</ele>
        <time>2013-11-13T10:45:04Z</time>
      </trkpt>
      <trkpt lat="43.32482" lon="5.53724">
        <ele>457.6</ele>
        <time>2013-11-13T10:45:07Z</time>
      </trkpt>
      <trkpt lat="43.32476" lon="5.53724">
        <ele>457.2</ele>
        <time>2013-11-13T10:45:11Z</time>
      </trkpt>
      <trkpt lat="43.32471" lon="5.53724">
        <ele>456.7</ele>
        <time>2013-11-13T10:45:15Z</time>
      </trkpt>
      <trkpt lat="43.32466" lon="5.53723">
        <ele>456.3</ele>
        <time>2013-11-13T10:45:18Z</time>
      </trkpt>
      <trkpt lat="43.32461" lon="5.53723">
        <ele>455.9</ele>
        <time>2013-11-13T10:45:22Z</time>
      </trkpt>
      <trkpt lat="43.32457" lon="5.53724">
        <ele>455.5</ele>
        <time>2013-11-13T10:45:25Z</time>
      </trkpt>
      <trkpt lat="43.32452" lon="5.53724">
        <ele>455</ele>
        <time>2013-11-13T10:45:28Z</time>
      </trkpt>
      <trkpt lat="43.32446" lon="5.53724">
        <ele>454.6</ele>
        <time>2013-11-13T10:45:32Z</time>
      </trkpt>
      <trkpt lat="43.32441" lon="5.53725">
        <ele>454.1</ele>
        <time>2013-11-13T10:45:36Z</time>
      </trkpt>
      <trkpt lat="43.32435" lon="5.53725">
        <ele>453.6</ele>
        <time>2013-11-13T10:45:40Z</time>
      </trkpt>
      <trkpt lat="43.3243" lon="5.53725">
        <ele>453.2</ele>
        <time>2013-11-13T10:45:43Z</time>
      </trkpt>
      <trkpt lat="43.32425" lon="5.53724">
        <ele>452.7</ele>
        <time>2013-11-13T10:45:47Z</time>
      </trkpt>
      <trkpt lat="43.3242" lon="5.53724">
        <ele>452.3</ele>
        <time>2013-11-13T10:45:50Z</time>
      </trkpt>
      <trkpt lat="43.32415" lon="5.53724">
        <ele>451.9</ele>
        <time>2013-11-13T10:45:53Z</time>
      </trkpt>
      <trkpt lat="43.32411" lon="5.53722">
        <ele>451.6</ele>
        <time>2013-11-13T10:45:57Z</time>
      </trkpt>
      <trkpt lat="43.32406" lon="5.53721">
        <ele>451.3</ele>
        <time>2013-11-13T10:46:00Z</time>
      </trkpt>
      <trkpt lat="43.32401" lon="5.53719">
        <ele>451.1</ele>
        <time>2013-11-13T10:46:03Z</time>
      </trkpt>
      <trkpt lat="43.32397" lon="5.53719">
        <ele>450.8</ele>
        <time>2013-11-13T10:46:06Z</time>
      </trkpt>
      <trkpt lat="43.32391" lon="5.53719">
        <ele>450.4</ele>
        <time>2013-11-13T10:46:10Z</time>
      </trkpt>
      <trkpt lat="43.32386" lon="5.5372">
        <ele>450.1</ele>
        <time>2013-11-13T10:46:14Z</time>
      </trkpt>
      <trkpt lat="43.32382" lon="5.53719">
        <ele>449.9</ele>
        <time>2013-11-13T10:46:17Z</time>
      </trkpt>
      <trkpt lat="43.32377" lon="5.53718">
        <ele>449.6</ele>
        <time>2013-11-13T10:46:20Z</time>
      </trkpt>
      <trkpt lat="43.32372" lon="5.53719">
        <ele>449.2</ele>
        <time>2013-11-13T10:46:24Z</time>
      </trkpt>
      <trkpt lat="43.32367" lon="5.5372">
        <ele>449</ele>
        <time>2013-11-13T10:46:27Z</time>
      </trkpt>
      <trkpt lat="43.32362" lon="5.5372">
        <ele>448.6</ele>
        <time>2013-11-13T10:46:31Z</time>
      </trkpt>
      <trkpt lat="43.32356" lon="5.53719">
        <ele>448.3</ele>
        <time>2013-11-13T10:46:34Z</time>
      </trkpt>
      <trkpt lat="43.32351" lon="5.53718">
        <ele>447.9</ele>
        <time>2013-11-13T10:46:38Z</time>
      </trkpt>
      <trkpt lat="43.32346" lon="5.53717">
        <ele>447.6</ele>
        <time>2013-11-13T10:46:41Z</time>
      </trkpt>
      <trkpt lat="43.32341" lon="5.53716">
        <ele>447.2</ele>
        <time>2013-11-13T10:46:45Z</time>
      </trkpt>
      <trkpt lat="43.32336" lon="5.53715">
        <ele>446.9</ele>
        <time>2013-11-13T10:46:48Z</time>
      </trkpt>
      <trkpt lat="43.32331" lon="5.53712">
        <ele>446.3</ele>
        <time>2013-11-13T10:46:52Z</time>
      </trkpt>
      <trkpt lat="43.32326" lon="5.5371">
        <ele>445.5</ele>
        <time>2013-11-13T10:46:57Z</time>
      </trkpt>
      <trkpt lat="43.32321" lon="5.53707">
        <ele>444.7</ele>
        <time>2013-11-13T10:47:01Z</time>
      </trkpt>
      <trkpt lat="43.32316" lon="5.53705">
        <ele>444</ele>
        <time>2013-11-13T10:47:05Z</time>
      </trkpt>
      <trkpt lat="43.32311" lon="5.53704">
        <ele>443.3</ele>
        <time>2013-11-13T10:47:09Z</time>
      </trkpt>
      <trkpt lat="43.32307" lon="5.53705">
        <ele>442.7</ele>
        <time>2013-11-13T10:47:12Z</time>
      </trkpt>
      <trkpt lat="43.32302" lon="5.53706">
        <ele>442</ele>
        <time>2013-11-13T10:47:16Z</time>
      </trkpt>
      <trkpt lat="43.32301" lon="5.53712">
        <ele>442.1</ele>
        <time>2013-11-13T10:47:20Z</time>
      </trkpt>
      <trkpt lat="43.32299" lon="5.53719">
        <ele>442.1</ele>
        <time>2013-11-13T10:47:24Z</time>
      </trkpt>
      <trkpt lat="43.32298" lon="5.53725">
        <ele>442.1</ele>
        <time>2013-11-13T10:47:28Z</time>
      </trkpt>
      <trkpt lat="43.32295" lon="5.53732">
        <ele>441.9</ele>
        <time>2013-11-13T10:47:32Z</time>
      </trkpt>
      <trkpt lat="43.32289" lon="5.53732">
        <ele>441.1</ele>
        <time>2013-11-13T10:47:37Z</time>
      </trkpt>
      <trkpt lat="43.32285" lon="5.5373">
        <ele>440.5</ele>
        <time>2013-11-13T10:47:40Z</time>
      </trkpt>
      <trkpt lat="43.3228" lon="5.53729">
        <ele>439.8</ele>
        <time>2013-11-13T10:47:44Z</time>
      </trkpt>
      <trkpt lat="43.32276" lon="5.53727">
        <ele>439.1</ele>
        <time>2013-11-13T10:47:48Z</time>
      </trkpt>
      <trkpt lat="43.32272" lon="5.53723">
        <ele>438.4</ele>
        <time>2013-11-13T10:47:52Z</time>
      </trkpt>
      <trkpt lat="43.32267" lon="5.53722">
        <ele>437.7</ele>
        <time>2013-11-13T10:47:55Z</time>
      </trkpt>
      <trkpt lat="43.32262" lon="5.53725">
        <ele>437.1</ele>
        <time>2013-11-13T10:47:59Z</time>
      </trkpt>
      <trkpt lat="43.32259" lon="5.5373">
        <ele>436.7</ele>
        <time>2013-11-13T10:48:03Z</time>
      </trkpt>
      <trkpt lat="43.32256" lon="5.53735">
        <ele>436.5</ele>
        <time>2013-11-13T10:48:06Z</time>
      </trkpt>
      <trkpt lat="43.32254" lon="5.53741">
        <ele>436.3</ele>
        <time>2013-11-13T10:48:09Z</time>
      </trkpt>
      <trkpt lat="43.32252" lon="5.53747">
        <ele>436.2</ele>
        <time>2013-11-13T10:48:13Z</time>
      </trkpt>
      <trkpt lat="43.32251" lon="5.53754">
        <ele>435.7</ele>
        <time>2013-11-13T10:48:16Z</time>
      </trkpt>
      <trkpt lat="43.32248" lon="5.53759">
        <ele>434.5</ele>
        <time>2013-11-13T10:48:22Z</time>
      </trkpt>
      <trkpt lat="43.32245" lon="5.53765">
        <ele>432.9</ele>
        <time>2013-11-13T10:48:29Z</time>
      </trkpt>
      <trkpt lat="43.32242" lon="5.5377">
        <ele>431.5</ele>
        <time>2013-11-13T10:48:36Z</time>
      </trkpt>
      <trkpt lat="43.32242" lon="5.53776">
        <ele>431</ele>
        <time>2013-11-13T10:48:39Z</time>
      </trkpt>
      <trkpt lat="43.32239" lon="5.53782">
        <ele>429.8</ele>
        <time>2013-11-13T10:48:45Z</time>
      </trkpt>
      <trkpt lat="43.32234" lon="5.53783">
        <ele>428.5</ele>
        <time>2013-11-13T10:48:51Z</time>
      </trkpt>
      <trkpt lat="43.3223" lon="5.53787">
        <ele>427.1</ele>
        <time>2013-11-13T10:48:57Z</time>
      </trkpt>
      <trkpt lat="43.32227" lon="5.53792">
        <ele>426.1</ele>
        <time>2013-11-13T10:49:02Z</time>
      </trkpt>
      <trkpt lat="43.32222" lon="5.53792">
        <ele>425</ele>
        <time>2013-11-13T10:49:08Z</time>
      </trkpt>
      <trkpt lat="43.32218" lon="5.53797">
        <ele>424</ele>
        <time>2013-11-13T10:49:13Z</time>
      </trkpt>
      <trkpt lat="43.32213" lon="5.53797">
        <ele>423</ele>
        <time>2013-11-13T10:49:17Z</time>
      </trkpt>
      <trkpt lat="43.32209" lon="5.538">
        <ele>421.9</ele>
        <time>2013-11-13T10:49:23Z</time>
      </trkpt>
      <trkpt lat="43.32208" lon="5.53807">
        <ele>421.5</ele>
        <time>2013-11-13T10:49:26Z</time>
      </trkpt>
      <trkpt lat="43.32204" lon="5.53811">
        <ele>420.7</ele>
        <time>2013-11-13T10:49:30Z</time>
      </trkpt>
      <trkpt lat="43.32199" lon="5.53814">
        <ele>419.8</ele>
        <time>2013-11-13T10:49:35Z</time>
      </trkpt>
      <trkpt lat="43.32198" lon="5.5382">
        <ele>419.5</ele>
        <time>2013-11-13T10:49:38Z</time>
      </trkpt>
      <trkpt lat="43.32199" lon="5.53827">
        <ele>419.6</ele>
        <time>2013-11-13T10:49:42Z</time>
      </trkpt>
      <trkpt lat="43.32197" lon="5.53833">
        <ele>419.3</ele>
        <time>2013-11-13T10:49:45Z</time>
      </trkpt>
      <trkpt lat="43.32194" lon="5.53838">
        <ele>418.4</ele>
        <time>2013-11-13T10:49:50Z</time>
      </trkpt>
      <trkpt lat="43.32189" lon="5.53839">
        <ele>417.7</ele>
        <time>2013-11-13T10:49:54Z</time>
      </trkpt>
      <trkpt lat="43.32187" lon="5.53845">
        <ele>416.8</ele>
        <time>2013-11-13T10:49:58Z</time>
      </trkpt>
      <trkpt lat="43.32185" lon="5.53852">
        <ele>416.1</ele>
        <time>2013-11-13T10:50:02Z</time>
      </trkpt>
      <trkpt lat="43.32185" lon="5.53859">
        <ele>415.5</ele>
        <time>2013-11-13T10:50:06Z</time>
      </trkpt>
      <trkpt lat="43.32183" lon="5.53866">
        <ele>414.8</ele>
        <time>2013-11-13T10:50:10Z</time>
      </trkpt>
      <trkpt lat="43.32181" lon="5.53873">
        <ele>414.2</ele>
        <time>2013-11-13T10:50:14Z</time>
      </trkpt>
      <trkpt lat="43.32181" lon="5.5388">
        <ele>413.6</ele>
        <time>2013-11-13T10:50:18Z</time>
      </trkpt>
      <trkpt lat="43.32177" lon="5.53884">
        <ele>413.3</ele>
        <time>2013-11-13T10:50:21Z</time>
      </trkpt>
      <trkpt lat="43.32174" lon="5.53889">
        <ele>413</ele>
        <time>2013-11-13T10:50:24Z</time>
      </trkpt>
      <trkpt lat="43.32171" lon="5.53895">
        <ele>412.7</ele>
        <time>2013-11-13T10:50:28Z</time>
      </trkpt>
      <trkpt lat="43.32166" lon="5.53898">
        <ele>412.4</ele>
        <time>2013-11-13T10:50:32Z</time>
      </trkpt>
      <trkpt lat="43.32161" lon="5.539">
        <ele>411.3</ele>
        <time>2013-11-13T10:50:37Z</time>
      </trkpt>
      <trkpt lat="43.32156" lon="5.53898">
        <ele>410.3</ele>
        <time>2013-11-13T10:50:42Z</time>
      </trkpt>
      <trkpt lat="43.32151" lon="5.53896">
        <ele>409.2</ele>
        <time>2013-11-13T10:50:47Z</time>
      </trkpt>
      <trkpt lat="43.32147" lon="5.53893">
        <ele>408.4</ele>
        <time>2013-11-13T10:50:51Z</time>
      </trkpt>
      <trkpt lat="43.32142" lon="5.53892">
        <ele>407.4</ele>
        <time>2013-11-13T10:50:56Z</time>
      </trkpt>
      <trkpt lat="43.32139" lon="5.53897">
        <ele>406.6</ele>
        <time>2013-11-13T10:51:00Z</time>
      </trkpt>
      <trkpt lat="43.32139" lon="5.53904">
        <ele>406.5</ele>
        <time>2013-11-13T10:51:04Z</time>
      </trkpt>
      <trkpt lat="43.3214" lon="5.5391">
        <ele>406.4</ele>
        <time>2013-11-13T10:51:07Z</time>
      </trkpt>
      <trkpt lat="43.32139" lon="5.53916">
        <ele>406.1</ele>
        <time>2013-11-13T10:51:10Z</time>
      </trkpt>
      <trkpt lat="43.32136" lon="5.5392">
        <ele>404.5</ele>
        <time>2013-11-13T10:51:18Z</time>
      </trkpt>
      <trkpt lat="43.32132" lon="5.53923">
        <ele>403</ele>
        <time>2013-11-13T10:51:25Z</time>
      </trkpt>
      <trkpt lat="43.32127" lon="5.53922">
        <ele>402.3</ele>
        <time>2013-11-13T10:51:29Z</time>
      </trkpt>
      <trkpt lat="43.32123" lon="5.53918">
        <ele>402.5</ele>
        <time>2013-11-13T10:51:33Z</time>
      </trkpt>
      <trkpt lat="43.32121" lon="5.53912">
        <ele>402.3</ele>
        <time>2013-11-13T10:51:36Z</time>
      </trkpt>
      <trkpt lat="43.32118" lon="5.53918">
        <ele>401.4</ele>
        <time>2013-11-13T10:51:41Z</time>
      </trkpt>
      <trkpt lat="43.32114" lon="5.53921">
        <ele>399.9</ele>
        <time>2013-11-13T10:51:48Z</time>
      </trkpt>
      <trkpt lat="43.3211" lon="5.53921">
        <ele>398.8</ele>
        <time>2013-11-13T10:51:53Z</time>
      </trkpt>
      <trkpt lat="43.32105" lon="5.53923">
        <ele>397.4</ele>
        <time>2013-11-13T10:52:00Z</time>
      </trkpt>
      <trkpt lat="43.321" lon="5.53922">
        <ele>396.5</ele>
        <time>2013-11-13T10:52:04Z</time>
      </trkpt>
      <trkpt lat="43.32097" lon="5.53918">
        <ele>396.6</ele>
        <time>2013-11-13T10:52:08Z</time>
      </trkpt>
      <trkpt lat="43.32092" lon="5.53921">
        <ele>395.1</ele>
        <time>2013-11-13T10:52:15Z</time>
      </trkpt>
      <trkpt lat="43.32089" lon="5.53925">
        <ele>393.7</ele>
        <time>2013-11-13T10:52:22Z</time>
      </trkpt>
      <trkpt lat="43.32089" lon="5.53931">
        <ele>392.7</ele>
        <time>2013-11-13T10:52:27Z</time>
      </trkpt>
      <trkpt lat="43.32085" lon="5.53932">
        <ele>391.7</ele>
        <time>2013-11-13T10:52:31Z</time>
      </trkpt>
      <trkpt lat="43.32081" lon="5.53929">
        <ele>390.5</ele>
        <time>2013-11-13T10:52:37Z</time>
      </trkpt>
      <trkpt lat="43.32077" lon="5.53926">
        <ele>389</ele>
        <time>2013-11-13T10:52:44Z</time>
      </trkpt>
      <trkpt lat="43.32072" lon="5.53924">
        <ele>386.5</ele>
        <time>2013-11-13T10:52:56Z</time>
      </trkpt>
      <trkpt lat="43.32067" lon="5.53925">
        <ele>384.1</ele>
        <time>2013-11-13T10:53:07Z</time>
      </trkpt>
      <trkpt lat="43.32064" lon="5.5393">
        <ele>381.9</ele>
        <time>2013-11-13T10:53:18Z</time>
      </trkpt>
      <trkpt lat="43.32061" lon="5.53934">
        <ele>379.5</ele>
        <time>2013-11-13T10:53:28Z</time>
      </trkpt>
      <trkpt lat="43.32058" lon="5.5394">
        <ele>377.4</ele>
        <time>2013-11-13T10:53:39Z</time>
      </trkpt>
      <trkpt lat="43.32057" lon="5.53947">
        <ele>376.1</ele>
        <time>2013-11-13T10:53:45Z</time>
      </trkpt>
      <trkpt lat="43.32056" lon="5.53953">
        <ele>374.7</ele>
        <time>2013-11-13T10:53:52Z</time>
      </trkpt>
      <trkpt lat="43.32058" lon="5.53959">
        <ele>374.4</ele>
        <time>2013-11-13T10:53:55Z</time>
      </trkpt>
      <trkpt lat="43.3206" lon="5.53966">
        <ele>374.4</ele>
        <time>2013-11-13T10:53:59Z</time>
      </trkpt>
      <trkpt lat="43.32061" lon="5.53972">
        <ele>374.1</ele>
        <time>2013-11-13T10:54:02Z</time>
      </trkpt>
      <trkpt lat="43.32059" lon="5.53978">
        <ele>372.4</ele>
        <time>2013-11-13T10:54:10Z</time>
      </trkpt>
      <trkpt lat="43.32061" lon="5.53984">
        <ele>372.5</ele>
        <time>2013-11-13T10:54:14Z</time>
      </trkpt>
      <trkpt lat="43.32061" lon="5.5399">
        <ele>371.3</ele>
        <time>2013-11-13T10:54:20Z</time>
      </trkpt>
      <trkpt lat="43.32057" lon="5.53995">
        <ele>369.1</ele>
        <time>2013-11-13T10:54:30Z</time>
      </trkpt>
      <trkpt lat="43.32053" lon="5.53992">
        <ele>367.5</ele>
        <time>2013-11-13T10:54:38Z</time>
      </trkpt>
      <trkpt lat="43.32049" lon="5.53987">
        <ele>366.7</ele>
        <time>2013-11-13T10:54:42Z</time>
      </trkpt>
      <trkpt lat="43.32046" lon="5.53984">
        <ele>365.3</ele>
        <time>2013-11-13T10:54:49Z</time>
      </trkpt>
      <trkpt lat="43.32042" lon="5.5398">
        <ele>364.2</ele>
        <time>2013-11-13T10:54:54Z</time>
      </trkpt>
      <trkpt lat="43.32038" lon="5.53976">
        <ele>362.8</ele>
        <time>2013-11-13T10:55:00Z</time>
      </trkpt>
      <trkpt lat="43.32035" lon="5.5397">
        <ele>362.2</ele>
        <time>2013-11-13T10:55:04Z</time>
      </trkpt>
      <trkpt lat="43.32032" lon="5.53965">
        <ele>361.3</ele>
        <time>2013-11-13T10:55:09Z</time>
      </trkpt>
      <trkpt lat="43.32028" lon="5.53961">
        <ele>360</ele>
        <time>2013-11-13T10:55:15Z</time>
      </trkpt>
      <trkpt lat="43.32024" lon="5.53958">
        <ele>358.1</ele>
        <time>2013-11-13T10:55:24Z</time>
      </trkpt>
      <trkpt lat="43.32021" lon="5.53953">
        <ele>357.2</ele>
        <time>2013-11-13T10:55:28Z</time>
      </trkpt>
      <trkpt lat="43.32016" lon="5.53953">
        <ele>354.7</ele>
        <time>2013-11-13T10:55:40Z</time>
      </trkpt>
      <trkpt lat="43.32012" lon="5.53957">
        <ele>352.5</ele>
        <time>2013-11-13T10:55:51Z</time>
      </trkpt>
      <trkpt lat="43.32008" lon="5.53961">
        <ele>350.3</ele>
        <time>2013-11-13T10:56:02Z</time>
      </trkpt>
      <trkpt lat="43.32006" lon="5.53956">
        <ele>349.4</ele>
        <time>2013-11-13T10:56:06Z</time>
      </trkpt>
      <trkpt lat="43.32003" lon="5.53951">
        <ele>348.5</ele>
        <time>2013-11-13T10:56:10Z</time>
      </trkpt>
      <trkpt lat="43.32" lon="5.53946">
        <ele>347.3</ele>
        <time>2013-11-13T10:56:16Z</time>
      </trkpt>
      <trkpt lat="43.31997" lon="5.53941">
        <ele>346.5</ele>
        <time>2013-11-13T10:56:20Z</time>
      </trkpt>
      <trkpt lat="43.31992" lon="5.53942">
        <ele>344.4</ele>
        <time>2013-11-13T10:56:31Z</time>
      </trkpt>
      <trkpt lat="43.31994" lon="5.53936">
        <ele>345.4</ele>
        <time>2013-11-13T10:56:39Z</time>
      </trkpt>
      <trkpt lat="43.31992" lon="5.5393">
        <ele>345.2</ele>
        <time>2013-11-13T10:56:42Z</time>
      </trkpt>
      <trkpt lat="43.31989" lon="5.53923">
        <ele>343.9</ele>
        <time>2013-11-13T10:56:49Z</time>
      </trkpt>
      <trkpt lat="43.31986" lon="5.53918">
        <ele>343</ele>
        <time>2013-11-13T10:56:53Z</time>
      </trkpt>
      <trkpt lat="43.31984" lon="5.53911">
        <ele>342.8</ele>
        <time>2013-11-13T10:56:57Z</time>
      </trkpt>
      <trkpt lat="43.31981" lon="5.53906">
        <ele>342</ele>
        <time>2013-11-13T10:57:01Z</time>
      </trkpt>
      <trkpt lat="43.31977" lon="5.53903">
        <ele>340.1</ele>
        <time>2013-11-13T10:57:10Z</time>
      </trkpt>
      <trkpt lat="43.31973" lon="5.539">
        <ele>338.3</ele>
        <time>2013-11-13T10:57:19Z</time>
      </trkpt>
      <trkpt lat="43.31969" lon="5.53896">
        <ele>336.8</ele>
        <time>2013-11-13T10:57:26Z</time>
      </trkpt>
      <trkpt lat="43.31968" lon="5.5389">
        <ele>337.2</ele>
        <time>2013-11-13T10:57:31Z</time>
      </trkpt>
      <trkpt lat="43.31965" lon="5.53896">
        <ele>334.9</ele>
        <time>2013-11-13T10:57:42Z</time>
      </trkpt>
      <trkpt lat="43.31964" lon="5.53903">
        <ele>333.7</ele>
        <time>2013-11-13T10:57:48Z</time>
      </trkpt>
      <trkpt lat="43.31965" lon="5.5391">
        <ele>333.3</ele>
        <time>2013-11-13T10:57:51Z</time>
      </trkpt>
      <trkpt lat="43.31963" lon="5.53916">
        <ele>331.7</ele>
        <time>2013-11-13T10:57:59Z</time>
      </trkpt>
      <trkpt lat="43.31961" lon="5.53923">
        <ele>330.6</ele>
        <time>2013-11-13T10:58:04Z</time>
      </trkpt>
      <trkpt lat="43.31959" lon="5.53928">
        <ele>329.2</ele>
        <time>2013-11-13T10:58:11Z</time>
      </trkpt>
      <trkpt lat="43.31958" lon="5.53935">
        <ele>328.7</ele>
        <time>2013-11-13T10:58:14Z</time>
      </trkpt>
      <trkpt lat="43.31958" lon="5.53942">
        <ele>328.6</ele>
        <time>2013-11-13T10:58:18Z</time>
      </trkpt>
      <trkpt lat="43.31954" lon="5.53946">
        <ele>326.5</ele>
        <time>2013-11-13T10:58:28Z</time>
      </trkpt>
      <trkpt lat="43.31952" lon="5.53952">
        <ele>325.6</ele>
        <time>2013-11-13T10:58:33Z</time>
      </trkpt>
      <trkpt lat="43.31951" lon="5.53958">
        <ele>325.1</ele>
        <time>2013-11-13T10:58:36Z</time>
      </trkpt>
      <trkpt lat="43.31951" lon="5.53966">
        <ele>325</ele>
        <time>2013-11-13T10:58:40Z</time>
      </trkpt>
      <trkpt lat="43.3195" lon="5.53972">
        <ele>324.3</ele>
        <time>2013-11-13T10:58:44Z</time>
      </trkpt>
      <trkpt lat="43.31948" lon="5.53978">
        <ele>323.3</ele>
        <time>2013-11-13T10:58:49Z</time>
      </trkpt>
      <trkpt lat="43.31947" lon="5.53986">
        <ele>322.8</ele>
        <time>2013-11-13T10:58:53Z</time>
      </trkpt>
      <trkpt lat="43.31945" lon="5.53993">
        <ele>322.1</ele>
        <time>2013-11-13T10:58:57Z</time>
      </trkpt>
      <trkpt lat="43.31944" lon="5.53999">
        <ele>321.6</ele>
        <time>2013-11-13T10:59:00Z</time>
      </trkpt>
      <trkpt lat="43.31943" lon="5.54007">
        <ele>320.9</ele>
        <time>2013-11-13T10:59:04Z</time>
      </trkpt>
      <trkpt lat="43.31939" lon="5.54011">
        <ele>319.4</ele>
        <time>2013-11-13T10:59:11Z</time>
      </trkpt>
      <trkpt lat="43.31935" lon="5.54016">
        <ele>317.9</ele>
        <time>2013-11-13T10:59:18Z</time>
      </trkpt>
      <trkpt lat="43.31932" lon="5.54022">
        <ele>317.1</ele>
        <time>2013-11-13T10:59:22Z</time>
      </trkpt>
      <trkpt lat="43.31931" lon="5.54029">
        <ele>316.7</ele>
        <time>2013-11-13T10:59:26Z</time>
      </trkpt>
      <trkpt lat="43.31927" lon="5.54034">
        <ele>315.5</ele>
        <time>2013-11-13T10:59:32Z</time>
      </trkpt>
      <trkpt lat="43.31925" lon="5.5404">
        <ele>314.9</ele>
        <time>2013-11-13T10:59:35Z</time>
      </trkpt>
      <trkpt lat="43.31924" lon="5.54046">
        <ele>314.5</ele>
        <time>2013-11-13T10:59:39Z</time>
      </trkpt>
      <trkpt lat="43.31922" lon="5.54052">
        <ele>313.9</ele>
        <time>2013-11-13T10:59:42Z</time>
      </trkpt>
      <trkpt lat="43.31917" lon="5.54053">
        <ele>312.4</ele>
        <time>2013-11-13T10:59:50Z</time>
      </trkpt>
      <trkpt lat="43.31916" lon="5.54046">
        <ele>312.1</ele>
        <time>2013-11-13T10:59:53Z</time>
      </trkpt>
      <trkpt lat="43.31917" lon="5.5404">
        <ele>312</ele>
        <time>2013-11-13T10:59:56Z</time>
      </trkpt>
      <trkpt lat="43.31917" lon="5.54034">
        <ele>312</ele>
        <time>2013-11-13T11:00:00Z</time>
      </trkpt>
      <trkpt lat="43.31917" lon="5.54027">
        <ele>311.6</ele>
        <time>2013-11-13T11:00:04Z</time>
      </trkpt>
      <trkpt lat="43.31915" lon="5.5402">
        <ele>311.3</ele>
        <time>2013-11-13T11:00:07Z</time>
      </trkpt>
      <trkpt lat="43.31915" lon="5.54014">
        <ele>311.1</ele>
        <time>2013-11-13T11:00:10Z</time>
      </trkpt>
      <trkpt lat="43.31915" lon="5.54007">
        <ele>311</ele>
        <time>2013-11-13T11:00:14Z</time>
      </trkpt>
      <trkpt lat="43.31915" lon="5.54">
        <ele>310.8</ele>
        <time>2013-11-13T11:00:18Z</time>
      </trkpt>
      <trkpt lat="43.31915" lon="5.53994">
        <ele>310.6</ele>
        <time>2013-11-13T11:00:21Z</time>
      </trkpt>
      <trkpt lat="43.31915" lon="5.53987">
        <ele>310.5</ele>
        <time>2013-11-13T11:00:25Z</time>
      </trkpt>
      <trkpt lat="43.31916" lon="5.53981">
        <ele>310.4</ele>
        <time>2013-11-13T11:00:28Z</time>
      </trkpt>
      <trkpt lat="43.31917" lon="5.53973">
        <ele>310.5</ele>
        <time>2013-11-13T11:00:33Z</time>
      </trkpt>
      <trkpt lat="43.31917" lon="5.53966">
        <ele>310.4</ele>
        <time>2013-11-13T11:00:37Z</time>
      </trkpt>
      <trkpt lat="43.31917" lon="5.53959">
        <ele>310.1</ele>
        <time>2013-11-13T11:00:40Z</time>
      </trkpt>
      <trkpt lat="43.31917" lon="5.53951">
        <ele>309.8</ele>
        <time>2013-11-13T11:00:44Z</time>
      </trkpt>
      <trkpt lat="43.31916" lon="5.53944">
        <ele>309.5</ele>
        <time>2013-11-13T11:00:48Z</time>
      </trkpt>
      <trkpt lat="43.31918" lon="5.53937">
        <ele>309.9</ele>
        <time>2013-11-13T11:00:53Z</time>
      </trkpt>
      <trkpt lat="43.31919" lon="5.5393">
        <ele>310.3</ele>
        <time>2013-11-13T11:00:58Z</time>
      </trkpt>
      <trkpt lat="43.31919" lon="5.53922">
        <ele>310</ele>
        <time>2013-11-13T11:01:02Z</time>
      </trkpt>
      <trkpt lat="43.31918" lon="5.53916">
        <ele>309.7</ele>
        <time>2013-11-13T11:01:05Z</time>
      </trkpt>
      <trkpt lat="43.31918" lon="5.5391">
        <ele>310.1</ele>
        <time>2013-11-13T11:01:10Z</time>
      </trkpt>
      <trkpt lat="43.31917" lon="5.53903">
        <ele>310.3</ele>
        <time>2013-11-13T11:01:14Z</time>
      </trkpt>
      <trkpt lat="43.31914" lon="5.53897">
        <ele>310.3</ele>
        <time>2013-11-13T11:01:18Z</time>
      </trkpt>
      <trkpt lat="43.31912" lon="5.53891">
        <ele>310.2</ele>
        <time>2013-11-13T11:01:22Z</time>
      </trkpt>
      <trkpt lat="43.3191" lon="5.53884">
        <ele>310.3</ele>
        <time>2013-11-13T11:01:27Z</time>
      </trkpt>
      <trkpt lat="43.31909" lon="5.53878">
        <ele>310.4</ele>
        <time>2013-11-13T11:01:30Z</time>
      </trkpt>
      <trkpt lat="43.31908" lon="5.53871">
        <ele>310.7</ele>
        <time>2013-11-13T11:01:35Z</time>
      </trkpt>
      <trkpt lat="43.31905" lon="5.53865">
        <ele>310.1</ele>
        <time>2013-11-13T11:01:39Z</time>
      </trkpt>
      <trkpt lat="43.31901" lon="5.53861">
        <ele>309</ele>
        <time>2013-11-13T11:01:44Z</time>
      </trkpt>
      <trkpt lat="43.31898" lon="5.53856">
        <ele>308.2</ele>
        <time>2013-11-13T11:01:48Z</time>
      </trkpt>
      <trkpt lat="43.31895" lon="5.53851">
        <ele>307.5</ele>
        <time>2013-11-13T11:01:52Z</time>
      </trkpt>
      <trkpt lat="43.31891" lon="5.53846">
        <ele>306.3</ele>
        <time>2013-11-13T11:01:58Z</time>
      </trkpt>
      <trkpt lat="43.31887" lon="5.53843">
        <ele>305</ele>
        <time>2013-11-13T11:02:04Z</time>
      </trkpt>
      <trkpt lat="43.31884" lon="5.53839">
        <ele>303.7</ele>
        <time>2013-11-13T11:02:10Z</time>
      </trkpt>
      <trkpt lat="43.31881" lon="5.53834">
        <ele>302.7</ele>
        <time>2013-11-13T11:02:15Z</time>
      </trkpt>
      <trkpt lat="43.31878" lon="5.53827">
        <ele>301.8</ele>
        <time>2013-11-13T11:02:19Z</time>
      </trkpt>
      <trkpt lat="43.31876" lon="5.53822">
        <ele>300.7</ele>
        <time>2013-11-13T11:02:25Z</time>
      </trkpt>
      <trkpt lat="43.31873" lon="5.53817">
        <ele>299.7</ele>
        <time>2013-11-13T11:02:29Z</time>
      </trkpt>
      <trkpt lat="43.31871" lon="5.5381">
        <ele>298.7</ele>
        <time>2013-11-13T11:02:34Z</time>
      </trkpt>
      <trkpt lat="43.31867" lon="5.53806">
        <ele>297.2</ele>
        <time>2013-11-13T11:02:41Z</time>
      </trkpt>
      <trkpt lat="43.31866" lon="5.53799">
        <ele>296.5</ele>
        <time>2013-11-13T11:02:45Z</time>
      </trkpt>
      <trkpt lat="43.31863" lon="5.53794">
        <ele>295</ele>
        <time>2013-11-13T11:02:52Z</time>
      </trkpt>
      <trkpt lat="43.31859" lon="5.53789">
        <ele>293.2</ele>
        <time>2013-11-13T11:03:01Z</time>
      </trkpt>
      <trkpt lat="43.31856" lon="5.53784">
        <ele>292.1</ele>
        <time>2013-11-13T11:03:06Z</time>
      </trkpt>
      <trkpt lat="43.31851" lon="5.53781">
        <ele>289.7</ele>
        <time>2013-11-13T11:03:19Z</time>
      </trkpt>
      <trkpt lat="43.31847" lon="5.53777">
        <ele>287.8</ele>
        <time>2013-11-13T11:03:28Z</time>
      </trkpt>
      <trkpt lat="43.31844" lon="5.53772">
        <ele>286.1</ele>
        <time>2013-11-13T11:03:36Z</time>
      </trkpt>
      <trkpt lat="43.31844" lon="5.53766">
        <ele>285.7</ele>
        <time>2013-11-13T11:03:39Z</time>
      </trkpt>
      <trkpt lat="43.31843" lon="5.53759">
        <ele>284.9</ele>
        <time>2013-11-13T11:03:43Z</time>
      </trkpt>
      <trkpt lat="43.31841" lon="5.53753">
        <ele>284</ele>
        <time>2013-11-13T11:03:48Z</time>
      </trkpt>
      <trkpt lat="43.31842" lon="5.53746">
        <ele>284.1</ele>
        <time>2013-11-13T11:03:52Z</time>
      </trkpt>
      <trkpt lat="43.31839" lon="5.5374">
        <ele>283</ele>
        <time>2013-11-13T11:03:57Z</time>
      </trkpt>
      <trkpt lat="43.31834" lon="5.5374">
        <ele>280.7</ele>
        <time>2013-11-13T11:04:08Z</time>
      </trkpt>
      <trkpt lat="43.31829" lon="5.53743">
        <ele>279.5</ele>
        <time>2013-11-13T11:04:14Z</time>
      </trkpt>
      <trkpt lat="43.31825" lon="5.53744">
        <ele>278.6</ele>
        <time>2013-11-13T11:04:18Z</time>
      </trkpt>
      <trkpt lat="43.31822" lon="5.53748">
        <ele>278</ele>
        <time>2013-11-13T11:04:22Z</time>
      </trkpt>
      <trkpt lat="43.31826" lon="5.53745">
        <ele>278.8</ele>
        <time>2013-11-13T11:04:28Z</time>
      </trkpt>
      <trkpt lat="43.31821" lon="5.53747">
        <ele>278</ele>
        <time>2013-11-13T11:04:32Z</time>
      </trkpt>
      <trkpt lat="43.31817" lon="5.5375">
        <ele>277.2</ele>
        <time>2013-11-13T11:04:37Z</time>
      </trkpt>
      <trkpt lat="43.31815" lon="5.53743">
        <ele>276.9</ele>
        <time>2013-11-13T11:04:40Z</time>
      </trkpt>
      <trkpt lat="43.3181" lon="5.5374">
        <ele>275.9</ele>
        <time>2013-11-13T11:04:45Z</time>
      </trkpt>
      <trkpt lat="43.31806" lon="5.53736">
        <ele>275.2</ele>
        <time>2013-11-13T11:04:49Z</time>
      </trkpt>
      <trkpt lat="43.31802" lon="5.53734">
        <ele>274.2</ele>
        <time>2013-11-13T11:04:54Z</time>
      </trkpt>
      <trkpt lat="43.31798" lon="5.53729">
        <ele>273.3</ele>
        <time>2013-11-13T11:04:58Z</time>
      </trkpt>
      <trkpt lat="43.31794" lon="5.53724">
        <ele>272.4</ele>
        <time>2013-11-13T11:05:03Z</time>
      </trkpt>
      <trkpt lat="43.31792" lon="5.53718">
        <ele>271.6</ele>
        <time>2013-11-13T11:05:07Z</time>
      </trkpt>
      <trkpt lat="43.31789" lon="5.53713">
        <ele>270.7</ele>
        <time>2013-11-13T11:05:12Z</time>
      </trkpt>
      <trkpt lat="43.31784" lon="5.53709">
        <ele>269.5</ele>
        <time>2013-11-13T11:05:17Z</time>
      </trkpt>
      <trkpt lat="43.31779" lon="5.53707">
        <ele>268.1</ele>
        <time>2013-11-13T11:05:24Z</time>
      </trkpt>
      <trkpt lat="43.31774" lon="5.53705">
        <ele>266.8</ele>
        <time>2013-11-13T11:05:30Z</time>
      </trkpt>
      <trkpt lat="43.31769" lon="5.53703">
        <ele>265.5</ele>
        <time>2013-11-13T11:05:36Z</time>
      </trkpt>
      <trkpt lat="43.31764" lon="5.537">
        <ele>264.1</ele>
        <time>2013-11-13T11:05:43Z</time>
      </trkpt>
      <trkpt lat="43.3176" lon="5.53699">
        <ele>262.9</ele>
        <time>2013-11-13T11:05:48Z</time>
      </trkpt>
      <trkpt lat="43.31755" lon="5.53699">
        <ele>261.8</ele>
        <time>2013-11-13T11:05:53Z</time>
      </trkpt>
      <trkpt lat="43.3175" lon="5.537">
        <ele>260.6</ele>
        <time>2013-11-13T11:05:59Z</time>
      </trkpt>
      <trkpt lat="43.31744" lon="5.53701">
        <ele>260.1</ele>
        <time>2013-11-13T11:06:03Z</time>
      </trkpt>
      <trkpt lat="43.31739" lon="5.53703">
        <ele>259.8</ele>
        <time>2013-11-13T11:06:06Z</time>
      </trkpt>
      <trkpt lat="43.31735" lon="5.53706">
        <ele>259.6</ele>
        <time>2013-11-13T11:06:10Z</time>
      </trkpt>
      <trkpt lat="43.3173" lon="5.53711">
        <ele>259.4</ele>
        <time>2013-11-13T11:06:14Z</time>
      </trkpt>
      <trkpt lat="43.31724" lon="5.53715">
        <ele>259</ele>
        <time>2013-11-13T11:06:19Z</time>
      </trkpt>
      <trkpt lat="43.31721" lon="5.53719">
        <ele>258.7</ele>
        <time>2013-11-13T11:06:22Z</time>
      </trkpt>
      <trkpt lat="43.31718" lon="5.53724">
        <ele>258.6</ele>
        <time>2013-11-13T11:06:25Z</time>
      </trkpt>
      <trkpt lat="43.31715" lon="5.53729">
        <ele>258.3</ele>
        <time>2013-11-13T11:06:28Z</time>
      </trkpt>
      <trkpt lat="43.31712" lon="5.53735">
        <ele>258.2</ele>
        <time>2013-11-13T11:06:32Z</time>
      </trkpt>
      <trkpt lat="43.31711" lon="5.53741">
        <ele>258.2</ele>
        <time>2013-11-13T11:06:36Z</time>
      </trkpt>
      <trkpt lat="43.31711" lon="5.53748">
        <ele>258.4</ele>
        <time>2013-11-13T11:06:41Z</time>
      </trkpt>
      <trkpt lat="43.31709" lon="5.53755">
        <ele>258.3</ele>
        <time>2013-11-13T11:06:44Z</time>
      </trkpt>
      <trkpt lat="43.31708" lon="5.53762">
        <ele>258.2</ele>
        <time>2013-11-13T11:06:49Z</time>
      </trkpt>
      <trkpt lat="43.31706" lon="5.53768">
        <ele>258.1</ele>
        <time>2013-11-13T11:06:52Z</time>
      </trkpt>
      <trkpt lat="43.31703" lon="5.53775">
        <ele>257.5</ele>
        <time>2013-11-13T11:06:56Z</time>
      </trkpt>
      <trkpt lat="43.317" lon="5.53781">
        <ele>256.8</ele>
        <time>2013-11-13T11:07:00Z</time>
      </trkpt>
      <trkpt lat="43.31698" lon="5.53787">
        <ele>256.4</ele>
        <time>2013-11-13T11:07:04Z</time>
      </trkpt>
      <trkpt lat="43.31696" lon="5.53793">
        <ele>255.7</ele>
        <time>2013-11-13T11:07:08Z</time>
      </trkpt>
      <trkpt lat="43.31693" lon="5.53799">
        <ele>255</ele>
        <time>2013-11-13T11:07:12Z</time>
      </trkpt>
      <trkpt lat="43.31691" lon="5.53804">
        <ele>254.4</ele>
        <time>2013-11-13T11:07:15Z</time>
      </trkpt>
      <trkpt lat="43.31689" lon="5.53811">
        <ele>253.6</ele>
        <time>2013-11-13T11:07:19Z</time>
      </trkpt>
      <trkpt lat="43.31687" lon="5.53818">
        <ele>252.8</ele>
        <time>2013-11-13T11:07:24Z</time>
      </trkpt>
      <trkpt lat="43.31686" lon="5.53824">
        <ele>252.2</ele>
        <time>2013-11-13T11:07:27Z</time>
      </trkpt>
      <trkpt lat="43.31685" lon="5.53831">
        <ele>251.8</ele>
        <time>2013-11-13T11:07:31Z</time>
      </trkpt>
      <trkpt lat="43.31682" lon="5.53839">
        <ele>251.1</ele>
        <time>2013-11-13T11:07:35Z</time>
      </trkpt>
      <trkpt lat="43.31681" lon="5.53845">
        <ele>251</ele>
        <time>2013-11-13T11:07:39Z</time>
      </trkpt>
      <trkpt lat="43.31679" lon="5.53852">
        <ele>251.1</ele>
        <time>2013-11-13T11:07:43Z</time>
      </trkpt>
      <trkpt lat="43.31678" lon="5.53859">
        <ele>251.2</ele>
        <time>2013-11-13T11:07:48Z</time>
      </trkpt>
      <trkpt lat="43.31675" lon="5.53866">
        <ele>250.5</ele>
        <time>2013-11-13T11:07:52Z</time>
      </trkpt>
      <trkpt lat="43.31674" lon="5.53872">
        <ele>250.5</ele>
        <time>2013-11-13T11:07:56Z</time>
      </trkpt>
      <trkpt lat="43.31672" lon="5.53878">
        <ele>250.2</ele>
        <time>2013-11-13T11:07:59Z</time>
      </trkpt>
      <trkpt lat="43.3167" lon="5.53884">
        <ele>249.8</ele>
        <time>2013-11-13T11:08:02Z</time>
      </trkpt>
      <trkpt lat="43.31667" lon="5.5389">
        <ele>249.1</ele>
        <time>2013-11-13T11:08:06Z</time>
      </trkpt>
      <trkpt lat="43.31665" lon="5.53896">
        <ele>249.5</ele>
        <time>2013-11-13T11:08:11Z</time>
      </trkpt>
      <trkpt lat="43.31664" lon="5.53904">
        <ele>250.1</ele>
        <time>2013-11-13T11:08:18Z</time>
      </trkpt>
      <trkpt lat="43.31661" lon="5.53909">
        <ele>250.4</ele>
        <time>2013-11-13T11:08:22Z</time>
      </trkpt>
      <trkpt lat="43.31657" lon="5.53915">
        <ele>250.7</ele>
        <time>2013-11-13T11:08:27Z</time>
      </trkpt>
      <trkpt lat="43.31654" lon="5.53921">
        <ele>250.9</ele>
        <time>2013-11-13T11:08:32Z</time>
      </trkpt>
      <trkpt lat="43.31653" lon="5.53929">
        <ele>251.1</ele>
        <time>2013-11-13T11:08:37Z</time>
      </trkpt>
      <trkpt lat="43.31652" lon="5.53936">
        <ele>251.3</ele>
        <time>2013-11-13T11:08:42Z</time>
      </trkpt>
      <trkpt lat="43.31651" lon="5.53942">
        <ele>251.4</ele>
        <time>2013-11-13T11:08:46Z</time>
      </trkpt>
      <trkpt lat="43.3165" lon="5.53949">
        <ele>251.6</ele>
        <time>2013-11-13T11:08:50Z</time>
      </trkpt>
      <trkpt lat="43.31651" lon="5.53955">
        <ele>251.9</ele>
        <time>2013-11-13T11:08:55Z</time>
      </trkpt>
      <trkpt lat="43.31652" lon="5.53962">
        <ele>252.3</ele>
        <time>2013-11-13T11:09:00Z</time>
      </trkpt>
      <trkpt lat="43.31653" lon="5.53969">
        <ele>252.6</ele>
        <time>2013-11-13T11:09:04Z</time>
      </trkpt>
      <trkpt lat="43.31654" lon="5.53976">
        <ele>253.2</ele>
        <time>2013-11-13T11:09:11Z</time>
      </trkpt>
      <trkpt lat="43.31656" lon="5.53982">
        <ele>253.7</ele>
        <time>2013-11-13T11:09:16Z</time>
      </trkpt>
      <trkpt lat="43.31656" lon="5.5399">
        <ele>254.2</ele>
        <time>2013-11-13T11:09:22Z</time>
      </trkpt>
      <trkpt lat="43.31658" lon="5.53996">
        <ele>254.7</ele>
        <time>2013-11-13T11:09:27Z</time>
      </trkpt>
      <trkpt lat="43.31658" lon="5.54003">
        <ele>255</ele>
        <time>2013-11-13T11:09:32Z</time>
      </trkpt>
      <trkpt lat="43.31658" lon="5.5401">
        <ele>255.3</ele>
        <time>2013-11-13T11:09:36Z</time>
      </trkpt>
      <trkpt lat="43.31657" lon="5.54016">
        <ele>255.4</ele>
        <time>2013-11-13T11:09:40Z</time>
      </trkpt>
      <trkpt lat="43.31657" lon="5.54023">
        <ele>255.7</ele>
        <time>2013-11-13T11:09:44Z</time>
      </trkpt>
      <trkpt lat="43.31657" lon="5.5403">
        <ele>255.9</ele>
        <time>2013-11-13T11:09:49Z</time>
      </trkpt>
      <trkpt lat="43.31657" lon="5.54037">
        <ele>256.1</ele>
        <time>2013-11-13T11:09:54Z</time>
      </trkpt>
      <trkpt lat="43.31658" lon="5.54044">
        <ele>256.4</ele>
        <time>2013-11-13T11:09:58Z</time>
      </trkpt>
      <trkpt lat="43.31658" lon="5.54052">
        <ele>256.8</ele>
        <time>2013-11-13T11:10:04Z</time>
      </trkpt>
      <trkpt lat="43.31657" lon="5.54059">
        <ele>256.9</ele>
        <time>2013-11-13T11:10:08Z</time>
      </trkpt>
      <trkpt lat="43.31657" lon="5.54066">
        <ele>256.9</ele>
        <time>2013-11-13T11:10:12Z</time>
      </trkpt>
      <trkpt lat="43.31656" lon="5.54072">
        <ele>257</ele>
        <time>2013-11-13T11:10:16Z</time>
      </trkpt>
      <trkpt lat="43.31656" lon="5.54079">
        <ele>257.1</ele>
        <time>2013-11-13T11:10:20Z</time>
      </trkpt>
      <trkpt lat="43.31655" lon="5.54086">
        <ele>257.3</ele>
        <time>2013-11-13T11:10:25Z</time>
      </trkpt>
      <trkpt lat="43.31652" lon="5.54091">
        <ele>257</ele>
        <time>2013-11-13T11:10:28Z</time>
      </trkpt>
      <trkpt lat="43.31648" lon="5.54097">
        <ele>256.6</ele>
        <time>2013-11-13T11:10:32Z</time>
      </trkpt>
      <trkpt lat="43.31646" lon="5.54103">
        <ele>256.8</ele>
        <time>2013-11-13T11:10:36Z</time>
      </trkpt>
      <trkpt lat="43.31643" lon="5.54109">
        <ele>257</ele>
        <time>2013-11-13T11:10:41Z</time>
      </trkpt>
      <trkpt lat="43.31641" lon="5.54114">
        <ele>256.7</ele>
        <time>2013-11-13T11:10:44Z</time>
      </trkpt>
      <trkpt lat="43.31639" lon="5.5412">
        <ele>257</ele>
        <time>2013-11-13T11:10:48Z</time>
      </trkpt>
      <trkpt lat="43.31638" lon="5.54127">
        <ele>257.5</ele>
        <time>2013-11-13T11:10:54Z</time>
      </trkpt>
      <trkpt lat="43.31635" lon="5.54133">
        <ele>257.7</ele>
        <time>2013-11-13T11:10:58Z</time>
      </trkpt>
      <trkpt lat="43.31633" lon="5.54139">
        <ele>257.4</ele>
        <time>2013-11-13T11:11:02Z</time>
      </trkpt>
      <trkpt lat="43.3163" lon="5.54144">
        <ele>257.1</ele>
        <time>2013-11-13T11:11:05Z</time>
      </trkpt>
      <trkpt lat="43.31627" lon="5.5415">
        <ele>257</ele>
        <time>2013-11-13T11:11:09Z</time>
      </trkpt>
      <trkpt lat="43.31625" lon="5.54157">
        <ele>257.2</ele>
        <time>2013-11-13T11:11:13Z</time>
      </trkpt>
      <trkpt lat="43.31623" lon="5.54163">
        <ele>257</ele>
        <time>2013-11-13T11:11:17Z</time>
      </trkpt>
      <trkpt lat="43.31619" lon="5.54168">
        <ele>256.3</ele>
        <time>2013-11-13T11:11:21Z</time>
      </trkpt>
      <trkpt lat="43.31616" lon="5.54173">
        <ele>255.2</ele>
        <time>2013-11-13T11:11:26Z</time>
      </trkpt>
      <trkpt lat="43.31611" lon="5.54175">
        <ele>253.8</ele>
        <time>2013-11-13T11:11:33Z</time>
      </trkpt>
      <trkpt lat="43.31608" lon="5.54179">
        <ele>252.6</ele>
        <time>2013-11-13T11:11:38Z</time>
      </trkpt>
      <trkpt lat="43.31604" lon="5.54184">
        <ele>251.6</ele>
        <time>2013-11-13T11:11:43Z</time>
      </trkpt>
      <trkpt lat="43.31601" lon="5.54189">
        <ele>251.1</ele>
        <time>2013-11-13T11:11:47Z</time>
      </trkpt>
      <trkpt lat="43.31597" lon="5.54195">
        <ele>250.2</ele>
        <time>2013-11-13T11:11:51Z</time>
      </trkpt>
      <trkpt lat="43.31595" lon="5.54201">
        <ele>250.2</ele>
        <time>2013-11-13T11:11:55Z</time>
      </trkpt>
      <trkpt lat="43.31593" lon="5.54208">
        <ele>250.1</ele>
        <time>2013-11-13T11:12:00Z</time>
      </trkpt>
      <trkpt lat="43.31591" lon="5.54215">
        <ele>250.3</ele>
        <time>2013-11-13T11:12:04Z</time>
      </trkpt>
      <trkpt lat="43.31591" lon="5.54221">
        <ele>251.3</ele>
        <time>2013-11-13T11:12:13Z</time>
      </trkpt>
      <trkpt lat="43.3159" lon="5.54227">
        <ele>251.6</ele>
        <time>2013-11-13T11:12:17Z</time>
      </trkpt>
      <trkpt lat="43.31589" lon="5.54234">
        <ele>252.1</ele>
        <time>2013-11-13T11:12:22Z</time>
      </trkpt>
      <trkpt lat="43.31589" lon="5.54241">
        <ele>253</ele>
        <time>2013-11-13T11:12:30Z</time>
      </trkpt>
      <trkpt lat="43.3159" lon="5.54248">
        <ele>254.3</ele>
        <time>2013-11-13T11:12:40Z</time>
      </trkpt>
      <trkpt lat="43.31589" lon="5.54255">
        <ele>254.5</ele>
        <time>2013-11-13T11:12:45Z</time>
      </trkpt>
      <trkpt lat="43.31586" lon="5.5426">
        <ele>253.6</ele>
        <time>2013-11-13T11:12:49Z</time>
      </trkpt>
      <trkpt lat="43.31582" lon="5.54264">
        <ele>252.5</ele>
        <time>2013-11-13T11:12:54Z</time>
      </trkpt>
      <trkpt lat="43.31577" lon="5.54267">
        <ele>251.1</ele>
        <time>2013-11-13T11:13:01Z</time>
      </trkpt>
      <trkpt lat="43.31572" lon="5.54269">
        <ele>249.8</ele>
        <time>2013-11-13T11:13:07Z</time>
      </trkpt>
      <trkpt lat="43.31568" lon="5.54271">
        <ele>248.5</ele>
        <time>2013-11-13T11:13:13Z</time>
      </trkpt>
      <trkpt lat="43.31563" lon="5.54273">
        <ele>247.1</ele>
        <time>2013-11-13T11:13:20Z</time>
      </trkpt>
      <trkpt lat="43.3156" lon="5.54278">
        <ele>246.5</ele>
        <time>2013-11-13T11:13:23Z</time>
      </trkpt>
      <trkpt lat="43.31555" lon="5.54282">
        <ele>245.5</ele>
        <time>2013-11-13T11:13:28Z</time>
      </trkpt>
      <trkpt lat="43.31551" lon="5.54286">
        <ele>244.4</ele>
        <time>2013-11-13T11:13:34Z</time>
      </trkpt>
      <trkpt lat="43.31546" lon="5.54288">
        <ele>243.3</ele>
        <time>2013-11-13T11:13:39Z</time>
      </trkpt>
      <trkpt lat="43.31542" lon="5.54291">
        <ele>242.2</ele>
        <time>2013-11-13T11:13:44Z</time>
      </trkpt>
      <trkpt lat="43.31537" lon="5.54292">
        <ele>240.8</ele>
        <time>2013-11-13T11:13:51Z</time>
      </trkpt>
      <trkpt lat="43.31532" lon="5.54294">
        <ele>239.6</ele>
        <time>2013-11-13T11:13:56Z</time>
      </trkpt>
      <trkpt lat="43.31528" lon="5.54299">
        <ele>238.8</ele>
        <time>2013-11-13T11:14:01Z</time>
      </trkpt>
      <trkpt lat="43.31526" lon="5.54307">
        <ele>238.9</ele>
        <time>2013-11-13T11:14:05Z</time>
      </trkpt>
      <trkpt lat="43.31525" lon="5.54314">
        <ele>239.1</ele>
        <time>2013-11-13T11:14:10Z</time>
      </trkpt>
      <trkpt lat="43.31524" lon="5.54321">
        <ele>239.6</ele>
        <time>2013-11-13T11:14:15Z</time>
      </trkpt>
      <trkpt lat="43.31525" lon="5.54327">
        <ele>240.2</ele>
        <time>2013-11-13T11:14:21Z</time>
      </trkpt>
      <trkpt lat="43.31526" lon="5.54334">
        <ele>241.4</ele>
        <time>2013-11-13T11:14:31Z</time>
      </trkpt>
      <trkpt lat="43.31529" lon="5.54339">
        <ele>242.9</ele>
        <time>2013-11-13T11:14:44Z</time>
      </trkpt>
      <trkpt lat="43.31532" lon="5.54344">
        <ele>244.4</ele>
        <time>2013-11-13T11:14:56Z</time>
      </trkpt>
      <trkpt lat="43.31535" lon="5.54349">
        <ele>245.8</ele>
        <time>2013-11-13T11:15:07Z</time>
      </trkpt>
      <trkpt lat="43.31535" lon="5.54356">
        <ele>246.6</ele>
        <time>2013-11-13T11:15:14Z</time>
      </trkpt>
      <trkpt lat="43.31534" lon="5.54362">
        <ele>247.3</ele>
        <time>2013-11-13T11:15:20Z</time>
      </trkpt>
      <trkpt lat="43.31529" lon="5.54366">
        <ele>246.9</ele>
        <time>2013-11-13T11:15:24Z</time>
      </trkpt>
      <trkpt lat="43.31524" lon="5.5437">
        <ele>246.2</ele>
        <time>2013-11-13T11:15:28Z</time>
      </trkpt>
      <trkpt lat="43.31519" lon="5.54372">
        <ele>245.4</ele>
        <time>2013-11-13T11:15:32Z</time>
      </trkpt>
      <trkpt lat="43.31515" lon="5.54374">
        <ele>244.7</ele>
        <time>2013-11-13T11:15:36Z</time>
      </trkpt>
      <trkpt lat="43.3151" lon="5.54377">
        <ele>244.2</ele>
        <time>2013-11-13T11:15:40Z</time>
      </trkpt>
      <trkpt lat="43.31505" lon="5.5438">
        <ele>243.6</ele>
        <time>2013-11-13T11:15:44Z</time>
      </trkpt>
      <trkpt lat="43.31499" lon="5.5438">
        <ele>242.2</ele>
        <time>2013-11-13T11:15:50Z</time>
      </trkpt>
      <trkpt lat="43.31495" lon="5.54379">
        <ele>241.2</ele>
        <time>2013-11-13T11:15:55Z</time>
      </trkpt>
      <trkpt lat="43.3149" lon="5.5438">
        <ele>240.2</ele>
        <time>2013-11-13T11:16:00Z</time>
      </trkpt>
      <trkpt lat="43.31485" lon="5.5438">
        <ele>239.3</ele>
        <time>2013-11-13T11:16:04Z</time>
      </trkpt>
      <trkpt lat="43.31481" lon="5.54382">
        <ele>238.6</ele>
        <time>2013-11-13T11:16:08Z</time>
      </trkpt>
      <trkpt lat="43.31476" lon="5.54384">
        <ele>237.8</ele>
        <time>2013-11-13T11:16:12Z</time>
      </trkpt>
      <trkpt lat="43.31471" lon="5.54386">
        <ele>237.1</ele>
        <time>2013-11-13T11:16:16Z</time>
      </trkpt>
      <trkpt lat="43.31467" lon="5.54388">
        <ele>236.5</ele>
        <time>2013-11-13T11:16:20Z</time>
      </trkpt>
      <trkpt lat="43.31462" lon="5.54391">
        <ele>235.9</ele>
        <time>2013-11-13T11:16:24Z</time>
      </trkpt>
      <trkpt lat="43.31458" lon="5.54394">
        <ele>235.5</ele>
        <time>2013-11-13T11:16:27Z</time>
      </trkpt>
      <trkpt lat="43.31454" lon="5.54397">
        <ele>235.1</ele>
        <time>2013-11-13T11:16:30Z</time>
      </trkpt>
      <trkpt lat="43.31449" lon="5.544">
        <ele>234.5</ele>
        <time>2013-11-13T11:16:34Z</time>
      </trkpt>
      <trkpt lat="43.31444" lon="5.54403">
        <ele>233.6</ele>
        <time>2013-11-13T11:16:39Z</time>
      </trkpt>
      <trkpt lat="43.31439" lon="5.54405">
        <ele>232.8</ele>
        <time>2013-11-13T11:16:43Z</time>
      </trkpt>
      <trkpt lat="43.31435" lon="5.54407">
        <ele>232</ele>
        <time>2013-11-13T11:16:47Z</time>
      </trkpt>
      <trkpt lat="43.3143" lon="5.54409">
        <ele>231.2</ele>
        <time>2013-11-13T11:16:51Z</time>
      </trkpt>
      <trkpt lat="43.31425" lon="5.54411">
        <ele>230.3</ele>
        <time>2013-11-13T11:16:56Z</time>
      </trkpt>
      <trkpt lat="43.31421" lon="5.54415">
        <ele>229.8</ele>
        <time>2013-11-13T11:16:59Z</time>
      </trkpt>
      <trkpt lat="43.31417" lon="5.5442">
        <ele>229.1</ele>
        <time>2013-11-13T11:17:03Z</time>
      </trkpt>
      <trkpt lat="43.31413" lon="5.54424">
        <ele>228.3</ele>
        <time>2013-11-13T11:17:08Z</time>
      </trkpt>
      <trkpt lat="43.3141" lon="5.5443">
        <ele>227.9</ele>
        <time>2013-11-13T11:17:11Z</time>
      </trkpt>
      <trkpt lat="43.3141" lon="5.54436">
        <ele>227.9</ele>
        <time>2013-11-13T11:17:15Z</time>
      </trkpt>
      <trkpt lat="43.31407" lon="5.54441">
        <ele>227.4</ele>
        <time>2013-11-13T11:17:18Z</time>
      </trkpt>
      <trkpt lat="43.31403" lon="5.54437">
        <ele>226.4</ele>
        <time>2013-11-13T11:17:23Z</time>
      </trkpt>
      <trkpt lat="43.31399" lon="5.54441">
        <ele>225.6</ele>
        <time>2013-11-13T11:17:27Z</time>
      </trkpt>
      <trkpt lat="43.31395" lon="5.54441">
        <ele>224.6</ele>
        <time>2013-11-13T11:17:32Z</time>
      </trkpt>
      <trkpt lat="43.31394" lon="5.54447">
        <ele>224.6</ele>
        <time>2013-11-13T11:17:35Z</time>
      </trkpt>
      <trkpt lat="43.31395" lon="5.54441">
        <ele>224.6</ele>
        <time>2013-11-13T11:17:39Z</time>
      </trkpt>
      <trkpt lat="43.31397" lon="5.54435">
        <ele>225</ele>
        <time>2013-11-13T11:17:44Z</time>
      </trkpt>
      <trkpt lat="43.314" lon="5.5444">
        <ele>225.7</ele>
        <time>2013-11-13T11:17:51Z</time>
      </trkpt>
      <trkpt lat="43.31397" lon="5.54445">
        <ele>225.2</ele>
        <time>2013-11-13T11:17:54Z</time>
      </trkpt>
      <trkpt lat="43.314" lon="5.54451">
        <ele>226</ele>
        <time>2013-11-13T11:18:01Z</time>
      </trkpt>
      <trkpt lat="43.31398" lon="5.54445">
        <ele>225.4</ele>
        <time>2013-11-13T11:18:04Z</time>
      </trkpt>
      <trkpt lat="43.31393" lon="5.54446">
        <ele>224.3</ele>
        <time>2013-11-13T11:18:10Z</time>
      </trkpt>
      <trkpt lat="43.31389" lon="5.54447">
        <ele>223.3</ele>
        <time>2013-11-13T11:18:14Z</time>
      </trkpt>
      <trkpt lat="43.31386" lon="5.54441">
        <ele>222.7</ele>
        <time>2013-11-13T11:18:18Z</time>
      </trkpt>
      <trkpt lat="43.31383" lon="5.54435">
        <ele>221.9</ele>
        <time>2013-11-13T11:18:22Z</time>
      </trkpt>
      <trkpt lat="43.31382" lon="5.54428">
        <ele>221.6</ele>
        <time>2013-11-13T11:18:26Z</time>
      </trkpt>
      <trkpt lat="43.31382" lon="5.54422">
        <ele>221.5</ele>
        <time>2013-11-13T11:18:29Z</time>
      </trkpt>
      <trkpt lat="43.31384" lon="5.54416">
        <ele>221.8</ele>
        <time>2013-11-13T11:18:34Z</time>
      </trkpt>
      <trkpt lat="43.31385" lon="5.5441">
        <ele>221.6</ele>
        <time>2013-11-13T11:18:37Z</time>
      </trkpt>
      <trkpt lat="43.31385" lon="5.54404">
        <ele>221.1</ele>
        <time>2013-11-13T11:18:40Z</time>
      </trkpt>
      <trkpt lat="43.3138" lon="5.54403">
        <ele>220.2</ele>
        <time>2013-11-13T11:18:45Z</time>
      </trkpt>
      <trkpt lat="43.31377" lon="5.54409">
        <ele>220</ele>
        <time>2013-11-13T11:18:48Z</time>
      </trkpt>
      <trkpt lat="43.31374" lon="5.54413">
        <ele>219.6</ele>
        <time>2013-11-13T11:18:51Z</time>
      </trkpt>
      <trkpt lat="43.31371" lon="5.54418">
        <ele>219.1</ele>
        <time>2013-11-13T11:18:55Z</time>
      </trkpt>
      <trkpt lat="43.31369" lon="5.54424">
        <ele>218.6</ele>
        <time>2013-11-13T11:18:58Z</time>
      </trkpt>
      <trkpt lat="43.31365" lon="5.54429">
        <ele>217.8</ele>
        <time>2013-11-13T11:19:03Z</time>
      </trkpt>
      <trkpt lat="43.3136" lon="5.54433">
        <ele>216.8</ele>
        <time>2013-11-13T11:19:08Z</time>
      </trkpt>
      <trkpt lat="43.31359" lon="5.54439">
        <ele>216.5</ele>
        <time>2013-11-13T11:19:11Z</time>
      </trkpt>
      <trkpt lat="43.31358" lon="5.54446">
        <ele>216.3</ele>
        <time>2013-11-13T11:19:14Z</time>
      </trkpt>
      <trkpt lat="43.31357" lon="5.54452">
        <ele>216</ele>
        <time>2013-11-13T11:19:18Z</time>
      </trkpt>
      <trkpt lat="43.31355" lon="5.54459">
        <ele>215.6</ele>
        <time>2013-11-13T11:19:21Z</time>
      </trkpt>
      <trkpt lat="43.31353" lon="5.54466">
        <ele>215.1</ele>
        <time>2013-11-13T11:19:25Z</time>
      </trkpt>
      <trkpt lat="43.31352" lon="5.54472">
        <ele>214.8</ele>
        <time>2013-11-13T11:19:28Z</time>
      </trkpt>
      <trkpt lat="43.31351" lon="5.54479">
        <ele>214.6</ele>
        <time>2013-11-13T11:19:32Z</time>
      </trkpt>
      <trkpt lat="43.31351" lon="5.54486">
        <ele>214.4</ele>
        <time>2013-11-13T11:19:35Z</time>
      </trkpt>
      <trkpt lat="43.31349" lon="5.54492">
        <ele>214</ele>
        <time>2013-11-13T11:19:39Z</time>
      </trkpt>
      <trkpt lat="43.31347" lon="5.54499">
        <ele>213.5</ele>
        <time>2013-11-13T11:19:42Z</time>
      </trkpt>
      <trkpt lat="43.31346" lon="5.54506">
        <ele>213.2</ele>
        <time>2013-11-13T11:19:46Z</time>
      </trkpt>
      <trkpt lat="43.31345" lon="5.54512">
        <ele>212.9</ele>
        <time>2013-11-13T11:19:49Z</time>
      </trkpt>
      <trkpt lat="43.31343" lon="5.54519">
        <ele>212.6</ele>
        <time>2013-11-13T11:19:53Z</time>
      </trkpt>
      <trkpt lat="43.31342" lon="5.54526">
        <ele>212.4</ele>
        <time>2013-11-13T11:19:56Z</time>
      </trkpt>
      <trkpt lat="43.31342" lon="5.54533">
        <ele>212.4</ele>
        <time>2013-11-13T11:20:00Z</time>
      </trkpt>
      <trkpt lat="43.3134" lon="5.5454">
        <ele>212</ele>
        <time>2013-11-13T11:20:04Z</time>
      </trkpt>
      <trkpt lat="43.31339" lon="5.54547">
        <ele>211.9</ele>
        <time>2013-11-13T11:20:08Z</time>
      </trkpt>
      <trkpt lat="43.31339" lon="5.54554">
        <ele>211.9</ele>
        <time>2013-11-13T11:20:12Z</time>
      </trkpt>
      <trkpt lat="43.31339" lon="5.54561">
        <ele>211.9</ele>
        <time>2013-11-13T11:20:16Z</time>
      </trkpt>
      <trkpt lat="43.31338" lon="5.54567">
        <ele>211.8</ele>
        <time>2013-11-13T11:20:20Z</time>
      </trkpt>
      <trkpt lat="43.31336" lon="5.54574">
        <ele>211.4</ele>
        <time>2013-11-13T11:20:23Z</time>
      </trkpt>
      <trkpt lat="43.31335" lon="5.54581">
        <ele>211.3</ele>
        <time>2013-11-13T11:20:27Z</time>
      </trkpt>
      <trkpt lat="43.31332" lon="5.54586">
        <ele>211.2</ele>
        <time>2013-11-13T11:20:31Z</time>
      </trkpt>
      <trkpt lat="43.31326" lon="5.54586">
        <ele>211</ele>
        <time>2013-11-13T11:20:35Z</time>
      </trkpt>
      <trkpt lat="43.31321" lon="5.54585">
        <ele>210.6</ele>
        <time>2013-11-13T11:20:39Z</time>
      </trkpt>
      <trkpt lat="43.31316" lon="5.54583">
        <ele>210.4</ele>
        <time>2013-11-13T11:20:42Z</time>
      </trkpt>
      <trkpt lat="43.31311" lon="5.54582">
        <ele>210.2</ele>
        <time>2013-11-13T11:20:46Z</time>
      </trkpt>
      <trkpt lat="43.31306" lon="5.54584">
        <ele>210</ele>
        <time>2013-11-13T11:20:50Z</time>
      </trkpt>
      <trkpt lat="43.313" lon="5.54585">
        <ele>209.9</ele>
        <time>2013-11-13T11:20:54Z</time>
      </trkpt>
      <trkpt lat="43.31295" lon="5.54587">
        <ele>209.8</ele>
        <time>2013-11-13T11:20:58Z</time>
      </trkpt>
      <trkpt lat="43.3129" lon="5.54588">
        <ele>209.7</ele>
        <time>2013-11-13T11:21:02Z</time>
      </trkpt>
      <trkpt lat="43.31286" lon="5.54591">
        <ele>209.6</ele>
        <time>2013-11-13T11:21:05Z</time>
      </trkpt>
      <trkpt lat="43.31282" lon="5.54594">
        <ele>209.6</ele>
        <time>2013-11-13T11:21:09Z</time>
      </trkpt>
      <trkpt lat="43.31277" lon="5.54598">
        <ele>209.6</ele>
        <time>2013-11-13T11:21:14Z</time>
      </trkpt>
      <trkpt lat="43.31273" lon="5.54603">
        <ele>209.6</ele>
        <time>2013-11-13T11:21:18Z</time>
      </trkpt>
      <trkpt lat="43.3127" lon="5.54608">
        <ele>209.7</ele>
        <time>2013-11-13T11:21:22Z</time>
      </trkpt>
      <trkpt lat="43.31267" lon="5.54613">
        <ele>209.7</ele>
        <time>2013-11-13T11:21:26Z</time>
      </trkpt>
      <trkpt lat="43.31266" lon="5.5462">
        <ele>209.9</ele>
        <time>2013-11-13T11:21:30Z</time>
      </trkpt>
      <trkpt lat="43.31264" lon="5.54627">
        <ele>210</ele>
        <time>2013-11-13T11:21:34Z</time>
      </trkpt>
      <trkpt lat="43.31263" lon="5.54633">
        <ele>210.1</ele>
        <time>2013-11-13T11:21:39Z</time>
      </trkpt>
      <trkpt lat="43.3126" lon="5.5464">
        <ele>210.2</ele>
        <time>2013-11-13T11:21:43Z</time>
      </trkpt>
      <trkpt lat="43.31256" lon="5.54646">
        <ele>210</ele>
        <time>2013-11-13T11:21:48Z</time>
      </trkpt>
      <trkpt lat="43.31252" lon="5.5465">
        <ele>209.8</ele>
        <time>2013-11-13T11:21:51Z</time>
      </trkpt>
      <trkpt lat="43.3125" lon="5.54657">
        <ele>209.8</ele>
        <time>2013-11-13T11:21:55Z</time>
      </trkpt>
      <trkpt lat="43.31248" lon="5.54664">
        <ele>210.1</ele>
        <time>2013-11-13T11:22:00Z</time>
      </trkpt>
      <trkpt lat="43.31246" lon="5.54669">
        <ele>210.3</ele>
        <time>2013-11-13T11:22:04Z</time>
      </trkpt>
      <trkpt lat="43.31241" lon="5.54673">
        <ele>210.6</ele>
        <time>2013-11-13T11:22:09Z</time>
      </trkpt>
      <trkpt lat="43.31237" lon="5.54675">
        <ele>210.9</ele>
        <time>2013-11-13T11:22:14Z</time>
      </trkpt>
      <trkpt lat="43.31232" lon="5.54676">
        <ele>211.2</ele>
        <time>2013-11-13T11:22:18Z</time>
      </trkpt>
      <trkpt lat="43.31228" lon="5.54674">
        <ele>211.6</ele>
        <time>2013-11-13T11:22:23Z</time>
      </trkpt>
      <trkpt lat="43.31224" lon="5.5468">
        <ele>211.6</ele>
        <time>2013-11-13T11:22:27Z</time>
      </trkpt>
      <trkpt lat="43.31221" lon="5.54685">
        <ele>211.6</ele>
        <time>2013-11-13T11:22:31Z</time>
      </trkpt>
      <trkpt lat="43.31217" lon="5.54689">
        <ele>211.6</ele>
        <time>2013-11-13T11:22:35Z</time>
      </trkpt>
      <trkpt lat="43.31214" lon="5.54695">
        <ele>211.4</ele>
        <time>2013-11-13T11:22:39Z</time>
      </trkpt>
      <trkpt lat="43.31209" lon="5.547">
        <ele>211.3</ele>
        <time>2013-11-13T11:22:43Z</time>
      </trkpt>
      <trkpt lat="43.31205" lon="5.54703">
        <ele>211.2</ele>
        <time>2013-11-13T11:22:47Z</time>
      </trkpt>
      <trkpt lat="43.31202" lon="5.54707">
        <ele>211</ele>
        <time>2013-11-13T11:22:50Z</time>
      </trkpt>
      <trkpt lat="43.31197" lon="5.54711">
        <ele>210.7</ele>
        <time>2013-11-13T11:22:54Z</time>
      </trkpt>
      <trkpt lat="43.31192" lon="5.54716">
        <ele>210.4</ele>
        <time>2013-11-13T11:22:58Z</time>
      </trkpt>
      <trkpt lat="43.31189" lon="5.54719">
        <ele>210</ele>
        <time>2013-11-13T11:23:01Z</time>
      </trkpt>
      <trkpt lat="43.31184" lon="5.54724">
        <ele>209.6</ele>
        <time>2013-11-13T11:23:05Z</time>
      </trkpt>
      <trkpt lat="43.31179" lon="5.54726">
        <ele>209.3</ele>
        <time>2013-11-13T11:23:08Z</time>
      </trkpt>
      <trkpt lat="43.31174" lon="5.54728">
        <ele>209</ele>
        <time>2013-11-13T11:23:12Z</time>
      </trkpt>
      <trkpt lat="43.31169" lon="5.54728">
        <ele>208.9</ele>
        <time>2013-11-13T11:23:16Z</time>
      </trkpt>
      <trkpt lat="43.31164" lon="5.5473">
        <ele>208.5</ele>
        <time>2013-11-13T11:23:20Z</time>
      </trkpt>
      <trkpt lat="43.31159" lon="5.54734">
        <ele>207.9</ele>
        <time>2013-11-13T11:23:23Z</time>
      </trkpt>
      <trkpt lat="43.31155" lon="5.54738">
        <ele>207.3</ele>
        <time>2013-11-13T11:23:27Z</time>
      </trkpt>
      <trkpt lat="43.31151" lon="5.5474">
        <ele>206.8</ele>
        <time>2013-11-13T11:23:31Z</time>
      </trkpt>
      <trkpt lat="43.31146" lon="5.54743">
        <ele>206.3</ele>
        <time>2013-11-13T11:23:34Z</time>
      </trkpt>
      <trkpt lat="43.31141" lon="5.54744">
        <ele>206</ele>
        <time>2013-11-13T11:23:37Z</time>
      </trkpt>
      <trkpt lat="43.31137" lon="5.54747">
        <ele>205.5</ele>
        <time>2013-11-13T11:23:41Z</time>
      </trkpt>
      <trkpt lat="43.31131" lon="5.54747">
        <ele>205.1</ele>
        <time>2013-11-13T11:23:45Z</time>
      </trkpt>
      <trkpt lat="43.31126" lon="5.54749">
        <ele>204.7</ele>
        <time>2013-11-13T11:23:48Z</time>
      </trkpt>
      <trkpt lat="43.3112" lon="5.54751">
        <ele>204.3</ele>
        <time>2013-11-13T11:23:53Z</time>
      </trkpt>
      <trkpt lat="43.31115" lon="5.54753">
        <ele>204</ele>
        <time>2013-11-13T11:23:56Z</time>
      </trkpt>
      <trkpt lat="43.3111" lon="5.54756">
        <ele>203.7</ele>
        <time>2013-11-13T11:24:00Z</time>
      </trkpt>
      <trkpt lat="43.31104" lon="5.54758">
        <ele>203.4</ele>
        <time>2013-11-13T11:24:04Z</time>
      </trkpt>
      <trkpt lat="43.31099" lon="5.54759">
        <ele>203.2</ele>
        <time>2013-11-13T11:24:07Z</time>
      </trkpt>
      <trkpt lat="43.31094" lon="5.54759">
        <ele>203</ele>
        <time>2013-11-13T11:24:11Z</time>
      </trkpt>
      <trkpt lat="43.31089" lon="5.54759">
        <ele>202.8</ele>
        <time>2013-11-13T11:24:15Z</time>
      </trkpt>
      <trkpt lat="43.31084" lon="5.54757">
        <ele>202.7</ele>
        <time>2013-11-13T11:24:18Z</time>
      </trkpt>
      <trkpt lat="43.31079" lon="5.54756">
        <ele>202.6</ele>
        <time>2013-11-13T11:24:22Z</time>
      </trkpt>
      <trkpt lat="43.31075" lon="5.54753">
        <ele>202.7</ele>
        <time>2013-11-13T11:24:26Z</time>
      </trkpt>
      <trkpt lat="43.31072" lon="5.54749">
        <ele>202.9</ele>
        <time>2013-11-13T11:24:30Z</time>
      </trkpt>
      <trkpt lat="43.31067" lon="5.54746">
        <ele>203.4</ele>
        <time>2013-11-13T11:24:36Z</time>
      </trkpt>
      <trkpt lat="43.31063" lon="5.54743">
        <ele>203.8</ele>
        <time>2013-11-13T11:24:41Z</time>
      </trkpt>
      <trkpt lat="43.31058" lon="5.5474">
        <ele>204.2</ele>
        <time>2013-11-13T11:24:46Z</time>
      </trkpt>
      <trkpt lat="43.31054" lon="5.54736">
        <ele>205</ele>
        <time>2013-11-13T11:24:53Z</time>
      </trkpt>
      <trkpt lat="43.3105" lon="5.54733">
        <ele>205.4</ele>
        <time>2013-11-13T11:24:57Z</time>
      </trkpt>
      <trkpt lat="43.31045" lon="5.54732">
        <ele>205.5</ele>
        <time>2013-11-13T11:25:01Z</time>
      </trkpt>
      <trkpt lat="43.3104" lon="5.54731">
        <ele>205.6</ele>
        <time>2013-11-13T11:25:06Z</time>
      </trkpt>
      <trkpt lat="43.31035" lon="5.54728">
        <ele>205.9</ele>
        <time>2013-11-13T11:25:11Z</time>
      </trkpt>
      <trkpt lat="43.3103" lon="5.54725">
        <ele>206.2</ele>
        <time>2013-11-13T11:25:16Z</time>
      </trkpt>
      <trkpt lat="43.31025" lon="5.54724">
        <ele>206.3</ele>
        <time>2013-11-13T11:25:20Z</time>
      </trkpt>
      <trkpt lat="43.3102" lon="5.54724">
        <ele>206.1</ele>
        <time>2013-11-13T11:25:24Z</time>
      </trkpt>
      <trkpt lat="43.31015" lon="5.54724">
        <ele>205.9</ele>
        <time>2013-11-13T11:25:28Z</time>
      </trkpt>
      <trkpt lat="43.31009" lon="5.54725">
        <ele>205.5</ele>
        <time>2013-11-13T11:25:31Z</time>
      </trkpt>
      <trkpt lat="43.31004" lon="5.54726">
        <ele>205.2</ele>
        <time>2013-11-13T11:25:35Z</time>
      </trkpt>
      <trkpt lat="43.30998" lon="5.54727">
        <ele>205</ele>
        <time>2013-11-13T11:25:40Z</time>
      </trkpt>
      <trkpt lat="43.30991" lon="5.54727">
        <ele>205.2</ele>
        <time>2013-11-13T11:25:45Z</time>
      </trkpt>
      <trkpt lat="43.30987" lon="5.54727">
        <ele>205.4</ele>
        <time>2013-11-13T11:25:49Z</time>
      </trkpt>
      <trkpt lat="43.30983" lon="5.54723">
        <ele>206.2</ele>
        <time>2013-11-13T11:25:56Z</time>
      </trkpt>
      <trkpt lat="43.3098" lon="5.54716">
        <ele>207.3</ele>
        <time>2013-11-13T11:26:05Z</time>
      </trkpt>
      <trkpt lat="43.30978" lon="5.54711">
        <ele>208.2</ele>
        <time>2013-11-13T11:26:12Z</time>
      </trkpt>
      <trkpt lat="43.30976" lon="5.54705">
        <ele>209.1</ele>
        <time>2013-11-13T11:26:20Z</time>
      </trkpt>
      <trkpt lat="43.30972" lon="5.547">
        <ele>209.9</ele>
        <time>2013-11-13T11:26:27Z</time>
      </trkpt>
      <trkpt lat="43.30969" lon="5.54693">
        <ele>210.9</ele>
        <time>2013-11-13T11:26:35Z</time>
      </trkpt>
      <trkpt lat="43.30968" lon="5.54686">
        <ele>211.9</ele>
        <time>2013-11-13T11:26:44Z</time>
      </trkpt>
      <trkpt lat="43.3097" lon="5.54679">
        <ele>212.9</ele>
        <time>2013-11-13T11:26:52Z</time>
      </trkpt>
      <trkpt lat="43.30966" lon="5.54675">
        <ele>213.4</ele>
        <time>2013-11-13T11:26:57Z</time>
      </trkpt>
      <trkpt lat="43.30961" lon="5.54674">
        <ele>213.6</ele>
        <time>2013-11-13T11:27:02Z</time>
      </trkpt>
      <trkpt lat="43.30957" lon="5.54671">
        <ele>213.9</ele>
        <time>2013-11-13T11:27:07Z</time>
      </trkpt>
      <trkpt lat="43.30953" lon="5.54666">
        <ele>214.5</ele>
        <time>2013-11-13T11:27:12Z</time>
      </trkpt>
      <trkpt lat="43.3095" lon="5.54662">
        <ele>214.8</ele>
        <time>2013-11-13T11:27:17Z</time>
      </trkpt>
      <trkpt lat="43.30945" lon="5.54658">
        <ele>214.9</ele>
        <time>2013-11-13T11:27:21Z</time>
      </trkpt>
      <trkpt lat="43.30941" lon="5.54654">
        <ele>215.1</ele>
        <time>2013-11-13T11:27:26Z</time>
      </trkpt>
      <trkpt lat="43.30937" lon="5.54652">
        <ele>215.2</ele>
        <time>2013-11-13T11:27:30Z</time>
      </trkpt>
      <trkpt lat="43.30932" lon="5.54648">
        <ele>215.3</ele>
        <time>2013-11-13T11:27:34Z</time>
      </trkpt>
      <trkpt lat="43.30928" lon="5.54645">
        <ele>215.4</ele>
        <time>2013-11-13T11:27:38Z</time>
      </trkpt>
      <trkpt lat="43.30923" lon="5.54641">
        <ele>215.5</ele>
        <time>2013-11-13T11:27:43Z</time>
      </trkpt>
      <trkpt lat="43.3092" lon="5.54637">
        <ele>215.5</ele>
        <time>2013-11-13T11:27:46Z</time>
      </trkpt>
      <trkpt lat="43.30917" lon="5.54632">
        <ele>215.7</ele>
        <time>2013-11-13T11:27:51Z</time>
      </trkpt>
      <trkpt lat="43.30913" lon="5.54628">
        <ele>215.9</ele>
        <time>2013-11-13T11:27:55Z</time>
      </trkpt>
      <trkpt lat="43.30908" lon="5.54626">
        <ele>216.1</ele>
        <time>2013-11-13T11:27:59Z</time>
      </trkpt>
      <trkpt lat="43.30904" lon="5.54626">
        <ele>216.3</ele>
        <time>2013-11-13T11:28:03Z</time>
      </trkpt>
      <trkpt lat="43.30899" lon="5.54624">
        <ele>216.5</ele>
        <time>2013-11-13T11:28:07Z</time>
      </trkpt>
      <trkpt lat="43.30897" lon="5.54619">
        <ele>216.7</ele>
        <time>2013-11-13T11:28:11Z</time>
      </trkpt>
      <trkpt lat="43.30894" lon="5.54612">
        <ele>217.1</ele>
        <time>2013-11-13T11:28:17Z</time>
      </trkpt>
      <trkpt lat="43.30893" lon="5.54606">
        <ele>217.3</ele>
        <time>2013-11-13T11:28:21Z</time>
      </trkpt>
      <trkpt lat="43.30893" lon="5.54599">
        <ele>217.6</ele>
        <time>2013-11-13T11:28:25Z</time>
      </trkpt>
      <trkpt lat="43.30892" lon="5.54593">
        <ele>217.9</ele>
        <time>2013-11-13T11:28:30Z</time>
      </trkpt>
      <trkpt lat="43.30892" lon="5.54586">
        <ele>218.2</ele>
        <time>2013-11-13T11:28:34Z</time>
      </trkpt>
      <trkpt lat="43.30893" lon="5.54578">
        <ele>218</ele>
        <time>2013-11-13T11:28:38Z</time>
      </trkpt>
      <trkpt lat="43.30893" lon="5.54571">
        <ele>217.6</ele>
        <time>2013-11-13T11:28:42Z</time>
      </trkpt>
      <trkpt lat="43.30893" lon="5.54564">
        <ele>217.1</ele>
        <time>2013-11-13T11:28:46Z</time>
      </trkpt>
      <trkpt lat="43.30893" lon="5.54556">
        <ele>216.7</ele>
        <time>2013-11-13T11:28:50Z</time>
      </trkpt>
      <trkpt lat="43.30894" lon="5.54549">
        <ele>216.3</ele>
        <time>2013-11-13T11:28:53Z</time>
      </trkpt>
      <trkpt lat="43.30897" lon="5.54543">
        <ele>215.8</ele>
        <time>2013-11-13T11:28:56Z</time>
      </trkpt>
      <trkpt lat="43.30897" lon="5.54537">
        <ele>215.4</ele>
        <time>2013-11-13T11:29:00Z</time>
      </trkpt>
      <trkpt lat="43.30899" lon="5.5453">
        <ele>214.9</ele>
        <time>2013-11-13T11:29:03Z</time>
      </trkpt>
      <trkpt lat="43.30902" lon="5.54524">
        <ele>214.4</ele>
        <time>2013-11-13T11:29:07Z</time>
      </trkpt>
      <trkpt lat="43.30907" lon="5.54523">
        <ele>214.1</ele>
        <time>2013-11-13T11:29:10Z</time>
      </trkpt>
      <trkpt lat="43.30912" lon="5.54524">
        <ele>213.9</ele>
        <time>2013-11-13T11:29:14Z</time>
      </trkpt>
    </trkseg>
  </trk>
</gpx>